[[{"header":{"parameterUnit":"m.s-1","parameterCategory":1,"la1":31.0,"la2":29.5877,"lo1":-88.7671,"lo2":-86.6584,"dy":0.0162,"dx":0.0185,"nx":115,"ny":88,"refTime":"2024-07-23T06:00:00:Z","depth":0,"parameterNumber":2,"parameterNumberName":"U-component_of_WINDS"},"data":[0.0,0.0,0.0,0.0,0.0,0.0,0.0,0.0,0.0,0.0,0.0,0.0,0.0,0.0,0.0,0.0,0.0,0.0,0.0,0.0,0.0,0.0,0.0,0.0,0.0,0.0,0.0,0.0,0.0,0.0,0.0,0.0,0.0,0.0,0.0,0.0,0.0,0.0,0.0,0.0,0.0,0.0,0.0,0.0,0.0,0.0,0.0,0.0,0.0,0.0,0.0,0.0,0.0,0.0,0.0,0.0,0.0,0.0,0.0,0.0,0.0,0.0,0.0,0.0,0.0,0.0,0.0,0.0,0.0,0.0,0.0,0.0,0.0,0.0,0.0,0.0,0.0,0.0,0.0,0.0,0.0,0.0,0.0,0.0,0.0,0.0,0.0,0.0,0.0,0.0,0.0,0.0,0.0,0.0,0.0,0.0,0.0,0.0,0.0,0.0,0.0,0.0,0.0,0.0,0.0,0.0,0.0,0.0,0.0,0.0,0.0,0.0,0.0,0.0,0.0,0.0,0.0,0.0,0.0,0.0,0.0,0.0,0.0,0.0,0.0,0.0,0.0,0.0,0.0,0.0,0.0,0.0,0.0,0.0,0.0,0.0,0.0,0.0,0.0,0.0,0.0,0.0,0.0,0.0,0.0,0.0,0.0,0.0,0.0,0.0,0.0,0.0,0.0,0.0,0.0,0.0,0.0,0.0,0.0,0.0,0.0,0.0,0.0,0.0,0.0,0.0,0.0,0.0,0.0,0.0,0.0,0.0,0.0,0.0,0.0,0.0,0.0,0.0,0.0,0.0,0.0,0.0,0.0,0.0,0.0,0.0,0.0,0.0,0.0,0.0,0.0,0.0,0.0,0.0,0.0,0.0,0.0,0.0,0.0,0.0,0.0,0.0,0.0,0.0,0.0,0.0,0.0,0.0,0.0,0.0,0.0,0.0,0.0,0.0,0.0,0.0,0.0,0.0,0.0,0.0,0.0,0.0,0.0,0.0,0.0,0.0,0.0,0.0,0.0,0.0,0.0,0.0,0.0,0.0,0.0,0.0,0.0,0.0,0.0,0.0,0.0,0.0,0.0,0.0,0.0,0.0,0.0,0.0,0.0,0.0,0.0,0.0,0.0,0.0,0.0,0.0,0.0,0.0,0.0,0.0,0.0,0.0,0.0,0.0,0.0,0.0,0.0,0.0,0.0,0.0,0.0,0.0,0.0,0.0,0.0,0.0,0.0,0.0,0.0,0.0,0.0,0.0,0.0,0.0,0.0,0.0,0.0,0.0,0.0,0.0,0.0,0.0,0.0,0.0,0.0,0.0,0.0,0.0,0.0,0.0,0.0,0.0,0.0,0.0,0.0,0.0,0.0,0.0,0.0,0.0,0.0,0.0,0.0,0.0,0.0,0.0,0.0,0.0,0.0,0.0,0.0,0.0,0.0,0.0,0.0,0.0,0.0,0.0,0.0,0.0,0.0,0.0,0.0,0.0,0.0,0.0,0.0,0.0,0.0,0.0,0.0,0.0,0.0,0.0,0.0,0.0,0.0,0.0,0.0,0.0,0.0,0.0,0.0,0.0,0.0,0.0,0.0,0.0,0.0,0.0,0.0,0.0,0.0,0.0,0.0,0.0,0.0,0.0,0.0,0.0,0.0,0.0,0.0,0.0,0.0,0.0,0.0,0.0,0.0,0.0,0.0,0.0,0.0,0.0,0.0,0.0,0.0,0.0,0.0,0.0,0.0,0.0,0.0,0.0,0.0,0.0,0.0,0.0,0.0,0.0,0.0,0.0,0.0,0.0,0.0,0.0,0.0,0.0,0.0,0.0,0.0,0.0,0.0,0.0,0.0,0.0,0.0,0.0,0.0,0.0,0.0,0.0,0.0,0.0,0.0,0.0,0.0,0.0,0.0,0.0,0.0,0.0,0.0,0.0,0.0,0.0,0.0,0.0,0.0,0.0,0.0,0.0,0.0,0.0,0.0,0.0,0.0,0.0,0.0,0.0,0.0,0.0,0.0,0.0,0.0,0.0,0.0,0.0,0.0,0.0,0.0,0.0,0.0,0.0,0.0,0.0,0.0,0.0,0.0,0.0,0.0,0.0,0.0,0.0,0.0,0.0,0.0,0.0,0.0,0.0,0.0,0.0,0.0,0.0,0.0,0.0,0.0,0.0,0.0,0.0,0.0,0.0,0.0,0.0,0.0,0.0,0.0,0.0,0.0,0.0,0.0,0.0,0.0,0.0,0.0,0.0,0.0,0.0,0.0,0.0,0.0,0.0,0.0,0.0,0.0,0.0,0.0,0.0,0.0,0.0,0.0,0.0,0.0,0.0,0.0,0.0,0.0,0.0,0.0,0.0,0.0,0.0,0.0,0.0,0.0,0.0,0.0,0.0,0.0,0.0,0.0,0.0,0.0,0.0,0.0,0.0,0.0,0.0,0.0,0.0,0.0,0.0,0.0,0.0,0.0,0.0,0.0,0.0,0.0,0.0,0.0,0.0,0.0,0.0,0.0,0.0,0.0,0.0,0.0,0.0,0.0,0.0,0.0,0.0,0.0,0.0,0.0,0.0,0.0,0.0,0.0,0.0,0.0,0.0,0.0,0.0,0.0,0.0,0.0,0.0,0.0,0.0,0.0,0.0,0.0,0.0,0.0,0.0,0.0,0.0,0.0,0.0,0.0,0.0,0.0,0.0,0.0,0.0,0.0,0.0,0.0,0.0,0.0,0.0,0.0,0.0,0.0,0.0,0.0,0.0,0.0,0.0,0.0,0.0,0.0,0.0,0.0,0.0,0.0,0.0,0.0,0.0,0.0,0.0,0.0,0.0,0.0,0.0,0.0,0.0,0.0,0.0,0.0,0.0,0.0,0.0,0.0,0.0,0.0,0.0,0.0,0.0,0.0,0.0,0.0,0.0,0.0,0.0,0.0,0.0,0.0,0.0,0.0,0.0,0.0,0.0,0.0,0.0,0.0,0.0,0.0,0.0,0.0,0.0,0.0,0.0,0.0,0.0,0.0,0.0,0.0,0.0,0.0,0.0,0.0,0.0,0.0,0.0,0.0,0.0,0.0,0.0,0.0,0.0,0.0,0.0,0.0,0.0,0.0,0.0,0.0,0.0,0.0,0.0,0.0,0.0,0.0,0.0,0.0,0.0,0.0,0.0,0.0,0.0,0.0,0.0,0.0,0.0,0.0,0.0,0.0,0.0,0.0,0.0,0.0,0.0,0.0,0.0,0.0,0.0,0.0,0.0,0.0,0.0,0.0,0.0,0.0,0.0,0.0,0.0,0.0,0.0,0.0,0.0,0.0,0.0,0.0,0.0,0.0,0.0,0.0,0.0,0.0,0.0,0.0,0.0,0.0,0.0,0.0,0.0,0.0,0.0,0.0,0.0,0.0,0.0,0.0,0.0,0.0,0.0,0.0,0.0,0.0,0.0,0.0,0.0,0.0,0.0,0.0,0.0,0.0,0.0,0.0,0.0,0.0,0.0,0.0,0.0,0.0,0.0,0.0,0.0,0.0,0.0,0.0,0.0,0.0,0.0,0.0,0.0,0.0,0.0,0.0,0.0,0.0,0.0,0.0,0.0,0.0,0.0,0.0,0.0,0.0,0.0,0.0,0.0,0.0,0.0,0.0,0.0,0.0,0.0,0.0,0.0,0.0,0.0,0.0,0.0,0.0,0.0,0.0,0.0,0.0,0.0,0.0,0.0,0.0,0.0,0.0,0.0,0.0,0.0,0.0,0.0,0.0,0.0,0.0,0.0,0.0,0.0,0.0,0.0,0.0,0.0,0.0,0.0,0.0,0.0,0.0,0.0,0.0,0.0,0.0,0.0,0.0,0.0,0.0,0.0,0.0,0.0,0.0,0.0,0.0,0.0,0.0,0.0,0.0,0.0,0.0,0.0,0.0,0.0,0.0,0.0,0.0,0.0,0.0,0.0,0.0,0.0,0.0,0.0,0.0,0.0,0.0,0.0,0.0,0.0,0.0,0.0,0.0,0.0,0.0,0.0,0.0,0.0,0.0,0.0,0.0,0.0,0.0,0.0,0.0,0.0,0.0,0.0,0.0,0.0,0.0,0.0,0.0,0.0,0.0,0.0,0.0,0.0,0.0,0.0,0.0,0.0,0.0,0.0,0.0,0.0,0.0,0.0,0.0,0.0,0.0,0.0,0.0,0.0,0.0,0.0,0.0,0.0,0.0,0.0,0.0,0.0,0.0,0.0,0.0,0.0,0.0,0.0,0.0,0.0,0.0,0.0,0.0,0.0,0.0,0.0,0.0,0.0,0.0542,0.0,0.0,0.0,0.0,0.0,0.0,0.0,0.0,0.0,0.0,0.0,0.0,0.0,0.0,0.0,0.0,0.0,0.0,0.0,0.0,0.0,0.0,0.0,0.0,0.0,0.0,0.0,0.0,0.0,0.0,0.0,0.0,0.0,0.0,0.0,0.0,0.0,0.0,0.0,0.0,0.0,0.0,0.0,0.0,0.0,0.0,0.0,0.0,0.0,0.0,0.0,0.0,0.0,0.0,0.0,0.0,0.0,0.0,0.0,0.0,0.0,0.0,0.0,0.0,0.0,0.0,0.0,0.0,0.0,0.0,0.0,0.0,0.0,0.0,0.0,0.0,0.0,0.0,0.0,0.0,0.0,0.0,0.0,0.0,0.0,0.0,0.0,0.0,0.0,0.0,0.0,0.0,0.0,0.0,0.0,0.0,0.0,0.0,0.0,0.0,0.0,0.0,0.0,0.0,0.0,0.0,0.0,0.0,0.0,0.0,0.11,0.1035,0.0975,0.0873,0.0812,0.0,0.0,0.0,0.0,0.0,0.0,0.0,0.0,0.0,0.0,0.0,0.0,0.0,0.0,0.0,0.0,0.0,0.0,0.0,0.0,0.0,0.0,0.0,0.0,0.0,0.0,0.0,0.0,0.0,0.0,0.0,0.0,0.0,0.0,0.0,0.0,0.0,0.0,0.0,0.0,0.0,0.0,0.0,0.0,0.0,0.0,0.0,0.0,0.0,0.0,0.0,0.0,0.0,0.0,0.0,0.0,0.0,0.0,0.0,0.0,0.0,0.0,0.0,0.0,0.0,0.0,0.0,0.0,0.0,0.0,0.0,0.0,0.0,0.0,0.0,0.0,0.0,0.0,0.0,0.0,0.0,0.0,0.0,0.0,0.0,0.0,0.0,0.0,0.0,0.0,0.0,0.0,0.0,0.0,0.0,0.0,0.0,0.0,0.0,0.0,0.0,0.0,0.0,0.0,0.0,0.0,0.0,0.0,0.0,0.0,0.0,0.0,0.1416,0.1277,0.1117,0.0,0.0,0.0,0.0,0.0,0.0,0.0,0.0,0.0,0.0,0.0,0.0,0.0,0.0,0.0,0.0,0.0,0.0,0.0,0.0,0.0,0.0,0.0,0.0,0.0,0.0,0.0,0.0,0.0,0.0,0.0,0.0,0.0,0.0,0.0,0.0,0.0,0.0,0.0,0.0,0.0,0.0,0.0,0.0,0.0,0.0,0.0,0.0,0.0,0.0,0.0,0.0,0.0,0.0,0.0,0.0,0.0,0.0,0.0,0.0,0.0,0.0,0.0,0.0,0.0,0.0,0.0,0.0,0.0,0.0,0.0,0.0,0.0,0.0,0.0,0.0,0.0,0.0,0.0,0.0,0.0,0.0,0.0,0.0,0.0,0.0,0.0,0.0,0.0,0.0,0.0,0.0,0.0,0.0,0.0,0.0,0.0,0.0,0.0,0.0,0.0,0.0,0.0,0.0,0.0,0.0,0.0,0.0,0.0,0.0,0.2139,0.2034,0.1964,0.0,0.1399,0.0,0.0,0.0,0.0,0.0,0.0,0.0,0.0,0.0,0.0,0.0,0.0,0.0,0.0,0.0,0.0,0.0,0.0,0.0,0.0,0.0,0.0,0.0,0.0,0.0,0.0,0.0,0.0,0.0,0.0,0.0,0.0,0.0,0.0,0.0,0.0,0.0,0.0,0.0,0.0,0.0,0.0,0.0,0.0,0.0,0.0,0.0,0.0,0.0,0.0,0.0,0.0,0.0,0.0,0.0,0.0,0.0,0.0,0.0,0.0,0.0,0.0,0.0,0.0,0.0,0.0,0.0,0.0,0.0,0.0,0.0,0.0,0.0,0.0,0.0,0.0,0.0,0.0,0.0,0.0,0.0,0.0,0.0,0.0,0.0,0.0,0.0,0.0,0.0,0.0,0.0,0.0,0.0,0.0,0.0,0.0,0.0,0.0,0.0,0.0,0.0,0.0,0.0,0.0,0.0,0.0,0.0,0.0,0.0,0.0,0.0,0.2711,0.2498,0.2236,0.0,0.0,0.0,0.0,0.0,0.0,0.0,0.0,0.0,0.0,0.0,0.0,0.0,0.0,0.0,0.0,0.0,0.0,0.0,0.0,0.0,0.0,0.0,0.0,0.0,0.0,0.0,0.0,0.0,0.0,0.0,0.0,0.0,0.0,0.0,0.0,0.0,0.0,0.0,0.0,0.0,0.0,0.0,0.0,0.0,0.0,0.0,0.0,0.0,0.0,0.0,0.0,0.0,0.0,0.0,0.0,0.0,0.0,0.0,0.0,0.0,0.0,0.0,0.0,0.0,0.0,0.0,0.0,0.0,0.0,0.0,0.0,0.0,0.0,0.0,0.0,0.0,0.0,0.0,0.0,0.0,0.0,0.0,0.0,0.0,0.0,0.0,0.0,0.0,0.0,0.0,0.0,0.0,0.0,0.0,0.0,0.0,0.0,0.0,0.0,0.0,0.0,0.0,0.0,0.0,0.0,0.0,0.0,0.0,0.0,0.3735,0.0,0.3503,0.32,0.2816,0.2373,0.0,0.0,0.0,0.0,0.0,0.0,0.0,0.0,0.0,0.0,0.0,0.0,0.0,0.0,0.0,0.0,0.0,0.0,0.0,0.0,0.0,0.0,0.0,0.0,0.0,0.0,0.0,0.0,0.0,0.0,0.0,0.0,0.0,0.0,0.0,0.0,0.0,0.0,0.0,0.0,0.0,0.0,0.0,0.0,0.0,0.0,0.0,0.0,0.0,0.0,0.0,0.0,0.0,0.0,0.0,0.0,0.0,0.0,0.0,0.0,0.0,0.0,0.0,0.0,0.0,0.0,0.0,0.0,0.0,0.0,0.0,0.0,0.0,0.0,0.0,0.0,0.0,0.0,0.0,0.0,0.0,0.0,0.0,0.0,0.0,0.0,0.0,0.0,0.0,0.0,0.0,0.0,0.0,0.0,0.0,0.0,0.0,0.0,0.0,0.0,0.0,0.0,0.0,0.0,0.0,0.0,0.0,0.0,0.0,0.479,0.4686,0.4528,0.4084,0.3612,0.0,0.0,0.0,0.0,0.0,0.0,0.0,0.0,0.0,0.0,0.0,0.0,0.0,0.0,0.0,0.0,0.0,0.0,0.0,0.0,0.0,0.0,0.0,0.0,0.0,0.0,0.0,0.0,0.0,0.0,0.0,0.0,0.0,0.0,0.0,0.0,0.0,0.0,0.0,0.0,0.0,0.0,0.0,0.0,0.0,0.0,0.0,0.0,0.0,0.0,0.0,0.0,0.0,0.0,0.0,0.0,0.0,0.0,0.0,0.0,0.0,0.0,0.0,0.0,0.0,0.0,0.0,0.0,0.0,0.0,0.0,0.0,0.0,0.0,0.0,0.0,0.0,0.0,0.0,0.0,0.0,0.0,0.0,0.0,0.0,0.0,0.0,0.0,0.0,0.0,0.0,0.0,0.0,0.0,0.0,0.0,0.0,0.0,0.0,0.0,0.0,0.0,0.0,0.0,0.0,0.0,0.0,0.0,0.0,0.577,0.5558,0.5421,0.5371,0.488,0.4345,0.0,0.0,0.0,0.0,0.0,0.0,0.0,0.0,0.0,0.0,0.0,0.0,0.0,0.0,0.0,0.0,0.0,0.0,0.0,0.0,0.0,0.0,0.0,0.0,0.0,0.0,0.0,0.0,0.0,0.0,0.0,0.0,0.0,0.0,0.0,0.0,0.0,0.0,0.0,0.0,0.0,0.0,0.0,0.0,0.0,0.0,0.0,0.0,0.0,0.0,0.0,0.0,0.0,0.0,0.0,0.0,0.0,0.0,0.0,0.0,0.0,0.0,0.0,0.0,0.0,0.0,0.0,0.0,0.0,0.0,0.0,0.0,0.0,0.0,0.0,0.0,0.0,0.0,0.0,0.0,0.0,0.0,0.0,0.0,0.0,0.0,0.0,0.0,0.0,0.0,0.0,0.0,0.0,0.0,0.0,0.0,0.0,0.0,0.0,0.0,0.0,0.0,0.0,0.0,0.0,0.0,0.0,0.0,0.0,0.6881,0.0,0.6663,0.0,0.6,0.5366,0.0,0.0,0.0,0.0,0.0,0.0,0.0,0.0,0.0,0.0,0.0,0.0,0.0,0.0,0.0,0.0,0.0,0.0,0.0,0.0,0.0,0.0,0.0,0.0,0.0,0.0,0.0,0.0,0.0,0.0,0.0,0.0,0.0,0.0,0.0,0.0,0.0,0.0,0.0,0.0,0.0,0.0,0.0,0.0,0.0,0.0,0.0,0.0,0.0,0.0,0.0,0.0,0.0,0.0,0.0,0.0,0.0,0.0,0.0,0.0,0.0,0.0,0.0,0.0,0.0,0.0,0.0,0.0,0.0,0.0,0.0,0.0,0.0,0.0,0.0,0.0,0.0,0.0,0.0,0.0,0.0,0.0,0.0,0.0,0.0,0.0,0.0,0.0,0.0,0.0,0.0,0.0,0.0,0.0,0.0,0.0,0.0,0.0,0.0,0.0,0.0,0.0,0.0,0.0,0.0,0.0,0.0,0.0,0.7699,0.8127,0.8519,0.8426,0.7916,0.7491,0.6708,0.0,0.0,0.0,0.0,0.0,0.0,0.0,0.0,0.0,0.0,0.0,0.0,0.0,0.0,0.0,0.0,0.0,0.0,0.0,0.0,0.0,0.0,0.0,0.0,0.0,0.0,0.0,0.0,0.0,0.0,0.0,0.0,0.0,0.0,0.0,0.0,0.0,0.0,0.0,0.0,0.0,0.0,0.0,0.0,0.0,0.0,0.0,0.0,0.0,0.0,0.0,0.0,0.0,0.0,0.0,0.0,0.0,0.0,0.0,0.0,0.0,0.0,0.0,0.0,0.0,0.0,0.0,0.0,0.0,0.0,0.0,0.0,0.0,0.0,0.0,0.0,0.0,0.0,0.0,0.0,0.0,0.0,0.0,0.0,0.0,0.0,0.0,0.0,0.0,0.0,0.0,0.0,0.0,0.0,0.0,0.0,0.0,0.0,0.0,0.0,0.0,0.0,0.0,0.0,0.0,0.0,0.0,0.0,0.0,1.0088,1.0032,0.9712,0.9146,0.8673,0.7724,0.0,0.0,0.0,0.0,0.0,0.0,0.0,0.0,0.0,0.0,0.0,0.0,0.0,0.0,0.0,0.0,0.0,0.0,0.0,0.0,0.0,0.0,0.0,0.0,0.0,0.0,0.0,0.0,0.0,0.0,0.0,0.0,0.0,0.0,0.0,0.0,0.0,0.0,0.0,0.0,0.0,0.0,0.0,0.0,0.0,0.0,0.0,0.0,0.0,0.0,0.0,0.0,0.0,0.0,0.0,0.0,0.0,0.0,0.0,0.0,0.0,0.0,0.0,0.0,0.0,0.0,0.0,0.0,0.0,0.0,0.0,0.0,0.0,0.0,0.0,0.0,0.0,0.0,0.0,0.0,0.0,0.0,0.0,0.0,0.0,0.0,0.0,0.0,0.0,0.0,0.0,0.0,0.0,0.0,0.0,0.0,0.0,0.0,0.0,0.0,0.0,0.0,0.0,0.0,0.0,0.0,0.0,0.0,0.0,1.2781,1.2103,1.1435,1.0845,1.0217,0.9306,0.799,0.0,0.0,0.0,0.0,0.0,0.0,0.0,0.0,0.0,0.0,0.0,0.0,0.0,0.0,0.0,0.0,0.0,0.0,0.0,0.0,0.0,0.0,0.0,0.0,0.0,0.0,0.0,0.0,0.0,0.0,0.0,0.0,0.0,0.0,0.0,0.0,0.0,0.0,0.0,0.0,0.0,0.0,0.0,0.0,0.0,0.0,0.0,0.0,0.0,0.0,0.0,0.0,0.0,0.0,0.0,0.0,0.0,0.0,0.0,0.0,0.0,0.0,0.0,0.0,0.0,0.0,0.0,0.0,0.0,0.0,0.0,0.0,0.0,0.0,0.0,0.0,0.0,0.0,0.0,0.0,0.0,0.0,0.0,0.0,0.0,0.0,0.0,0.0,0.0,0.0,0.0,0.0,0.0,0.0,0.0,0.0,0.0,0.0,0.0,0.0,0.0,0.0,0.0,0.0,0.0,0.0,0.0,0.0,1.5869,1.4532,1.352,1.2815,1.2091,1.1191,0.0,0.0,0.0,0.0,0.0,0.0,0.0,0.0,0.0,0.0,0.0,0.0,0.0,0.0,0.0,0.0,0.0,0.0,0.0,0.0,0.0,0.0,0.0,0.0,0.0,0.0,0.0,0.0,0.0,0.0,0.0,0.0,0.0,0.0,0.0,0.0,0.0,0.0,0.0,0.0,0.0,0.0,0.0,0.0,0.0,0.0,0.0,0.0,0.0,0.0,0.0,0.0,0.0,0.0,0.0,0.0,0.0,0.0,0.0,0.0,0.0,0.0,0.0,0.0,0.0,0.0,0.0,0.0,0.0,0.0,0.0,0.0,0.0,0.0,0.0,0.0,0.0,0.0,0.0,0.0,0.0,0.0,0.0,0.0,0.0,0.0,0.0,0.0,0.0,0.0,0.0,0.0,0.0,0.0,0.0,0.0,0.0,0.0,0.0,0.0,0.0,0.0,0.0,0.0,0.0,0.0,0.0,0.0,0.0,1.6954,1.6685,1.5754,1.424,1.3326,1.2304,0.0,0.0,0.0,0.0,0.0,0.0,0.0,0.0,0.0,0.0,0.0,0.0,0.0,0.0,0.0,0.0,0.0,0.0,0.0,0.0,0.0,0.0,0.0,0.0,0.0,0.0,0.0,0.0,0.0,0.0,0.0,0.0,0.0,0.0,0.0,0.0,0.0,0.0,0.0,0.0,0.0,0.0,0.0,0.0,0.0,0.0,0.0,0.0,0.0,0.0,0.0,0.0,0.0,0.0,0.0,0.0,0.0,0.0,0.0,0.0,0.0,0.0,0.0,0.0,0.0,0.0,0.0,0.0,0.0,0.0,0.0,0.0,0.0,0.0,0.0,0.0,0.0,0.0,0.0,0.0,0.0,0.0,0.0,0.0,0.0,0.0,0.0,0.0,0.0,0.0,0.0,0.0,0.0,0.0,0.0,0.0,0.0,0.0,0.0,0.0,0.0,0.0,0.0,0.0,0.0,0.0,0.0,0.0,1.6583,1.8014,1.8025,1.7475,1.6423,1.4837,1.3644,0.0,0.0,0.0,0.0,0.0,0.0,0.0,0.0,0.0,0.0,0.0,0.0,0.0,0.0,0.0,0.0,0.0,0.0,0.0,0.0,0.0,0.0,0.0,0.0,0.0,0.0,0.0,0.0,0.0,0.0,0.0,0.0,0.0,0.0,0.0,0.0,0.0,0.0,0.0,0.0,0.0,0.0,0.0,0.0,0.0,0.0,0.0,0.0,0.0,0.0,0.0,0.0,0.0,0.0,0.0,0.0,0.0,0.0,0.0,0.0,0.0,0.0,0.0,0.0,0.0,0.0,0.0,0.0,0.0,0.0,0.0,0.0,0.0,0.0,0.0,0.0,0.0,0.0,0.0,0.0,0.0,0.0,0.0,0.0,0.0,0.0,0.0,0.0,0.0,0.0,0.0,0.0,0.0,0.0,0.0,0.0,0.0,0.0,0.0,0.0,0.0,0.0,0.0,0.0,0.0,0.0,0.0,0.0,1.7421,1.8846,1.8815,1.8789,1.8691,1.6481,1.5117,0.0,0.0,0.0,0.0,0.0,0.0,0.0,0.0,0.0,0.0,0.0,0.0,0.0,0.0,0.0,0.0,0.0,0.0,0.0,0.0,0.0,0.0,0.0,0.0,0.0,0.0,0.0,0.0,0.0,0.0,0.0,0.0,0.0,0.0,0.0,0.0,0.0,0.0,0.0,0.0,0.0,0.0,0.0,0.0,0.0,0.0,0.0,0.0,0.0,0.0,0.0,0.0,0.0,0.0,0.0,0.0,0.0,0.0,0.0,0.0,0.0,0.0,0.0,0.0,0.0,0.0,0.0,0.0,0.0,0.0,0.0,0.0,0.0,0.0,0.0,0.0,0.0,0.0,0.0,0.0,0.0,0.0,0.0,0.0,0.0,0.0,0.0,0.0,0.0,0.0,0.0,0.0,0.0,0.0,0.0,0.0,0.0,0.0,0.0,0.0,0.0,0.0,0.0,0.0,0.0,0.0,0.0,0.0,1.8516,1.9406,1.943,1.9335,1.9182,1.763,1.6469,0.0,0.0,0.0,0.0,0.0,0.0,0.0,0.0,0.0,0.0,0.0,0.0,0.0,0.0,0.0,0.0,0.0,0.0,0.0,0.0,0.0,0.0,0.0,0.0,0.0,0.0,0.0,0.0,0.0,0.0,0.0,0.0,0.0,0.0,0.0,0.0,0.0,0.0,0.0,0.0,0.0,0.0,0.0,0.0,0.0,0.0,0.0,0.0,-1.2845,0.0,0.0,0.0,0.0,0.0,0.0,0.0,0.0,0.0,0.0,0.0,0.0,0.0,0.0,0.0,0.0,0.0,0.0,0.0,0.0,0.0,0.0,0.0,0.0,0.0,0.0,0.0,0.0,0.0,0.0,0.0,0.0,0.0,0.0,0.0,0.0,0.0,0.0,0.0,0.0,0.0,0.0,0.0,0.0,0.0,0.0,0.0,0.0,0.0,0.0,0.0,0.0,0.0,0.0,0.0,0.0,0.0,0.0,0.0,1.9088,1.9808,1.9832,1.9766,1.9604,1.8905,1.7826,0.0,0.0,0.0,0.0,0.0,0.0,0.0,0.0,0.0,0.0,0.0,0.0,0.0,0.0,0.0,0.0,0.0,0.0,0.0,0.0,0.0,0.0,0.0,0.0,0.0,0.0,0.0,0.0,0.0,0.0,0.0,0.0,0.0,0.0,0.0,0.0,0.0,0.0,0.0,0.0,0.0,0.0,0.0,0.0,0.0,0.0,0.0,0.0,0.0,0.0,0.0,0.0,0.0,0.0,0.0,0.0,0.0,0.0,0.0,0.0,0.0,0.0,0.0,0.0,0.0,0.0,0.0,0.0,0.0,0.0,0.0,0.0,0.0,0.0,0.0,0.0,0.0,0.0,0.0,0.0,0.0,0.0,0.0,0.0,0.0,0.0,0.0,0.0,0.0,0.0,0.0,0.0,0.0,0.0,0.0,0.0,0.0,0.0,0.0,0.0,0.0,0.0,0.0,0.0,0.0,0.0,0.0,1.871,1.9513,2.0118,2.0148,2.0127,2.0047,1.9983,1.8997,1.6905,0.0,0.0,0.0,0.0,0.0,0.0,0.0,0.0,0.0,0.0,0.0,0.0,0.0,0.0,0.0,0.0,0.0,0.0,0.0,0.0,0.0,0.0,0.0,0.0,0.0,0.0,0.0,0.0,0.0,0.0,0.0,0.0,0.0,0.0,0.0,0.0,0.0,0.0,0.1037,-0.3383,0.0,0.0,0.0,0.0,0.0,0.0,0.0,0.0,-1.4264,0.0,0.0,0.0,0.0,0.0,0.0,0.0,0.0,0.0,0.0,0.0,0.0,0.0,0.0,0.0,0.0,0.0,0.0,0.0,0.0,0.0,0.0,0.0,0.0,0.0,0.0,0.0,0.0,0.0,0.0,0.0,0.0,0.0,0.0,0.0,0.0,0.0,0.0,0.0,0.0,0.0,0.0,0.0,0.0,0.0,0.0,0.0,0.0,0.0,0.0,0.0,0.0,0.0,0.0,0.0,0.0,1.7865,1.9395,2.0214,2.0347,2.0345,2.0323,2.0249,2.024,1.9386,1.7625,0.0,0.0,0.0,0.0,0.0,0.0,0.0,0.0,0.0,0.0,0.0,0.0,0.0,0.0,0.0,0.0,0.0,0.0,0.0,0.0,0.0,0.0,0.0,0.0,0.0,0.0,0.0,0.0,0.0,0.0,0.0,0.0,0.0,0.0,0.0,0.0,0.0,0.0,0.0,-0.591,-0.8313,0.0,0.0,0.0,0.0,0.0,0.0,0.0,0.0,-1.4451,0.0,0.0,0.0,0.0,0.0,0.0,0.0,0.0,0.0,0.0,0.0,0.0,0.0,0.0,0.0,0.0,0.0,0.0,0.0,0.0,0.0,0.0,0.0,0.0,0.0,0.0,0.0,0.0,0.0,0.0,0.0,0.0,0.0,0.0,0.0,0.0,0.0,0.0,0.0,0.0,0.0,0.0,0.0,0.0,0.0,0.0,0.0,0.0,0.0,0.0,0.0,0.0,0.0,0.0,0.0,1.7938,1.9533,2.0391,2.0403,2.0433,2.0414,2.0353,2.0357,1.9555,0.0,0.0,0.0,0.0,0.0,0.0,0.0,0.0,0.0,0.0,0.0,0.0,0.0,0.0,0.0,0.0,0.0,0.0,0.0,0.0,0.0,0.0,0.0,0.0,0.0,0.0,0.0,0.0,0.0,0.0,0.0,0.0,0.0,0.0,0.0,0.0,0.0,0.0,0.0,0.0,-0.7315,-0.9208,-1.1089,0.0,0.0,0.0,0.0,0.0,0.0,-1.5262,-1.5191,0.0,0.0,0.0,0.0,0.0,0.0,0.0,0.0,0.0,0.0,0.0,0.0,0.0,0.0,0.0,0.0,0.0,0.0,0.0,0.0,0.0,0.0,0.0,0.0,0.0,0.0,0.0,0.0,0.0,0.0,0.0,0.0,0.0,0.0,0.0,0.0,0.0,0.0,0.0,0.0,0.0,0.0,0.0,0.0,0.0,0.0,0.0,0.0,0.0,0.0,0.0,0.0,0.0,0.0,0.0,1.7775,1.943,2.0334,2.0365,2.0418,2.0427,2.0385,2.0385,1.9624,0.0,0.0,0.0,0.0,0.0,0.0,0.0,0.0,0.0,0.0,0.0,0.0,0.0,0.0,0.0,0.0,0.0,0.0,0.0,0.0,0.0,0.0,0.0,0.0,0.0,0.0,0.0,0.0,0.0,0.0,0.0,0.0,0.0,0.0,0.0,0.0,0.0,0.0,0.0,0.0,0.0,-1.0151,-1.2217,-1.3293,0.0,0.0,0.0,0.0,-1.6353,-1.6191,0.0,0.0,0.0,0.0,0.0,0.0,0.0,0.0,0.0,0.0,0.0,0.0,0.0,0.0,0.0,0.0,0.0,0.0,0.0,0.0,0.0,0.0,0.0,0.0,0.0,0.0,0.0,0.0,0.0,0.0,0.0,0.0,0.0,0.0,0.0,0.0,0.0,0.0,0.0,0.0,0.0,0.0,0.0,0.0,0.0,0.0,0.0,0.0,0.0,0.0,0.0,0.0,0.0,0.0,0.0,0.0,1.7501,1.916,2.0101,2.0221,2.0223,2.0302,2.0385,2.0289,1.9655,0.0,0.0,0.0,0.0,0.0,0.0,0.0,0.0,0.0,0.0,0.0,0.0,0.0,0.0,0.0,0.0,0.0,0.0,0.0,0.0,0.0,0.0,0.0,0.0,0.0,0.0,0.0,0.0,0.0,0.0,0.0,0.0,0.0,0.0,0.0,0.0,0.0,0.0,0.0,0.0,0.0,-1.1386,-1.3055,-1.4246,-1.546,0.0,0.0,-1.7288,-1.7119,-1.7283,0.0,0.0,0.0,0.0,0.0,0.0,0.0,0.0,0.0,0.0,0.0,0.0,0.0,0.0,0.0,0.0,0.0,0.0,0.0,0.0,0.0,0.0,0.0,0.0,0.0,0.0,0.0,0.0,0.0,0.0,0.0,0.0,0.0,0.0,0.0,0.0,0.0,0.0,0.0,0.0,0.0,0.0,0.0,0.0,0.0,0.0,0.0,0.0,0.0,0.0,0.0,0.0,0.0,0.0,0.0,1.6904,1.7055,1.8711,1.9664,1.9791,1.9831,1.9907,1.9945,1.984,1.9116,0.0,0.0,0.0,0.0,0.0,0.0,0.0,0.0,0.0,0.0,0.0,0.0,0.0,0.0,0.0,0.0,0.0,0.0,0.0,0.0,0.0,0.0,0.0,0.0,0.0,0.0,0.0,0.0,0.0,0.0,0.0,0.0,0.0,0.0,0.0,0.0,0.0,0.0,0.0,0.0,0.0,0.0,-1.3775,-1.5062,0.0,0.0,0.0,-1.7642,-1.7754,0.0,0.0,0.0,0.0,0.0,0.0,0.0,0.0,0.0,0.0,0.0,0.0,0.0,0.0,0.0,0.0,0.0,0.0,0.0,0.0,0.0,0.0,0.0,0.0,0.0,0.0,0.0,0.0,0.0,0.0,0.0,0.0,0.0,0.0,0.0,0.0,0.0,0.0,0.0,0.0,0.0,0.0,0.0,0.0,0.0,0.0,0.0,0.0,0.0,0.0,0.0,0.0,0.0,0.0,0.0,0.0,0.0,1.6539,1.8185,1.9103,1.9225,1.9281,1.9322,1.9316,1.9212,0.0,0.0,0.0,0.0,0.0,0.0,0.0,0.0,0.0,0.0,0.0,0.0,0.0,0.0,0.0,0.0,0.0,0.0,0.0,0.0,0.0,0.0,0.0,0.0,0.0,0.0,0.0,0.2629,0.0,0.0,0.0,0.0,0.0,0.0,0.0,0.0,0.0,0.0,0.0,0.0,0.0,0.0,-1.3246,-1.4743,-1.5953,-1.6923,0.0,0.0,-1.8215,-1.8413,-1.8297,-1.8233,0.0,0.0,0.0,0.0,0.0,0.0,0.0,0.0,0.0,0.0,0.0,0.0,0.0,0.0,0.0,0.0,0.0,0.0,0.0,0.0,0.0,0.0,0.0,0.0,0.0,0.0,0.0,0.0,0.0,0.0,0.0,0.0,0.0,0.0,0.0,0.0,0.0,0.0,0.0,0.0,0.0,0.0,0.0,0.0,0.0,0.0,0.0,0.0,0.0,0.0,0.0,0.0,0.0,0.0,0.0,1.5993,1.7547,1.8399,1.8475,1.8539,1.8574,1.8556,1.8322,1.6937,0.0,0.0,0.0,0.0,0.0,0.0,0.0,0.0,0.0,0.0,0.0,0.0,0.0,0.0,0.0,0.0,0.0,0.0,0.0,0.0,0.0,0.0,0.0,0.0,0.0,0.0,0.0,0.0,0.0,0.0,0.0,0.0,0.0,0.0,0.0,0.0,0.0,0.0,0.0,0.0,0.0,-1.4156,-1.6178,-1.7054,-1.7918,0.0,0.0,-1.9529,-1.9186,-1.9381,-1.9441,-1.9184,0.0,0.0,0.0,0.0,0.0,0.0,0.0,0.0,0.0,0.0,0.0,0.0,0.0,0.0,0.0,0.0,0.0,0.0,0.0,0.0,0.0,0.0,0.0,0.0,0.0,0.0,0.0,0.0,0.0,0.0,0.0,0.0,0.0,0.0,0.0,0.0,0.0,0.0,0.0,0.0,0.0,0.0,0.0,0.0,0.0,0.0,0.0,0.0,0.0,0.0,0.0,0.0,0.0,1.4921,1.511,1.6603,1.7386,1.7429,1.7404,1.7356,1.7277,1.6901,1.5709,0.0,0.0,0.0,0.0,0.0,0.0,0.0,0.0,0.0,0.0,0.0,0.0,0.0,0.0,0.0,0.0,0.0,0.0,0.0,0.0,0.0,0.0,0.0,0.0,0.0,0.0,0.0,0.0,-0.0648,-0.1431,-0.2559,0.0,0.0,0.0,0.0,0.0,0.0,0.0,0.0,0.0,0.0,-1.5529,-1.709,-1.8252,0.0,0.0,-2.0832,-2.0932,-2.0613,-2.042,-2.021,-1.9874,-1.9377,0.0,0.0,0.0,0.0,0.0,0.0,0.0,0.0,0.0,0.0,0.0,0.0,0.0,0.0,0.0,0.0,0.0,0.0,0.0,0.0,0.0,0.0,0.0,0.0,0.0,0.0,0.0,0.0,0.0,0.0,0.0,0.0,0.0,0.0,0.0,0.0,0.0,0.0,0.0,0.0,0.0,0.0,0.0,0.0,0.0,0.0,0.0,0.0,0.0,0.0,0.0,0.0,1.4156,1.4329,1.5552,1.6223,1.6351,1.6088,1.5933,1.5854,1.5247,1.4156,0.0,0.0,0.0,0.0,0.0,0.0,0.0,0.0,0.0,0.0,0.0,0.0,0.0,0.0,0.0,0.0,0.0,0.0,0.0,0.0,0.0,0.0,0.0,0.0,0.0,0.0,0.0,0.0,-0.239,-0.3314,-0.4619,0.0,0.0,0.0,0.0,0.0,0.0,0.0,0.0,0.0,0.0,-1.6552,-1.8065,-1.9176,-2.0259,-2.1329,-2.1704,-2.1736,-2.1463,-2.1205,-2.0931,-2.0578,0.0,0.0,0.0,0.0,0.0,0.0,0.0,0.0,0.0,0.0,0.0,0.0,0.0,0.0,0.0,0.0,0.0,0.0,0.0,0.0,0.0,0.0,0.0,0.0,0.0,0.0,0.0,0.0,0.0,0.0,0.9041,0.0,0.0,0.0,0.0,0.0,0.0,0.0,0.0,0.0,0.0,0.0,0.0,0.0,0.0,0.0,0.0,0.0,0.0,0.0,0.0,0.0,0.0,1.3546,1.3712,1.4385,1.4934,1.5254,1.4654,1.4376,1.439,1.3462,1.2231,1.0731,0.0,0.0,0.0,0.0,0.0,0.0,0.0,0.0,0.0,0.0,0.0,0.0,0.0,0.0,0.0,0.0,0.0,0.0,0.0,0.0,0.0,0.0,0.0,0.0,0.0,0.0,-0.3547,-0.4381,-0.5189,0.0,0.0,0.0,0.0,0.0,0.0,0.0,0.0,0.0,0.0,-1.5932,-1.7222,-1.9029,-1.9767,-2.0533,-2.1582,-2.1907,-2.1881,-2.151,-2.1647,-2.1679,0.0,0.0,0.0,0.0,0.0,0.0,0.0,0.0,0.0,0.0,0.0,0.0,0.0,0.0,0.0,0.0,0.0,0.0,0.0,0.0,0.0,0.0,0.0,0.0,0.0,0.0,0.0,1.103,1.0932,0.0,0.0,0.0,0.0,0.0,0.0,0.0,0.0,0.0,0.0,0.0,1.2789,1.2957,0.0,0.0,0.0,0.0,0.0,0.0,0.0,0.0,0.0,0.0,0.0,0.0,1.205,1.2151,1.2892,1.3299,1.3216,1.2702,1.2304,1.1981,1.0935,0.9403,0.7292,0.0,0.0,0.0,0.0,0.0,0.0,0.0,0.0,0.0,0.0,0.0,0.0,0.0,0.0,0.0,0.0,0.0,0.0,0.0,0.0,0.0,0.0,0.0,0.0,0.0,-0.3702,0.0,0.0,0.0,0.0,0.0,0.0,0.0,0.0,0.0,0.0,0.0,-1.4545,-1.5639,-1.708,-1.8577,-1.9999,-2.1012,-2.198,0.0,0.0,0.0,0.0,0.0,0.0,0.0,0.0,0.0,0.0,0.0,0.0,0.0,0.0,-1.9969,-2.0114,-2.0241,-2.036,-2.0487,0.0,0.0,0.0,0.0,0.0,0.0,0.0,0.0,0.0,0.0,0.0,0.0,0.0,0.0,1.178,0.0,1.1399,0.0,0.0,0.0,0.0,0.0,0.0,0.0,0.0,1.2484,1.2743,1.2924,1.3022,1.2824,0.0,1.1595,1.094,0.0,0.0,0.0,0.0,0.0,0.0,0.0,0.0,1.0766,1.0813,1.1202,1.1353,1.1293,1.0591,1.0006,0.9563,0.8024,0.6238,0.4252,0.2886,0.1706,0.0,0.0,0.0,0.0,0.0,0.0,0.0,0.0,0.0,0.0,0.0,0.0,0.0,0.0,0.0,0.0,0.0,0.0,0.0,0.0,0.0,0.0,0.0,-0.5029,0.0,0.0,0.0,0.0,0.0,0.0,0.0,0.0,0.0,-1.5091,-1.5311,-1.5705,-1.6859,-1.818,-1.9607,-2.0975,0.0,0.0,0.0,0.0,0.0,0.0,0.0,-2.29,-2.2297,-2.1999,-2.1899,-2.2121,-2.1961,-2.1687,-2.1364,0.0,0.0,-2.0978,-2.1034,-2.1169,-2.1278,-2.146,-2.1607,-2.1607,-2.1917,-2.2217,0.0,0.0,0.0,0.0,0.0,0.0,0.0,0.0,1.1697,1.1572,0.0,1.1177,0.0,0.0,0.0,0.0,0.0,0.0,0.0,0.0,1.2632,1.2579,1.2558,1.2124,1.1679,1.1255,1.0767,1.0256,0.9855,0.9514,0.0,0.0,0.0,0.0,0.0,0.0,0.9685,0.9754,0.9266,0.9209,0.9553,0.8357,0.7481,0.7006,0.4673,0.2856,0.1645,0.0707,-0.0225,-0.1147,-0.1746,0.0,0.0,0.0,0.0,0.0,0.0,0.0,0.0,0.0,0.0,0.0,0.0,0.0,0.0,0.0,0.0,0.0,0.0,0.0,0.0,-0.5476,0.0,0.0,0.0,0.0,0.0,0.0,0.0,0.0,0.0,0.0,-1.6705,-1.6357,-1.6593,-1.8338,0.0,0.0,0.0,0.0,-2.3088,-2.4096,-2.4271,-2.3963,-2.3067,-2.3016,-2.2766,-2.1828,0.0,0.0,-2.2432,-2.2479,-2.2561,-2.2842,-2.2883,-2.2588,-2.1251,-2.1245,-2.1361,-2.145,-2.1641,-2.1708,-2.1744,-2.2475,-2.3052,1.4286,0.0,0.0,0.0,0.0,1.2657,1.2615,1.2819,1.2747,1.2558,1.2285,1.2148,0.0,0.0,0.0,0.0,0.0,0.0,1.147,1.2133,1.2097,1.2117,1.2149,1.1859,1.1423,1.0939,1.0405,0.9786,0.9056,0.8634,0.8599,0.8968,0.0,0.0,0.0,0.0,0.7871,0.7629,0.7332,0.7383,0.7847,0.6147,0.446,0.2864,0.1389,0.0172,-0.0823,-0.1612,-0.2291,-0.3006,-0.3412,0.0,0.0,0.0,0.0,0.0,0.0,0.0,0.0,0.0,0.0,0.0,0.0,0.0,0.0,0.0,0.0,0.0,0.0,0.0,-0.594,-0.6885,-0.7763,0.0,0.0,0.0,0.0,0.0,0.0,0.0,0.0,0.0,-1.7374,-1.7213,-1.7295,0.0,0.0,-2.0678,-2.1524,-2.27,-2.3504,-2.3585,0.0,0.0,0.0,-2.2846,-2.263,-2.2549,-2.2298,-2.2217,-2.246,-2.2487,-2.2579,-2.2868,-2.2995,-2.2953,-2.2717,-2.2776,-2.2909,-2.3016,-2.3164,-2.3312,-2.3339,-2.3618,-2.3859,1.4568,1.3672,1.3502,1.3394,1.3334,1.2992,1.2943,1.3031,1.2995,1.2786,1.2362,1.2284,1.1915,1.1421,1.0838,0.0,0.0,0.0,1.0911,1.1428,1.1336,1.1331,1.1417,1.1024,1.0624,1.0161,0.9573,0.8824,0.7964,0.7451,0.7255,0.7416,0.0,0.0,0.6889,0.6713,0.6274,0.5555,0.5045,0.488,0.4967,0.3105,0.1298,-0.0383,-0.1315,-0.2172,-0.3039,-0.3537,-0.4055,-0.4598,-0.4826,-0.4792,0.0,0.0,0.0,0.0,0.0,0.0,0.0,0.0,0.0,0.0,0.0,-0.4477,-0.4799,0.0,0.0,0.0,-0.5976,-0.682,-0.7279,-0.8002,0.0,0.0,0.0,0.0,0.0,0.0,0.0,-1.3264,-1.4827,-1.6453,-1.7821,-1.7868,-1.7984,-1.8721,-1.9786,-2.0746,-2.1468,0.0,-2.3107,-2.3033,-2.3233,-2.3262,-2.2885,-2.265,-2.2547,-2.261,-2.2413,-2.2299,-2.246,-2.2487,-2.2587,-2.2851,-2.3011,-2.3135,-2.3289,-2.3485,-2.3643,-2.37,-2.3852,-2.3987,-2.3978,-2.4103,-2.4199,1.4199,1.3448,1.3591,1.3455,1.3048,1.2838,1.2573,1.2351,1.2719,1.2428,1.168,1.1735,1.132,1.0587,0.9893,0.0,1.0088,0.9995,1.0158,1.0614,1.036,1.0266,1.0348,0.9781,0.9332,0.8948,0.8267,0.757,0.683,0.6094,0.5432,0.4694,0.5278,0.5354,0.4863,0.5138,0.4714,0.359,0.2638,0.1929,0.1433,-0.0413,-0.1839,-0.2832,-0.3498,-0.4269,-0.5028,-0.5216,-0.55,-0.5996,-0.5984,-0.594,-0.5893,0.0,0.0,0.0,0.0,0.0,0.0,0.0,0.0,0.0,0.0,0.0,0.0,0.0,0.0,0.0,-0.726,0.0,-0.8442,-0.8865,0.0,0.0,0.0,-1.1634,-1.2679,-1.3578,-1.4061,-1.387,0.0,0.0,-1.8076,0.0,-1.8609,-1.9619,-1.9991,-2.0585,-2.1564,-2.1941,-2.2209,-2.2495,-2.2671,-2.271,-2.2327,-2.2394,-2.2475,-2.2287,-2.2262,-2.2366,-2.246,-2.2506,-2.2614,-2.2868,-2.302,-2.3135,-2.3265,-2.3522,-2.3718,-2.3709,-2.3843,-2.3978,-2.4007,-2.4113,-2.4199,1.3774,1.3361,1.3016,1.2909,1.2874,1.2533,1.2401,1.2372,1.2407,1.2156,1.1624,1.1403,1.0843,0.998,0.9488,0.9333,0.9401,0.9192,0.9165,0.9232,0.8957,0.8676,0.8375,0.8022,0.7531,0.6972,0.6307,0.6001,0.597,0.4548,0.3496,0.278,0.2456,0.2649,0.3352,0.2921,0.2283,0.1427,0.0658,-0.044,-0.1932,-0.3523,-0.4538,-0.4861,-0.5328,-0.5874,-0.6606,-0.6842,-0.6996,-0.7114,-0.7115,-0.6956,-0.6603,-0.6941,0.0,0.0,0.0,0.0,0.0,0.0,0.0,0.0,0.0,-0.6758,-0.7093,0.0,-0.7253,0.0,-0.8462,-0.9179,-0.897,-0.9781,0.0,0.0,-1.1731,-1.2536,-1.3526,-1.4184,-1.4761,-1.5261,-1.6261,-1.7256,-1.8116,-1.8361,-1.8638,-1.9219,-1.9793,-2.0423,-2.1016,-2.169,-2.201,-2.1903,-2.2028,-2.1975,-2.1592,-2.1874,-2.222,-2.2194,-2.231,-2.2413,-2.2487,-2.2579,-2.2712,-2.2859,-2.3061,-2.3184,-2.3289,-2.3513,-2.3678,-2.373,-2.3852,-2.3978,-2.3978,-2.4103,-2.4199,1.2749,1.2458,1.2056,1.1781,1.1663,1.1901,1.1886,1.1679,1.1592,1.1292,1.083,1.036,0.9743,0.902,0.8613,0.8352,0.824,0.8025,0.7862,0.77,0.7427,0.7095,0.6816,0.637,0.6083,0.5961,0.4838,0.415,0.3866,0.2568,0.1551,0.0781,0.0111,-0.0,0.0277,0.0333,-0.0,-0.0666,-0.1774,-0.2987,-0.4356,-0.5329,-0.6116,-0.6605,-0.6808,-0.7287,-0.7994,-0.8086,-0.8181,-0.8253,-0.8033,-0.7679,-0.7232,-0.7569,-0.7865,0.0,0.0,0.0,0.0,0.0,0.0,0.0,0.0,0.0,0.0,0.0,-0.8428,-0.8788,-0.987,-1.0444,-1.0207,-1.0855,-1.1544,-1.2086,-1.2727,-1.3494,-1.4405,-1.4984,-1.5456,-1.5926,-1.6716,-1.7509,-1.8235,-1.8471,-1.8736,-1.9146,-1.9603,-2.0064,-2.045,-2.0988,-2.1283,-2.1225,-2.1413,-2.1576,-2.1442,-2.1869,-2.22,-2.2245,-2.2338,-2.2405,-2.2487,-2.2605,-2.2747,-2.2902,-2.3061,-2.3241,-2.3327,-2.3553,-2.3691,-2.3765,-2.3873,-2.3978,-2.4016,-2.4103,-2.4199,1.1362,1.1111,1.0859,1.0407,1.0064,1.083,1.0943,1.0596,1.0419,1.0104,0.9647,0.8873,0.829,0.7856,0.7439,0.7111,0.684,0.6684,0.6414,0.6086,0.5925,0.5627,0.5307,0.4702,0.4621,0.4948,0.3358,0.2107,0.1232,0.0409,-0.046,-0.1397,-0.1893,-0.2504,-0.317,-0.25,-0.2333,-0.2831,-0.4263,-0.5362,-0.6222,-0.6561,-0.7137,-0.8034,-0.8182,-0.8508,-0.9102,-0.9111,-0.9171,-0.9303,-0.8868,-0.8411,-0.7975,-0.8195,-0.8429,0.0,-0.8872,0.0,0.0,0.0,0.0,0.0,0.0,0.0,0.0,-0.9035,-0.9584,-1.04,-1.1315,-1.1773,-1.1577,-1.2004,-1.2546,-1.3231,-1.3729,-1.4361,-1.5252,-1.5768,-1.6088,-1.6287,-1.7031,-1.776,-1.8393,-1.8634,-1.8858,-1.9228,-1.9524,-1.9779,-2.0021,-2.0304,-2.0542,-2.0685,-2.099,-2.1413,-2.1759,-2.2098,-2.2274,-2.231,-2.2358,-2.2441,-2.2487,-2.2641,-2.2773,-2.2893,-2.3086,-2.3265,-2.3383,-2.3567,-2.3712,-2.3774,-2.3912,-2.3987,-2.3998,-2.4103,-2.4199,0.9835,0.9736,0.9384,0.9082,0.8879,0.8712,0.8925,0.9465,0.9242,0.8761,0.8115,0.7483,0.7004,0.6681,0.6136,0.5812,0.5601,0.5101,0.4769,0.4602,0.4736,0.4247,0.3257,0.2654,0.2179,0.1792,0.085,-0.0,-0.0769,-0.1642,-0.2702,-0.3964,-0.3947,-0.4271,-0.4988,0.0,0.0,0.0,-0.5971,-0.6835,-0.7679,-0.8053,-0.8545,-0.9186,-0.9375,0.0,-0.9793,-0.9973,-1.0028,-0.9995,-0.9924,0.0,0.0,0.0,0.0,0.0,0.0,0.0,0.0,0.0,0.0,0.0,-0.9938,-0.9773,-0.9737,-0.9917,-1.0443,-1.1281,-1.2468,-1.2869,-1.2073,-1.2679,-1.3328,-1.3757,-1.4356,-1.4948,-1.5496,-1.5913,-1.6318,-1.6791,-1.724,-1.776,-1.8386,-1.8651,-1.8912,-1.9265,-1.956,-1.9841,-2.0045,-2.027,-2.0483,-2.0777,-2.1095,-2.1433,-2.1823,-2.2143,-2.2319,-2.2319,-2.2422,-2.2479,-2.2506,-2.2703,-2.2859,-2.2902,-2.3111,-2.3313,-2.3401,-2.3576,-2.3721,-2.3765,-2.3912,-2.3978,-2.3987,-2.4094,-2.4199,0.838,0.0,0.8019,0.7762,0.0,0.7114,0.7058,0.7326,0.7649,0.7379,0.6561,0.6081,0.5647,0.5269,0.4774,0.4563,0.4577,0.384,0.3281,0.2832,0.2787,0.223,0.1337,0.0737,0.0172,-0.0403,-0.1163,-0.2092,-0.3108,-0.3541,-0.4236,-0.5232,-0.5429,-0.5803,-0.6517,-0.7368,-0.7531,-0.7058,-0.759,-0.828,-0.8999,-0.9082,-0.9412,-1.0049,0.0,0.0,0.0,0.0,0.0,0.0,0.0,0.0,0.0,0.0,0.0,-1.061,-1.0619,-1.0536,-1.0453,-1.0452,-1.0598,-1.085,-1.0989,-1.0959,-1.0687,-1.0995,-1.1444,-1.2138,-1.3186,-1.358,-1.3141,-1.3555,-1.4052,-1.4379,-1.4852,-1.5367,-1.5824,-1.6275,-1.6712,-1.7073,-1.7468,-1.7955,-1.8528,-1.8767,-1.9033,-1.9376,-1.9632,-1.9912,-2.02,-2.0415,-2.0677,-2.1007,-2.1277,-2.1565,-2.1899,-2.2118,-2.2319,-2.2358,-2.2424,-2.2515,-2.2587,-2.2756,-2.291,-2.2977,-2.3168,-2.3336,-2.3485,-2.362,-2.3752,-2.3831,-2.3944,-2.4007,-2.4027,-2.4132,-2.4199,0.6897,0.6732,0.6625,0.6355,0.5873,0.5651,0.533,0.506,0.0,0.0,0.0,0.4831,0.4395,0.3841,0.3401,0.3296,0.3302,0.2457,0.1728,0.1114,0.067,0.0168,-0.0391,-0.1116,-0.1728,-0.2227,-0.2947,-0.3949,-0.5126,-0.5218,-0.5597,-0.6202,-0.6676,-0.7261,-0.7963,-0.8964,-0.928,-0.8954,-0.9169,-0.9599,-1.0206,-1.0064,-1.0257,-1.0864,-1.0658,-1.0694,-1.1094,-1.1244,-1.1436,-1.1673,-1.1434,-1.1336,-1.1388,-1.1094,-1.0891,-1.086,-1.116,-1.129,-1.1127,-1.1517,-1.1721,-1.167,-1.2043,-1.2091,-1.1763,-1.1925,-1.2356,-1.302,-1.3745,-1.4114,-1.4109,-1.4384,-1.4645,-1.5,-1.5328,-1.5742,-1.6188,-1.662,-1.6954,-1.7247,-1.7673,-1.8187,-1.863,-1.8889,-1.916,-1.9538,-1.9741,-2.001,-2.0407,-2.0644,-2.0949,-2.1301,-2.1464,-2.1694,-2.1949,-2.2155,-2.231,-2.2394,-2.2468,-2.2533,-2.2685,-2.2808,-2.2936,-2.3061,-2.3208,-2.3383,-2.3571,-2.3652,-2.3734,-2.3855,-2.3955,-2.4025,-2.4094,-2.4151,-2.4199,0.5222,0.5167,0.4884,0.4714,0.4606,0.4117,0.3904,0.3858,0.4346,0.4284,0.39,0.4025,0.3465,0.2453,0.201,0.162,0.1284,0.0614,0.0167,0.0,-0.0838,-0.1396,-0.1952,-0.3126,-0.3739,-0.3728,-0.4445,-0.5148,-0.584,-0.6517,-0.7069,-0.7605,-0.8084,-0.8768,-0.9596,-1.0277,-1.0791,-1.1196,-1.0669,-1.0622,-1.1191,-1.1621,-1.1762,-1.1679,-1.1908,-1.1867,-1.1538,-1.1658,-1.1847,-1.2096,-1.2069,-1.21,-1.2218,-1.2136,-1.2148,-1.2124,-1.2065,-1.204,-1.1921,-1.1886,-1.2104,-1.2641,-1.3215,-1.3396,-1.3051,-1.2576,-1.2738,-1.3873,-1.4398,-1.4638,-1.4534,-1.4794,-1.5102,-1.5379,-1.5603,-1.5963,-1.6399,-1.6705,-1.7038,-1.7393,-1.7747,-1.8208,-1.8613,-1.8912,-1.9221,-1.9567,-1.9876,-2.0247,-2.0671,-2.0998,-2.1199,-2.1363,-2.1503,-2.1716,-2.194,-2.2183,-2.233,-2.2386,-2.246,-2.2525,-2.2685,-2.2773,-2.2893,-2.307,-2.3256,-2.3439,-2.3576,-2.3665,-2.3756,-2.3876,-2.3958,-2.4025,-2.4103,-2.418,-2.4199,0.4079,0.4136,0.4018,0.385,0.363,0.2566,0.2065,0.2011,0.195,0.2173,0.2568,0.2291,0.1787,0.1116,0.0558,0.0056,-0.0447,-0.0949,-0.1563,-0.2291,-0.2569,-0.3013,-0.3511,-0.4403,-0.4952,-0.5218,-0.5873,-0.6465,-0.7042,-0.7652,-0.8203,-0.8718,-0.9451,-1.0127,-1.0791,-1.1355,-1.181,-1.2161,-1.1697,-1.1683,-1.2129,-1.2402,-1.2407,-1.2217,-1.2345,-1.2244,-1.1912,-1.1951,-1.218,-1.2443,-1.2467,-1.255,-1.2656,-1.2662,-1.2597,-1.2556,-1.2437,-1.2454,-1.2692,-1.2847,-1.3174,-1.369,-1.3896,-1.4044,-1.4147,-1.359,-1.3552,-1.4324,-1.4754,-1.4937,-1.4886,-1.5017,-1.5238,-1.5647,-1.5881,-1.6194,-1.6577,-1.696,-1.7308,-1.7577,-1.7929,-1.8312,-1.8721,-1.8988,-1.9325,-1.9661,-2.0123,-2.0545,-2.0869,-2.1127,-2.1356,-2.1503,-2.1617,-2.1789,-2.1961,-2.2163,-2.233,-2.2441,-2.2487,-2.2587,-2.2756,-2.2816,-2.2918,-2.316,-2.3336,-2.3485,-2.3638,-2.3718,-2.3807,-2.3915,-2.3976,-2.4045,-2.4113,-2.418,-2.4199,0.2734,0.2942,0.2828,0.2648,0.2185,0.1006,0.0335,0.0112,-0.0279,-0.0056,0.0502,0.0335,0.0056,-0.0335,-0.1061,-0.1564,-0.1955,-0.2454,-0.3182,-0.4027,-0.4128,-0.44,-0.4901,-0.5441,-0.6043,-0.6583,-0.7182,-0.7714,-0.8243,-0.8725,-0.9246,-0.9873,-1.0702,-1.1309,-1.1723,-1.221,-1.2554,-1.2856,-1.2735,-1.2783,-1.3001,-1.3073,-1.3055,-1.292,-1.2869,-1.2754,-1.2568,-1.2601,-1.2792,-1.3059,-1.3107,-1.3168,-1.327,-1.3234,-1.3174,-1.3144,-1.3011,-1.3046,-1.3373,-1.3772,-1.4145,-1.4462,-1.4471,-1.4618,-1.4841,-1.4523,-1.4389,-1.4708,-1.5023,-1.5198,-1.5198,-1.5249,-1.5424,-1.5792,-1.6106,-1.6405,-1.6718,-1.7154,-1.748,-1.7747,-1.8082,-1.8436,-1.8798,-1.9108,-1.9479,-1.9919,-2.0381,-2.0744,-2.0942,-2.1222,-2.1456,-2.1625,-2.1754,-2.1886,-2.1998,-2.2175,-2.2341,-2.2479,-2.2542,-2.2641,-2.2808,-2.285,-2.2969,-2.3232,-2.343,-2.3576,-2.3687,-2.3756,-2.3831,-2.3946,-2.4016,-2.4074,-2.4152,-2.4199,-2.4199,0.0781,0.082,0.0583,0.023,-0.0112,-0.0559,-0.1062,-0.151,-0.1734,-0.2347,-0.2795,-0.1677,-0.1342,-0.1902,-0.3023,-0.3411,-0.3178,-0.3732,-0.4233,-0.4673,-0.5105,-0.5599,-0.61,-0.6645,-0.7235,-0.7768,-0.8249,-0.8728,-0.9253,-0.9714,-1.0277,-1.1116,-1.1719,-1.2067,-1.2353,-1.274,-1.3175,-1.3678,-1.3894,-1.3894,-1.3721,-1.3946,-1.4073,-1.4057,-1.413,-1.4137,-1.385,-1.4032,-1.4132,-1.4256,-1.4316,-1.4418,-1.4406,-1.4418,-1.4418,-1.4361,-1.4283,-1.4196,-1.4052,-1.4398,-1.463,-1.4704,-1.5139,-1.5353,-1.5385,-1.5147,-1.5017,-1.5108,-1.5328,-1.548,-1.5474,-1.5608,-1.5786,-1.6007,-1.6256,-1.6607,-1.6918,-1.7218,-1.7563,-1.7922,-1.8161,-1.8475,-1.8903,-1.9235,-1.9669,-2.0216,-2.0517,-2.0818,-2.1095,-2.1301,-2.1509,-2.1708,-2.1873,-2.1961,-2.2044,-2.2215,-2.2379,-2.2487,-2.2623,-2.2747,-2.2842,-2.291,-2.2995,-2.3265,-2.3522,-2.3665,-2.3721,-2.3759,-2.3855,-2.3967,-2.4036,-2.4104,-2.419,-2.4199,-2.4199,-0.0868,-0.0902,-0.1004,-0.1497,-0.2299,-0.2572,-0.2738,-0.2904,-0.3067,-0.3568,-0.4182,-0.3785,-0.3452,-0.3128,-0.4016,-0.4401,-0.4503,-0.5111,-0.5548,-0.5873,-0.6409,-0.6894,-0.7227,-0.7818,-0.8352,-0.8823,-0.9295,-0.9814,-1.0281,-1.0897,-1.146,-1.1868,-1.2403,-1.274,-1.2987,-1.3372,-1.3758,-1.415,-1.4373,-1.4512,-1.4553,-1.4697,-1.4631,-1.4408,-1.4582,-1.4559,-1.4281,-1.4329,-1.4435,-1.458,-1.4631,-1.4715,-1.4767,-1.4715,-1.4664,-1.4683,-1.4863,-1.4955,-1.4853,-1.5248,-1.5446,-1.5381,-1.5528,-1.5608,-1.5519,-1.5373,-1.5385,-1.5486,-1.5608,-1.5653,-1.5653,-1.5742,-1.5913,-1.6256,-1.6491,-1.6748,-1.7086,-1.7385,-1.772,-1.7969,-1.8326,-1.8651,-1.9033,-1.9508,-1.994,-2.0381,-2.0644,-2.0925,-2.1167,-2.1379,-2.1587,-2.1759,-2.1915,-2.2049,-2.2098,-2.2276,-2.2424,-2.2497,-2.2614,-2.2747,-2.2868,-2.2902,-2.2986,-2.3289,-2.3535,-2.37,-2.3752,-2.381,-2.3896,-2.3996,-2.4094,-2.417,-2.4199,-2.4199,-2.4199,-0.2362,-0.2478,-0.2522,-0.3087,-0.3912,-0.4138,-0.422,-0.4176,-0.4391,-0.4774,-0.5271,-0.566,-0.5494,-0.4942,-0.5109,-0.5439,-0.5825,-0.6421,-0.6799,-0.7128,-0.7711,-0.8084,-0.8352,-0.8922,-0.9399,-0.9821,-1.0281,-1.0736,-1.1259,-1.1959,-1.2407,-1.2603,-1.303,-1.3415,-1.3658,-1.4004,-1.4332,-1.4605,-1.4789,-1.5023,-1.5249,-1.5289,-1.5136,-1.4879,-1.5033,-1.5043,-1.4823,-1.4874,-1.5036,-1.515,-1.5172,-1.5224,-1.5316,-1.527,-1.5178,-1.5209,-1.5502,-1.5655,-1.5604,-1.5874,-1.5994,-1.5925,-1.5887,-1.5798,-1.5691,-1.5647,-1.5653,-1.5804,-1.5881,-1.5887,-1.5836,-1.5919,-1.6132,-1.6472,-1.6705,-1.6967,-1.7205,-1.7549,-1.7828,-1.8082,-1.8372,-1.8827,-1.9258,-1.9718,-2.0185,-2.0483,-2.072,-2.1007,-2.1222,-2.145,-2.1672,-2.1819,-2.1949,-2.2044,-2.2189,-2.2321,-2.246,-2.256,-2.2667,-2.2825,-2.291,-2.2952,-2.3061,-2.3369,-2.3571,-2.3725,-2.3789,-2.3864,-2.3946,-2.4045,-2.4122,-2.4199,-2.4199,-2.4199,-2.4199,-0.3809,-0.389,-0.4271,-0.4621,-0.4786,-0.507,-0.5261,-0.5502,-0.5769,-0.615,-0.6534,-0.7017,-0.723,-0.7219,-0.6794,-0.6753,-0.7079,-0.7608,-0.7981,-0.8365,-0.8837,-0.9204,-0.9361,-0.9913,-1.0328,-1.0749,-1.1112,-1.1569,-1.222,-1.273,-1.3016,-1.3175,-1.3673,-1.4004,-1.4176,-1.4512,-1.48,-1.5023,-1.5216,-1.5441,-1.5703,-1.5748,-1.5668,-1.5566,-1.567,-1.5822,-1.5948,-1.6219,-1.6287,-1.6299,-1.6286,-1.636,-1.6421,-1.636,-1.6328,-1.6268,-1.6336,-1.6305,-1.6157,-1.6188,-1.6207,-1.6188,-1.6144,-1.615,-1.6113,-1.5931,-1.5881,-1.6156,-1.6156,-1.615,-1.6044,-1.6262,-1.6436,-1.6565,-1.6899,-1.7212,-1.7404,-1.7679,-1.7996,-1.824,-1.8496,-1.8882,-1.9574,-1.9932,-2.0254,-2.0577,-2.0819,-2.1039,-2.1301,-2.1511,-2.1708,-2.1882,-2.199,-2.2064,-2.2265,-2.2377,-2.2542,-2.2641,-2.2764,-2.2919,-2.302,-2.3135,-2.3274,-2.343,-2.3651,-2.3762,-2.3804,-2.3905,-2.4025,-2.4122,-2.417,-2.4199,-2.4199,-2.4199,-2.4199,-0.5575,-0.5675,-0.5866,-0.617,-0.654,-0.6646,-0.6819,-0.7009,-0.7168,-0.7419,-0.7788,-0.8143,-0.8405,-0.8616,-0.8708,-0.8551,-0.8243,-0.8669,-0.904,-0.9458,-0.9825,-1.0138,-1.0438,-1.085,-1.1255,-1.1619,-1.1918,-1.2368,-1.2895,-1.3372,-1.3668,-1.3763,-1.4192,-1.4512,-1.4686,-1.4926,-1.5216,-1.5486,-1.5576,-1.5748,-1.5919,-1.6013,-1.6038,-1.6045,-1.605,-1.6144,-1.63,-1.6355,-1.6436,-1.6436,-1.6472,-1.6528,-1.6528,-1.6528,-1.6479,-1.6472,-1.6466,-1.6423,-1.6392,-1.6374,-1.6318,-1.6306,-1.6231,-1.62,-1.6194,-1.6106,-1.6113,-1.62,-1.6324,-1.6349,-1.6343,-1.6429,-1.6558,-1.6735,-1.7038,-1.733,-1.7556,-1.7821,-1.8088,-1.8411,-1.8774,-1.925,-1.9646,-2.0045,-2.0407,-2.0652,-2.0941,-2.1159,-2.1355,-2.1579,-2.1797,-2.1969,-2.2101,-2.2248,-2.2388,-2.246,-2.2533,-2.2685,-2.2816,-2.2944,-2.3061,-2.3184,-2.3345,-2.3517,-2.3725,-2.3834,-2.3885,-2.3976,-2.4103,-2.4151,-2.4199,-2.4199,-2.4199,-2.4199,-2.4199,-0.7228,-0.7429,-0.7414,-0.7729,-0.8203,-0.8192,-0.8399,-0.8676,-0.8717,-0.8906,-0.9126,-0.9397,-0.9611,-0.9788,-1.023,-1.0222,-0.981,-0.9921,-1.0131,-1.0435,-1.0804,-1.1108,-1.1364,-1.1755,-1.2098,-1.2403,-1.2808,-1.319,-1.3552,-1.3999,-1.4203,-1.4244,-1.4656,-1.4977,-1.5102,-1.5334,-1.557,-1.5792,-1.5887,-1.6007,-1.6132,-1.6237,-1.63,-1.6324,-1.6306,-1.6312,-1.6436,-1.6436,-1.6442,-1.6479,-1.6528,-1.6528,-1.6528,-1.6528,-1.6528,-1.6528,-1.6528,-1.6528,-1.6485,-1.6466,-1.6411,-1.6436,-1.6355,-1.6324,-1.6318,-1.6318,-1.6324,-1.6362,-1.6479,-1.6607,-1.6614,-1.665,-1.682,-1.6989,-1.7164,-1.7406,-1.7713,-1.7962,-1.824,-1.8606,-1.9078,-1.9552,-1.9897,-2.02,-2.0475,-2.0744,-2.1006,-2.1238,-2.1464,-2.1639,-2.1848,-2.1978,-2.2163,-2.2321,-2.246,-2.2542,-2.2632,-2.2764,-2.2885,-2.3011,-2.3135,-2.3265,-2.3407,-2.3607,-2.3752,-2.3861,-2.3965,-2.4045,-2.4122,-2.419,-2.4199,-2.4199,-2.4199,-2.4199,-2.4199,-0.874,-0.8968,-0.8985,-0.9277,-0.9685,-0.973,-0.993,-1.0261,-1.0404,-1.0505,-1.0667,-1.0893,-1.0902,-1.0929,-1.1175,-1.1464,-1.161,-1.1296,-1.12,-1.136,-1.1819,-1.2062,-1.2166,-1.2589,-1.2866,-1.3064,-1.3668,-1.4057,-1.4217,-1.4512,-1.4702,-1.4794,-1.5125,-1.5345,-1.5507,-1.5697,-1.5869,-1.6007,-1.6144,-1.6281,-1.6411,-1.6448,-1.6442,-1.6528,-1.6522,-1.6479,-1.6479,-1.6472,-1.6479,-1.6485,-1.6528,-1.6528,-1.6528,-1.6528,-1.6528,-1.6528,-1.6528,-1.6528,-1.6528,-1.6479,-1.6479,-1.6485,-1.6479,-1.6485,-1.6479,-1.6485,-1.6485,-1.6522,-1.6699,-1.6833,-1.6803,-1.6954,-1.7157,-1.7192,-1.7365,-1.7618,-1.7862,-1.8135,-1.8436,-1.8791,-1.9265,-1.9848,-2.0289,-2.0441,-2.0577,-2.0819,-2.1095,-2.1302,-2.1534,-2.173,-2.1861,-2.2015,-2.2212,-2.2405,-2.2515,-2.2623,-2.2738,-2.2859,-2.2986,-2.3111,-2.3256,-2.3383,-2.3499,-2.3665,-2.3847,-2.3953,-2.4025,-2.4094,-2.4142,-2.4199,-2.4199,-2.4199,-2.4199,-2.4199,-2.4199,-1.0072,-1.0385,-1.0382,-1.0711,-1.1247,-1.1308,-1.1488,-1.1783,-1.1891,-1.2032,-1.2209,-1.2091,-1.2113,-1.2216,-1.2331,-1.2388,-1.2535,-1.2677,-1.2628,-1.2428,-1.253,-1.2783,-1.3084,-1.3281,-1.3557,-1.3941,-1.4326,-1.4564,-1.4731,-1.4977,-1.5159,-1.5295,-1.5519,-1.5703,-1.5869,-1.6094,-1.6262,-1.6337,-1.6497,-1.6633,-1.6748,-1.6748,-1.6748,-1.6748,-1.6712,-1.6633,-1.662,-1.6571,-1.6528,-1.6528,-1.6528,-1.6528,-1.6528,-1.6528,-1.6528,-1.6528,-1.6528,-1.6528,-1.6528,-1.6528,-1.6528,-1.6528,-1.6528,-1.6528,-1.6528,-1.6528,-1.6577,-1.662,-1.6791,-1.6882,-1.696,-1.708,-1.7205,-1.7205,-1.7536,-1.7821,-1.8016,-1.845,-1.8728,-1.8867,-1.9369,-1.9947,-2.0357,-2.0517,-2.0669,-2.0869,-2.1166,-2.1394,-2.1617,-2.1819,-2.2023,-2.22,-2.2349,-2.246,-2.2587,-2.2712,-2.2868,-2.2961,-2.3086,-2.3184,-2.3351,-2.3467,-2.3589,-2.3752,-2.3921,-2.4023,-2.4083,-2.4142,-2.419,-2.4199,-2.4199,-2.4199,-2.4199,-2.4209,-2.4209,-1.1395,-1.1703,-1.1761,-1.2128,-1.2683,-1.2749,-1.2989,-1.3327,-1.3364,-1.3499,-1.3599,-1.361,-1.3499,-1.3426,-1.3422,-1.3402,-1.3462,-1.3763,-1.3789,-1.3569,-1.3346,-1.3547,-1.3894,-1.4035,-1.431,-1.4702,-1.4937,-1.5068,-1.5193,-1.5424,-1.5608,-1.5691,-1.5919,-1.6094,-1.6213,-1.6399,-1.6534,-1.6663,-1.6754,-1.6797,-1.6888,-1.6888,-1.6888,-1.6888,-1.6797,-1.6767,-1.6718,-1.6626,-1.6571,-1.6522,-1.6528,-1.6528,-1.6528,-1.6528,-1.6528,-1.6528,-1.6528,-1.6528,-1.6528,-1.6528,-1.6528,-1.6528,-1.6528,-1.6528,-1.6528,-1.6528,-1.6577,-1.6682,-1.6882,-1.7051,-1.7086,-1.7234,-1.7323,-1.7461,-1.7706,-1.7996,-1.8261,-1.8736,-1.901,-1.9139,-1.9552,-2.001,-2.0392,-2.0636,-2.0794,-2.0982,-2.123,-2.1471,-2.1691,-2.1899,-2.2098,-2.2257,-2.2396,-2.2525,-2.2677,-2.2833,-2.2986,-2.3086,-2.316,-2.328,-2.343,-2.3535,-2.3656,-2.3828,-2.4003,-2.4063,-2.4133,-2.4161,-2.4199,-2.4199,-2.4199,-2.4199,-2.419,-2.419,-2.42,-1.2654,-1.3061,-1.307,-1.342,-1.403,-1.4089,-1.4309,-1.4737,-1.489,-1.4965,-1.5017,-1.5134,-1.4993,-1.4596,-1.4547,-1.45,-1.4477,-1.446,-1.4634,-1.4669,-1.449,-1.4408,-1.4547,-1.4772,-1.5051,-1.5295,-1.543,-1.5558,-1.5703,-1.5919,-1.6038,-1.6088,-1.6269,-1.6442,-1.6528,-1.6663,-1.6803,-1.6876,-1.6911,-1.696,-1.6967,-1.6973,-1.6967,-1.6967,-1.6918,-1.684,-1.6767,-1.6725,-1.6626,-1.6528,-1.6528,-1.6528,-1.6528,-1.6528,-1.6528,-1.6528,-1.6528,-1.6528,-1.6528,-1.6528,-1.6528,-1.6528,-1.6528,-1.6528,-1.6528,-1.6528,-1.6577,-1.6725,-1.7009,-1.7205,-1.7247,-1.7413,-1.7618,-1.7868,-1.7989,-1.8202,-1.8627,-1.8957,-1.9139,-1.9376,-1.9741,-2.0158,-2.0494,-2.0728,-2.0893,-2.1127,-2.134,-2.1526,-2.1743,-2.1928,-2.2081,-2.226,-2.2443,-2.2579,-2.2729,-2.2902,-2.3061,-2.316,-2.3265,-2.3383,-2.3513,-2.3625,-2.3734,-2.3903,-2.4034,-2.4113,-2.4161,-2.419,-2.4199,-2.4199,-2.4199,-2.4199,-2.42,-2.42,-2.4229,-1.3855,-1.4098,-1.4328,-1.4619,-1.505,-1.5279,-1.5565,-1.5916,-1.6088,-1.6301,-1.6486,-1.6358,-1.6298,-1.6232,-1.5724,-1.553,-1.5485,-1.5343,-1.5328,-1.54,-1.5496,-1.5406,-1.5322,-1.5463,-1.5647,-1.5824,-1.5875,-1.5994,-1.6182,-1.6275,-1.6355,-1.6491,-1.6583,-1.6705,-1.6797,-1.6996,-1.7073,-1.7164,-1.7275,-1.7317,-1.7323,-1.726,-1.7267,-1.7225,-1.7099,-1.6954,-1.6924,-1.6761,-1.6626,-1.6528,-1.6528,-1.6528,-1.6528,-1.6528,-1.6528,-1.6528,-1.6528,-1.6528,-1.6528,-1.6528,-1.6528,-1.6528,-1.6528,-1.6528,-1.6528,-1.6528,-1.662,-1.6833,-1.708,-1.7253,-1.735,-1.7556,-1.7835,-1.8235,-1.8307,-1.8471,-1.8819,-1.9078,-1.9295,-1.942,-1.979,-2.0281,-2.0736,-2.0893,-2.099,-2.1222,-2.145,-2.1625,-2.184,-2.1986,-2.2138,-2.2343,-2.2525,-2.2659,-2.2808,-2.2961,-2.3111,-2.3241,-2.336,-2.3508,-2.3625,-2.3768,-2.3852,-2.3985,-2.4074,-2.4142,-2.4161,-2.419,-2.4199,-2.4199,-2.4209,-2.4209,-2.42,-2.4201,-2.4247,-1.4923,-1.5274,-1.5439,-1.5728,-1.6088,-1.6332,-1.6611,-1.6832,-1.7112,-1.7335,-1.755,-1.7583,-1.7476,-1.7341,-1.6871,-1.6533,-1.6332,-1.6047,-1.5957,-1.6026,-1.625,-1.6163,-1.5982,-1.6038,-1.6132,-1.6213,-1.6269,-1.6362,-1.6491,-1.6577,-1.6699,-1.6791,-1.6876,-1.6967,-1.7106,-1.724,-1.7323,-1.7365,-1.7427,-1.7468,-1.7475,-1.7454,-1.7426,-1.7398,-1.7231,-1.7128,-1.6967,-1.6797,-1.662,-1.6528,-1.6528,-1.6528,-1.6528,-1.6528,-1.6528,-1.6528,-1.6528,-1.6528,-1.6528,-1.6528,-1.6528,-1.6528,-1.6528,-1.6528,-1.6528,-1.6528,-1.6607,-1.6882,-1.7157,-1.7323,-1.7495,-1.7747,-1.8109,-1.8439,-1.8666,-1.8805,-1.9003,-1.9272,-1.9384,-1.9531,-1.9912,-2.0441,-2.1046,-2.1046,-2.1159,-2.1348,-2.1534,-2.1738,-2.1928,-2.2052,-2.2203,-2.2407,-2.257,-2.2703,-2.2868,-2.3045,-2.3208,-2.3336,-2.3668,-2.3777,-2.3833,-2.3955,-2.3935,-2.4025,-2.4094,-2.4142,-2.417,-2.4199,-2.4199,-2.419,-2.4209,-2.4209,-2.421,-2.4432,-2.446,-1.5926,-1.6358,-1.643,-1.6708,-1.7117,-1.7285,-1.7462,-1.7689,-1.805,-1.8201,-1.8309,-1.8673,-1.86,-1.8172,-1.7977,-1.7595,-1.7177,-1.6797,-1.6579,-1.6675,-1.682,-1.6778,-1.6582,-1.6558,-1.6565,-1.6607,-1.6712,-1.6761,-1.6846,-1.6924,-1.696,-1.708,-1.7157,-1.7302,-1.7398,-1.7495,-1.7523,-1.7564,-1.7639,-1.7639,-1.7598,-1.7564,-1.7536,-1.748,-1.7411,-1.7218,-1.6967,-1.6803,-1.6669,-1.6528,-1.6515,-1.6528,-1.6528,-1.6528,-1.6528,-1.6528,-1.6528,-1.6528,-1.6528,-1.6528,-1.6528,-1.6528,-1.6528,-1.6528,-1.6528,-1.6522,-1.6607,-1.6888,-1.7275,-1.7468,-1.7632,-1.7995,-1.8326,-1.8581,-1.8882,-1.9064,-1.9221,-1.9428,-1.9582,-1.9523,-2.0025,-2.0566,-2.0948,-2.1167,-2.1238,-2.1411,-2.1625,-2.1789,-2.1966,-2.2126,-2.2276,-2.2451,-2.2605,-2.2747,-2.291,-2.3095,-2.3265,-2.3448,-2.3948,-2.4171,-2.4157,-2.419,-2.4078,-2.4065,-2.4122,-2.417,-2.419,-2.4199,-2.4263,-2.42,-2.42,-2.421,-2.4275,-2.4681,-2.4866,-1.6775,-1.7011,-1.7301,-1.7567,-1.788,-1.8164,-1.8344,-1.8512,-1.8815,-1.9022,-1.9139,-1.9356,-1.9478,-1.9503,-1.9093,-1.8757,-1.8233,-1.7784,-1.757,-1.7238,-1.7323,-1.7413,-1.7323,-1.7205,-1.708,-1.7073,-1.708,-1.7135,-1.7218,-1.7267,-1.7343,-1.7393,-1.7441,-1.7495,-1.7645,-1.7754,-1.7862,-1.7922,-1.7982,-1.7975,-1.7888,-1.7821,-1.7754,-1.7597,-1.748,-1.7273,-1.7044,-1.6924,-1.6803,-1.6669,-1.6571,-1.6528,-1.6528,-1.6528,-1.6528,-1.6528,-1.6528,-1.6528,-1.6528,-1.6528,-1.6528,-1.6528,-1.6528,-1.6528,-1.6669,-1.6571,-1.6656,-1.696,-1.7269,-1.7591,-1.7868,-1.8214,-1.8535,-1.8721,-1.8943,-1.9213,-1.9457,-1.9596,-1.9697,-1.9884,-2.0173,-2.06,-2.1038,-2.1159,-2.1302,-2.1511,-2.1686,-2.1848,-2.204,-2.2209,-2.2369,-2.2506,-2.2659,-2.2842,-2.3039,-2.3369,-2.3833,-2.4081,-2.4554,-2.4813,-2.4778,-2.4659,-2.4648,-2.4423,-2.4151,-2.428,-2.4694,-2.4494,-2.4622,-2.4421,-2.4385,-2.4598,-2.4875,-2.5153,-2.5448,-1.7567,-1.7854,-1.8024,-1.8338,-1.8638,-1.8875,-1.9099,-1.9303,-1.9558,-1.9759,-1.9862,-2.0016,-2.0163,-2.0257,-1.9924,-1.946,-1.8891,-1.8296,-1.7877,-1.7686,-1.772,-1.7808,-1.7882,-1.7747,-1.7618,-1.7543,-1.7536,-1.7584,-1.7638,-1.7631,-1.7659,-1.7713,-1.772,-1.7814,-1.7922,-1.7996,-1.8069,-1.8102,-1.8149,-1.8149,-1.8109,-1.8016,-1.7828,-1.7625,-1.7467,-1.7273,-1.7002,-1.6924,-1.6852,-1.6718,-1.6583,-1.6528,-1.6528,-1.6528,-1.6528,-1.6528,-1.6528,-1.6528,-1.6528,-1.6528,-1.6528,-1.6522,-1.6571,-1.6626,-1.6718,-1.6669,-1.6784,-1.6996,-1.7317,-1.7679,-1.8108,-1.8425,-1.8666,-1.8912,-1.9101,-1.9332,-1.9596,-1.9697,-1.9805,-2.0025,-2.0312,-2.066,-2.0965,-2.1215,-2.1388,-2.1595,-2.1811,-2.1949,-2.2163,-2.2321,-2.2451,-2.2614,-2.2773,-2.2945,-2.3157,-2.3669,-2.4459,-2.4918,-2.5443,-2.5637,-2.5706,-2.5521,-2.5326,-2.5166,-2.5078,-2.5353,-2.5649,-2.5357,-2.5259,-2.5518,-2.5621,-2.5522,-2.5644,-2.6089,-2.6329,-1.829,-1.8721,-1.8721,-1.8981,-1.9344,-1.946,-1.9662,-1.9959,-2.0213,-2.0378,-2.0523,-2.0673,-2.0716,-2.0703,-2.056,-2.0034,-1.9286,-1.8444,-1.805,-1.8055,-1.8128,-1.8175,-1.8275,-1.8228,-1.8182,-1.8043,-1.7963,-1.7963,-1.7929,-1.7963,-1.7949,-1.8009,-1.8049,-1.8055,-1.8189,-1.8242,-1.8242,-1.8275,-1.8314,-1.8268,-1.8228,-1.8082,-1.7922,-1.7652,-1.7461,-1.735,-1.7135,-1.6967,-1.6833,-1.6712,-1.6571,-1.6528,-1.6528,-1.6528,-1.6528,-1.6528,-1.6528,-1.6528,-1.6528,-1.6528,-1.6528,-1.6515,-1.662,-1.6725,-1.6767,-1.6846,-1.6924,-1.7122,-1.7365,-1.7814,-1.8273,-1.8528,-1.8805,-1.9064,-1.9302,-1.9487,-1.969,-1.9797,-1.9947,-2.0025,-2.0407,-2.0826,-2.1119,-2.1333,-2.1503,-2.167,-2.1882,-2.2056,-2.2276,-2.2405,-2.2533,-2.2667,-2.2825,-2.3394,-2.37,-2.4386,-2.5135,-2.5677,-2.6236,-2.6481,-2.6671,-2.6862,-2.6741,-2.6353,-2.6309,-2.6459,-2.6434,-2.6208,-2.6283,-2.6718,-2.664,-2.6292,-2.6535,-2.7028,-2.7222,-1.8887,-1.9263,-1.9257,-1.9565,-1.9965,-2.008,-2.022,-2.0453,-2.0723,-2.0885,-2.0934,-2.1187,-2.1313,-2.1362,-2.139,-2.0842,-1.9915,-1.8919,-1.8393,-1.8418,-1.8496,-1.8549,-1.8581,-1.8606,-1.863,-1.8567,-1.8386,-1.8196,-1.8163,-1.8163,-1.8189,-1.8189,-1.8189,-1.8261,-1.8333,-1.8379,-1.8446,-1.8478,-1.8517,-1.8471,-1.8333,-1.824,-1.8088,-1.7781,-1.757,-1.7419,-1.7267,-1.7057,-1.6882,-1.6833,-1.6607,-1.6528,-1.6528,-1.6528,-1.6528,-1.6528,-1.6528,-1.6528,-1.6528,-1.6528,-1.6528,-1.6528,-1.662,-1.6754,-1.684,-1.6918,-1.7044,-1.7295,-1.7625,-1.8036,-1.8425,-1.8651,-1.8874,-1.9101,-1.9369,-1.9632,-1.9797,-1.9975,-2.0123,-2.0131,-2.0543,-2.0949,-2.123,-2.145,-2.1587,-2.1759,-2.1957,-2.2138,-2.2313,-2.2432,-2.256,-2.272,-2.2877,-2.3626,-2.4337,-2.5189,-2.5976,-2.641,-2.6908,-2.736,-2.7675,-2.8283,-2.8242,-2.757,-2.7086,-2.696,-2.6947,-2.6995,-2.7091,-2.7372,-2.7182,-2.6971,-2.7438,-2.7904,-2.8108,-1.9356,-1.961,-1.972,-2.0029,-2.0365,-2.0579,-2.0779,-2.1026,-2.1313,-2.1465,-2.1561,-2.1698,-2.1841,-2.1895,-2.1996,-2.1451,-2.038,-1.9192,-1.8701,-1.869,-1.8728,-1.8728,-1.8774,-1.8798,-1.8784,-1.8745,-1.8599,-1.8489,-1.8489,-1.8528,-1.8496,-1.8496,-1.8489,-1.8521,-1.8553,-1.8599,-1.8651,-1.8651,-1.8666,-1.8634,-1.8496,-1.8379,-1.8109,-1.7909,-1.7645,-1.7495,-1.735,-1.7051,-1.6924,-1.684,-1.665,-1.6528,-1.6528,-1.6528,-1.6528,-1.6528,-1.6528,-1.6528,-1.6528,-1.6528,-1.6528,-1.662,-1.6712,-1.684,-1.696,-1.7086,-1.7288,-1.7659,-1.8088,-1.8418,-1.8588,-1.8812,-1.9026,-1.9258,-1.9479,-1.9733,-1.9947,-2.0208,-2.0243,-2.0262,-2.062,-2.1055,-2.145,-2.1603,-2.1678,-2.1819,-2.2032,-2.2192,-2.2386,-2.2487,-2.2623,-2.3085,-2.3422,-2.4482,-2.5314,-2.6117,-2.6805,-2.7233,-2.7536,-2.7976,-2.8315,-2.8737,-2.8755,-2.8346,-2.7994,-2.7686,-2.8012,-2.8276,-2.8151,-2.8046,-2.8171,-2.8276,-2.8475,-2.8736,-2.8883,-1.9811,-2.0003,-2.022,-2.0529,-2.0766,-2.1033,-2.1277,-2.1568,-2.1807,-2.1996,-2.2077,-2.2217,-2.231,-2.2285,-2.2079,-2.162,-2.0667,-1.9487,-1.9001,-1.895,-1.895,-1.895,-1.8912,-1.8912,-1.895,-1.8974,-1.8905,-1.886,-1.8745,-1.8745,-1.8777,-1.8745,-1.8777,-1.8815,-1.8777,-1.8798,-1.8822,-1.8791,-1.8728,-1.8711,-1.8602,-1.8361,-1.8123,-1.7963,-1.7645,-1.7482,-1.7419,-1.7093,-1.6924,-1.684,-1.6656,-1.6528,-1.6528,-1.6528,-1.6528,-1.6528,-1.6528,-1.6528,-1.6528,-1.6577,-1.662,-1.6669,-1.6846,-1.6967,-1.708,-1.7282,-1.7618,-1.8109,-1.8489,-1.8721,-1.8781,-1.8965,-1.9213,-1.9442,-1.9617,-1.9818,-2.0073,-2.0296,-2.0433,-2.0553,-2.0795,-2.1127,-2.1542,-2.1686,-2.1759,-2.1915,-2.2089,-2.2304,-2.246,-2.2596,-2.2842,-2.3484,-2.4222,-2.5422,-2.6328,-2.709,-2.7682,-2.8112,-2.8266,-2.8534,-2.8741,-2.8984,-2.8892,-2.8798,-2.8873,-2.8695,-2.9132,-2.9265,-2.8948,-2.8879,-2.9273,-2.9389,-2.9223,-2.9268,-2.944,-2.0271,-2.0516,-2.0779,-2.1082,-2.1319,-2.1568,-2.18,-2.1942,-2.2224,-2.2317,-2.2417,-2.2579,-2.2663,-2.2493,-2.1722,-2.1313,-2.0779,-1.9892,-1.9272,-1.9265,-1.9272,-1.9272,-1.931,-1.9347,-1.9272,-1.9221,-1.9228,-1.9071,-1.8943,-1.8853,-1.8815,-1.8815,-1.8815,-1.8815,-1.886,-1.8927,-1.8903,-1.8836,-1.8791,-1.869,-1.8517,-1.8321,-1.8196,-1.8029,-1.7733,-1.7475,-1.7406,-1.7086,-1.6931,-1.6876,-1.665,-1.6522,-1.6528,-1.6528,-1.6528,-1.6528,-1.6528,-1.6528,-1.6522,-1.6571,-1.6669,-1.6761,-1.6888,-1.7038,-1.724,-1.7358,-1.7693,-1.8242,-1.8613,-1.8836,-1.8934,-1.9048,-1.9288,-1.9537,-1.9754,-1.9975,-2.0235,-2.046,-2.0569,-2.0761,-2.0982,-2.1269,-2.1603,-2.1708,-2.184,-2.2003,-2.2183,-2.236,-2.256,-2.2685,-2.3406,-2.4154,-2.4798,-2.5958,-2.704,-2.785,-2.8236,-2.8734,-2.8848,-2.8929,-2.9007,-2.9108,-2.9165,-2.9135,-2.9255,-2.93,-2.9351,-2.9401,-2.9412,-2.9462,-2.9531,-2.9598,-2.9626,-2.9773,-2.9848,-2.0779,-2.0885,-2.1124,-2.1375,-2.165,-2.1888,-2.213,-2.237,-2.2593,-2.2723,-2.2821,-2.2942,-2.3031,-2.282,-2.183,-2.1322,-2.1028,-2.0025,-1.9435,-1.942,-1.942,-1.9428,-1.9391,-1.9428,-1.9428,-1.942,-1.9391,-1.931,-1.9139,-1.9019,-1.8988,-1.8974,-1.8974,-1.8988,-1.8943,-1.904,-1.901,-1.8889,-1.8781,-1.8627,-1.8418,-1.8268,-1.8163,-1.8029,-1.7686,-1.7536,-1.7378,-1.7086,-1.6931,-1.6882,-1.6656,-1.6528,-1.6528,-1.6528,-1.6528,-1.6528,-1.6528,-1.6528,-1.6528,-1.6633,-1.6718,-1.6846,-1.7009,-1.724,-1.7495,-1.757,-1.7774,-1.8361,-1.8651,-1.8874,-1.9078,-1.9265,-1.9442,-1.969,-1.9897,-2.0123,-2.0373,-2.0603,-2.0769,-2.0966,-2.1151,-2.1433,-2.1708,-2.1819,-2.1974,-2.2143,-2.2313,-2.2479,-2.2659,-2.2825,-2.3806,-2.5065,-2.5677,-2.6363,-2.7457,-2.8386,-2.8458,-2.8825,-2.8905,-2.8984,-2.9085,-2.9152,-2.9231,-2.9286,-2.933,-2.9392,-2.9472,-2.9502,-2.9502,-2.9579,-2.9655,-2.971,-2.9755,-2.9842,-2.9924,-2.1235,-2.1235,-2.1458,-2.1712,-2.1935,-2.2217,-2.2502,-2.2692,-2.2911,-2.3076,-2.3209,-2.3348,-2.3451,-2.3197,-2.2252,-2.1575,-2.1446,-2.0169,-1.9678,-1.9531,-1.9523,-1.9516,-1.9523,-1.9494,-1.9487,-1.9472,-1.945,-1.9457,-1.9384,-1.9272,-1.9183,-1.9139,-1.9108,-1.9108,-1.9108,-1.9071,-1.9033,-1.8889,-1.875,-1.8542,-1.8358,-1.8214,-1.8076,-1.7875,-1.7652,-1.7447,-1.735,-1.7099,-1.6931,-1.684,-1.665,-1.6522,-1.6528,-1.6528,-1.6528,-1.6534,-1.654,-1.659,-1.6626,-1.6663,-1.6791,-1.696,-1.717,-1.7447,-1.7747,-1.7733,-1.7848,-1.8439,-1.8843,-1.9033,-1.9183,-1.9442,-1.9661,-1.9869,-2.0088,-2.0304,-2.0517,-2.0703,-2.0925,-2.1127,-2.134,-2.1623,-2.184,-2.1966,-2.2098,-2.2274,-2.2449,-2.2596,-2.2842,-2.3065,-2.4178,-2.5459,-2.6226,-2.686,-2.7832,-2.8617,-2.8767,-2.8881,-2.8975,-2.9053,-2.9152,-2.9231,-2.9277,-2.933,-2.9412,-2.9502,-2.9598,-2.9589,-2.9589,-2.9664,-2.9737,-2.9789,-2.9848,-2.9924,-3.0003,-2.152,-2.1746,-2.2044,-2.2137,-2.2217,-2.2663,-2.2844,-2.2942,-2.3172,-2.3356,-2.3494,-2.366,-2.3797,-2.3542,-2.2619,-2.1916,-2.1887,-2.0568,-2.0063,-1.9863,-1.9856,-1.9733,-1.9697,-1.9697,-1.9654,-1.9661,-1.9596,-1.9567,-1.9538,-1.9428,-1.9347,-1.931,-1.9191,-1.9146,-1.9108,-1.9064,-1.895,-1.8805,-1.862,-1.8457,-1.8279,-1.8128,-1.7982,-1.7835,-1.7659,-1.7454,-1.7404,-1.7057,-1.6888,-1.6876,-1.665,-1.6522,-1.6528,-1.6528,-1.6528,-1.6534,-1.6596,-1.6645,-1.6718,-1.6797,-1.6924,-1.7086,-1.733,-1.7611,-1.7916,-1.8069,-1.8268,-1.8503,-1.8957,-1.9258,-1.9369,-1.9508,-1.9762,-2.001,-2.0262,-2.0433,-2.0644,-2.0827,-2.1047,-2.1285,-2.1526,-2.1751,-2.1957,-2.2089,-2.2192,-2.2366,-2.2542,-2.2694,-2.3154,-2.3548,-2.4569,-2.5693,-2.657,-2.736,-2.8252,-2.8703,-2.8825,-2.8952,-2.9053,-2.9152,-2.9249,-2.9316,-2.9351,-2.9451,-2.954,-2.9626,-2.9711,-2.9701,-2.9718,-2.9771,-2.9823,-2.9865,-2.9946,-3.0044,-3.0109,-2.1752,-2.2077,-2.2331,-2.2456,-2.2533,-2.2792,-2.3068,-2.3326,-2.3436,-2.3653,-2.3875,-2.3959,-2.4044,-2.3769,-2.2853,-2.2133,-2.1858,-2.0662,-2.0213,-2.0005,-1.9935,-1.9884,-1.9841,-1.9762,-1.9726,-1.9726,-1.9661,-1.9669,-1.9632,-1.9574,-1.9465,-1.9384,-1.9265,-1.9191,-1.9108,-1.8981,-1.8874,-1.8728,-1.8528,-1.8326,-1.8228,-1.8029,-1.7868,-1.7652,-1.7556,-1.7343,-1.7183,-1.7002,-1.6882,-1.6761,-1.6614,-1.6528,-1.6528,-1.6528,-1.6528,-1.6528,-1.6639,-1.6731,-1.6852,-1.6924,-1.7038,-1.7323,-1.757,-1.7821,-1.8043,-1.8163,-1.8379,-1.8683,-1.9108,-1.9376,-1.9538,-1.9669,-1.9869,-2.015,-2.0399,-2.0603,-2.0802,-2.0982,-2.1175,-2.1371,-2.1617,-2.1857,-2.204,-2.2192,-2.2321,-2.2449,-2.2614,-2.2877,-2.3404,-2.4035,-2.5042,-2.5993,-2.6914,-2.7667,-2.8499,-2.8749,-2.8896,-2.8998,-2.913,-2.9209,-2.9316,-2.934,-2.9403,-2.9531,-2.9636,-2.971,-2.9773,-2.9806,-2.9831,-2.9874,-2.9907,-2.9946,-3.0034,-3.0147,-3.0194,-2.1855,-2.2231,-2.2502,-2.2678,-2.2792,-2.2934,-2.326,-2.3551,-2.366,-2.3859,-2.4162,-2.4204,-2.4294,-2.4014,-2.3003,-2.2369,-2.1916,-2.097,-2.0354,-2.0131,-2.0103,-1.9983,-1.9904,-1.9826,-1.9762,-1.9726,-1.9726,-1.9697,-1.9697,-1.9647,-1.9531,-1.9413,-1.9332,-1.9258,-1.9064,-1.8912,-1.8767,-1.8627,-1.8425,-1.8208,-1.8116,-1.7929,-1.772,-1.7543,-1.7439,-1.7267,-1.7093,-1.6918,-1.6846,-1.6718,-1.6577,-1.6528,-1.6528,-1.6528,-1.6515,-1.6571,-1.6669,-1.681,-1.6931,-1.7093,-1.7247,-1.7536,-1.7754,-1.8003,-1.8202,-1.8282,-1.8379,-1.8867,-1.9213,-1.9457,-1.9618,-1.9805,-2.0018,-2.0296,-2.0561,-2.0769,-2.0933,-2.1119,-2.1309,-2.1495,-2.1708,-2.1915,-2.2155,-2.2341,-2.2504,-2.264,-2.2799,-2.3196,-2.383,-2.4552,-2.5488,-2.6399,-2.7288,-2.7997,-2.8661,-2.8812,-2.8975,-2.9071,-2.9191,-2.9255,-2.933,-2.9383,-2.9472,-2.9607,-2.9719,-2.979,-2.9841,-2.9881,-2.9914,-2.9956,-3.0003,-3.0049,-3.0104,-3.0198,-3.0238,-2.1942,-2.2224,-2.2579,-2.2792,-2.2942,-2.3172,-2.3443,-2.3645,-2.3782,-2.4044,-2.4343,-2.4508,-2.4535,-2.4255,-2.3139,-2.2555,-2.2113,-2.1093,-2.0426,-2.0339,-2.0277,-2.0185,-2.0045,-1.9912,-1.9797,-1.9797,-1.9733,-1.9697,-1.9697,-1.9705,-1.9589,-1.9442,-1.9332,-1.9221,-1.9094,-1.8898,-1.8721,-1.8517,-1.8321,-1.8116,-1.7956,-1.7801,-1.759,-1.748,-1.7363,-1.7183,-1.7009,-1.6876,-1.6797,-1.6669,-1.6565,-1.6522,-1.6528,-1.6528,-1.6571,-1.6669,-1.678,-1.6908,-1.7009,-1.7267,-1.7474,-1.7672,-1.7882,-1.8116,-1.8347,-1.8386,-1.8457,-1.8974,-1.9332,-1.9523,-1.9733,-1.994,-2.0158,-2.0407,-2.0669,-2.0893,-2.1055,-2.1254,-2.1442,-2.1617,-2.1827,-2.2003,-2.2268,-2.2515,-2.2692,-2.2851,-2.2987,-2.3479,-2.4212,-2.5184,-2.6117,-2.6777,-2.764,-2.8224,-2.8788,-2.8901,-2.9021,-2.9138,-2.9237,-2.9321,-2.9422,-2.952,-2.9617,-2.972,-2.9782,-2.9848,-2.9914,-2.9988,-3.0034,-3.0064,-3.0128,-3.0185,-3.0211,-3.0232,-3.0267,-2.2137,-2.2463,-2.2716,-2.2934,-2.3179,-2.3392,-2.366,-2.389,-2.4151,-2.4449,-2.4726,-2.4846,-2.4618,-2.4127,-2.346,-2.2687,-2.1945,-2.1285,-2.0636,-2.0423,-2.0388,-2.027,-2.0123,-1.999,-1.9876,-1.9797,-1.9733,-1.9733,-1.9697,-1.9697,-1.9596,-1.945,-1.9258,-1.9108,-1.895,-1.8784,-1.8669,-1.8404,-1.8221,-1.8123,-1.7929,-1.7713,-1.7508,-1.7411,-1.7231,-1.7093,-1.6931,-1.684,-1.6705,-1.662,-1.6522,-1.6522,-1.6522,-1.6522,-1.6577,-1.6718,-1.6823,-1.7028,-1.7267,-1.7522,-1.7713,-1.7868,-1.8022,-1.8261,-1.8425,-1.8574,-1.8791,-1.9087,-1.9516,-1.9705,-1.9841,-2.0096,-2.0312,-2.0585,-2.081,-2.099,-2.1183,-2.1388,-2.1581,-2.1776,-2.1945,-2.2231,-2.2497,-2.29,-2.3145,-2.3624,-2.39,-2.4122,-2.4733,-2.5854,-2.6864,-2.7308,-2.7952,-2.8485,-2.8891,-2.903,-2.9125,-2.9206,-2.9312,-2.9373,-2.9502,-2.9636,-2.9719,-2.98,-2.9857,-2.9911,-3.0009,-3.0094,-3.0138,-3.0189,-3.0226,-3.0244,-3.0264,-3.0279,-3.0314,-2.2224,-2.2608,-2.2859,-2.3135,-2.3363,-2.3523,-2.3774,-2.4151,-2.4482,-2.4814,-2.4974,-2.5037,-2.4757,-2.4169,-2.3495,-2.2764,-2.1866,-2.1152,-2.0769,-2.0551,-2.0457,-2.0373,-2.0235,-2.0096,-1.9983,-1.9876,-1.9797,-1.9726,-1.9697,-1.9697,-1.9596,-1.9413,-1.9176,-1.9026,-1.8867,-1.8777,-1.8637,-1.8365,-1.8142,-1.7982,-1.7788,-1.759,-1.7432,-1.7286,-1.7154,-1.6967,-1.6846,-1.6761,-1.662,-1.6528,-1.6528,-1.6528,-1.6515,-1.6565,-1.6626,-1.6761,-1.6979,-1.7183,-1.7432,-1.7686,-1.7875,-1.8055,-1.824,-1.8404,-1.8574,-1.8721,-1.8943,-1.9243,-1.9705,-1.9884,-1.9983,-2.0208,-2.0449,-2.0685,-2.0909,-2.1119,-2.1301,-2.1503,-2.1716,-2.1886,-2.2106,-2.2388,-2.2771,-2.3258,-2.3658,-2.426,-2.4847,-2.5114,-2.5406,-2.6451,-2.7441,-2.7888,-2.8224,-2.8689,-2.9007,-2.9175,-2.9234,-2.9293,-2.9384,-2.9483,-2.9579,-2.9711,-2.979,-2.9874,-2.993,-3.0025,-3.0109,-3.0189,-3.0217,-3.0234,-3.026,-3.0276,-3.0304,-3.0326,-3.0348,-2.2231,-2.2608,-2.2949,-2.3275,-2.3494,-2.3653,-2.3902,-2.4351,-2.4814,-2.5021,-2.5045,-2.5184,-2.4764,-2.4079,-2.3442,-2.2705,-2.2007,-2.1229,-2.0931,-2.0769,-2.0603,-2.0501,-2.0339,-2.0193,-2.0061,-1.999,-1.9876,-1.9762,-1.9733,-1.9661,-1.956,-1.9413,-1.9183,-1.9033,-1.8867,-1.8784,-1.8567,-1.83,-1.8062,-1.7855,-1.7618,-1.7474,-1.7321,-1.7209,-1.707,-1.6944,-1.6816,-1.6682,-1.662,-1.6528,-1.6528,-1.6522,-1.6565,-1.662,-1.6761,-1.6973,-1.7231,-1.7385,-1.7584,-1.7842,-1.8029,-1.8254,-1.8411,-1.8613,-1.876,-1.8867,-1.9049,-1.9354,-1.9777,-1.9947,-2.0123,-2.0331,-2.0543,-2.0777,-2.1038,-2.1214,-2.1386,-2.1601,-2.1802,-2.2023,-2.2229,-2.2556,-2.3066,-2.3563,-2.4295,-2.5172,-2.5841,-2.6407,-2.6702,-2.6982,-2.789,-2.837,-2.8679,-2.8893,-2.9121,-2.9265,-2.9379,-2.9423,-2.9531,-2.9636,-2.9719,-2.9792,-2.985,-2.9924,-3.0028,-3.0128,-3.0175,-3.023,-3.0283,-3.0299,-3.0289,-3.0311,-3.0326,-3.0357,-3.0379,-2.2441,-2.2716,-2.3076,-2.3363,-2.361,-2.4051,-2.4343,-2.4556,-2.4886,-2.5092,-2.5177,-2.4871,-2.4434,-2.3756,-2.3052,-2.2313,-2.1722,-2.1295,-2.1022,-2.086,-2.0728,-2.0577,-2.0441,-2.027,-2.0173,-2.0033,-1.9884,-1.9797,-1.9697,-1.9589,-1.9487,-1.9384,-1.9221,-1.9026,-1.8867,-1.8777,-1.8528,-1.8268,-1.8036,-1.7774,-1.757,-1.7432,-1.728,-1.7112,-1.6979,-1.6846,-1.6725,-1.6626,-1.6522,-1.6528,-1.6528,-1.6528,-1.6669,-1.6669,-1.6803,-1.7128,-1.733,-1.7529,-1.7788,-1.7989,-1.8182,-1.8411,-1.8613,-1.8784,-1.8936,-1.9049,-1.9199,-1.9508,-1.9841,-2.0088,-2.027,-2.0441,-2.0636,-2.0893,-2.1127,-2.134,-2.1509,-2.1683,-2.189,-2.2192,-2.243,-2.301,-2.3511,-2.4156,-2.4944,-2.5948,-2.6771,-2.7366,-2.779,-2.8015,-2.8197,-2.8685,-2.8943,-2.908,-2.9172,-2.9321,-2.9442,-2.9579,-2.9655,-2.9746,-2.9808,-2.9867,-2.9917,-3.0003,-3.0118,-3.0175,-3.0194,-3.026,-3.0321,-3.0323,-3.0314,-3.0357,-3.0379,-3.0388,-3.0388,-2.2473,-2.2754,-2.3135,-2.3487,-2.3859,-2.4317,-2.4597,-2.4799,-2.5005,-2.5256,-2.5321,-2.4826,-2.4205,-2.3609,-2.2924,-2.219,-2.1405,-2.131,-2.1159,-2.0974,-2.0827,-2.0628,-2.0467,-2.0346,-2.0227,-2.0061,-1.9955,-1.9841,-1.9733,-1.9596,-1.9457,-1.9391,-1.9221,-1.9026,-1.8874,-1.876,-1.8542,-1.8275,-1.8003,-1.7781,-1.7584,-1.7385,-1.7183,-1.7064,-1.6924,-1.6797,-1.6626,-1.6522,-1.6522,-1.6528,-1.6528,-1.6571,-1.6712,-1.6754,-1.6973,-1.726,-1.7406,-1.7618,-1.7868,-1.8095,-1.834,-1.8542,-1.8805,-1.8981,-1.9131,-1.925,-1.9435,-1.9654,-1.9975,-2.0262,-2.0407,-2.0585,-2.0794,-2.1015,-2.1206,-2.1433,-2.1601,-2.1773,-2.2069,-2.2375,-2.287,-2.3492,-2.4121,-2.4804,-2.5561,-2.6506,-2.7312,-2.7985,-2.832,-2.8515,-2.8615,-2.8868,-2.9048,-2.9194,-2.9291,-2.9394,-2.9541,-2.9673,-2.9745,-2.9833,-2.9891,-2.9965,-3.0028,-3.0118,-3.0226,-3.0244,-3.0247,-3.0308,-3.0357,-3.0348,-3.0348,-3.0367,-3.0379,-3.0388,-3.0388,-2.2352,-2.272,-2.3165,-2.3653,-2.412,-2.4467,-2.4751,-2.5013,-2.5209,-2.541,-2.5425,-2.483,-2.418,-2.3596,-2.2817,-2.2122,-2.1587,-2.1411,-2.1294,-2.1103,-2.0957,-2.0744,-2.0561,-2.0433,-2.0296,-2.0166,-2.0025,-1.9884,-1.9769,-1.9596,-1.9465,-1.9428,-1.931,-1.9108,-1.8829,-1.8743,-1.8556,-1.8228,-1.7956,-1.7747,-1.7529,-1.733,-1.7128,-1.6992,-1.6895,-1.6791,-1.6577,-1.6528,-1.6528,-1.6528,-1.6528,-1.6571,-1.6748,-1.6924,-1.719,-1.735,-1.7488,-1.774,-1.7949,-1.8175,-1.8464,-1.8697,-1.8965,-1.9139,-1.925,-1.9339,-1.9487,-1.9797,-2.0123,-2.0365,-2.0509,-2.0662,-2.0877,-2.1103,-2.134,-2.1526,-2.17,-2.1928,-2.2212,-2.2615,-2.3273,-2.3929,-2.4875,-2.5579,-2.6392,-2.7199,-2.781,-2.8499,-2.8746,-2.8896,-2.8989,-2.9067,-2.9138,-2.927,-2.9412,-2.9521,-2.9645,-2.9746,-2.9833,-2.9907,-2.9972,-3.0059,-3.0142,-3.0213,-3.0266,-3.0286,-3.0311,-3.0345,-3.0379,-3.0379,-3.0379,-3.0388,-3.0388,-3.0388,-3.0388,-2.1973,-2.2432,-2.343,-2.3967,-2.4113,-2.4459,-2.4799,-2.5099,-2.5262,-2.5408,-2.5373,-2.4479,-2.3882,-2.3589,-2.2541,-2.1834,-2.1699,-2.1542,-2.1419,-2.1247,-2.1087,-2.0884,-2.0695,-2.0535,-2.0399,-2.0235,-2.0096,-1.9919,-1.9726,-1.956,-1.9465,-1.9391,-1.9265,-1.9056,-1.8822,-1.8743,-1.8517,-1.8196,-1.7916,-1.7706,-1.7523,-1.7323,-1.7135,-1.6979,-1.6882,-1.6748,-1.6614,-1.6528,-1.6528,-1.6528,-1.6626,-1.6761,-1.6931,-1.7177,-1.7343,-1.7502,-1.7659,-1.7868,-1.8109,-1.834,-1.8542,-1.876,-1.8988,-1.9176,-1.9295,-1.9384,-1.9567,-1.9912,-2.0193,-2.0433,-2.0636,-2.0778,-2.0966,-2.123,-2.1495,-2.1639,-2.1827,-2.2131,-2.243,-2.2932,-2.3579,-2.4558,-2.5552,-2.6428,-2.7254,-2.7848,-2.8304,-2.8782,-2.8929,-2.908,-2.9194,-2.9246,-2.9249,-2.9353,-2.9521,-2.9645,-2.9737,-2.9816,-2.9891,-2.9962,-3.0025,-3.0123,-3.0203,-3.0244,-3.0296,-3.0311,-3.0323,-3.0376,-3.0398,-3.0388,-3.0388,-3.0388,-3.0388,-3.0388,-3.0388,-2.1284,-2.1874,-2.3062,-2.361,-2.3813,-2.4368,-2.4831,-2.5106,-2.501,-2.5032,-2.5102,-2.4225,-2.3646,-2.3333,-2.2239,-2.1768,-2.1686,-2.1672,-2.1481,-2.1325,-2.1183,-2.1014,-2.081,-2.0603,-2.0475,-2.0312,-2.0111,-1.9891,-1.9682,-1.9596,-1.9509,-1.9391,-1.9221,-1.9064,-1.8829,-1.8697,-1.8517,-1.8202,-1.7889,-1.7666,-1.7475,-1.7317,-1.7128,-1.6967,-1.6882,-1.6748,-1.6614,-1.6528,-1.6528,-1.6571,-1.6705,-1.6833,-1.7002,-1.7218,-1.7474,-1.7672,-1.7835,-1.8043,-1.8275,-1.8464,-1.8666,-1.8874,-1.9094,-1.9332,-1.9501,-1.9589,-1.9697,-2.001,-2.0281,-2.0527,-2.0736,-2.0917,-2.1103,-2.1332,-2.1587,-2.1797,-2.2253,-2.2742,-2.2764,-2.2761,-2.3894,-2.5543,-2.6446,-2.7157,-2.7904,-2.8202,-2.8685,-2.8929,-2.9089,-2.9225,-2.9342,-2.9443,-2.9434,-2.9483,-2.9608,-2.9709,-2.9814,-2.9881,-2.9946,-3.0034,-3.0123,-3.0194,-3.0247,-3.0308,-3.0343,-3.0323,-3.0357,-3.0388,-3.0398,-3.0388,-3.0388,-3.0388,-3.0388,-3.04,-3.04,-2.0595,-2.1358,-2.243,-2.2972,-2.3248,-2.3965,-2.4556,-2.4832,-2.4454,-2.428,-2.4364,-2.3851,-2.339,-2.281,-2.2154,-2.19,-2.1716,-2.1694,-2.1534,-2.1388,-2.1278,-2.1087,-2.0876,-2.0628,-2.0475,-2.0312,-2.0103,-1.9884,-1.9682,-1.956,-1.9465,-1.9391,-1.9272,-1.9108,-1.8874,-1.8644,-1.8471,-1.8156,-1.7868,-1.7625,-1.7447,-1.7269,-1.7122,-1.6967,-1.6882,-1.6742,-1.6571,-1.6528,-1.6528,-1.6614,-1.6791,-1.6918,-1.708,-1.7295,-1.7556,-1.7801,-1.7922,-1.8163,-1.84,-1.8588,-1.8819,-1.9078,-1.9302,-1.9479,-1.9654,-1.9797,-1.9904,-2.0115,-2.0384,-2.0613,-2.0827,-2.103,-2.1214,-2.1456,-2.1708,-2.1999,-2.2618,-2.3273,-2.3201,-2.304,-2.4566,-2.6356,-2.7219,-2.7941,-2.8277,-2.8583,-2.8834,-2.903,-2.9209,-2.936,-2.9472,-2.957,-2.9626,-2.9682,-2.9728,-2.9781,-2.9872,-2.9962,-3.004,-3.0133,-3.0189,-3.0247,-3.0299,-3.0364,-3.0367,-3.0357,-3.0357,-3.0388,-3.0388,-3.04,-3.0388,-3.0388,-3.04,-3.04,-3.039,-2.0472,-2.141,-2.1988,-2.2301,-2.2555,-2.2877,-2.3238,-2.3567,-2.3616,-2.3385,-2.3194,-2.3159,-2.2973,-2.2841,-2.212,-2.1806,-2.1789,-2.1738,-2.1664,-2.155,-2.1356,-2.1175,-2.0982,-2.0703,-2.0449,-2.0208,-2.0033,-1.9876,-1.9682,-1.9516,-1.942,-1.9391,-1.9137,-1.8972,-1.8791,-1.8606,-1.834,-1.8102,-1.7814,-1.7523,-1.7441,-1.7317,-1.7128,-1.7009,-1.6888,-1.6699,-1.6565,-1.6528,-1.6577,-1.6705,-1.6833,-1.7002,-1.7205,-1.7371,-1.7672,-1.7922,-1.8043,-1.8282,-1.8517,-1.8697,-1.892,-1.9153,-1.9339,-1.9523,-1.9697,-1.9841,-2.0018,-2.0296,-2.0527,-2.0745,-2.095,-2.1103,-2.1294,-2.1656,-2.1961,-2.2288,-2.2762,-2.351,-2.3967,-2.4556,-2.5674,-2.6979,-2.7958,-2.8376,-2.8504,-2.8776,-2.8989,-2.9178,-2.9298,-2.9462,-2.9608,-2.9691,-2.979,-2.985,-2.9874,-2.9865,-2.9937,-3.0025,-3.0123,-3.0194,-3.0247,-3.0276,-3.0336,-3.0388,-3.0398,-3.0388,-3.0388,-3.04,-3.04,-3.039,-3.04,-3.04,-3.04,-3.0402,-3.0415]},{"header":{"parameterUnit":"m.s-1","parameterCategory":1,"la1":31.0,"la2":29.5877,"lo1":-88.7671,"lo2":-86.6584,"dy":0.0162,"dx":0.0185,"nx":115,"ny":88,"refTime":"2024-07-23T06:00:00:Z","depth":0,"parameterNumber":3,"parameterNumberName":"V-component_of_WINDS"},"data":[0.0,0.0,0.0,0.0,0.0,0.0,0.0,0.0,0.0,0.0,0.0,0.0,0.0,0.0,0.0,0.0,0.0,0.0,0.0,0.0,0.0,0.0,0.0,0.0,0.0,0.0,0.0,0.0,0.0,0.0,0.0,0.0,0.0,0.0,0.0,0.0,0.0,0.0,0.0,0.0,0.0,0.0,0.0,0.0,0.0,0.0,0.0,0.0,0.0,0.0,0.0,0.0,0.0,0.0,0.0,0.0,0.0,0.0,0.0,0.0,0.0,0.0,0.0,0.0,0.0,0.0,0.0,0.0,0.0,0.0,0.0,0.0,0.0,0.0,0.0,0.0,0.0,0.0,0.0,0.0,0.0,0.0,0.0,0.0,0.0,0.0,0.0,0.0,0.0,0.0,0.0,0.0,0.0,0.0,0.0,0.0,0.0,0.0,0.0,0.0,0.0,0.0,0.0,0.0,0.0,0.0,0.0,0.0,0.0,0.0,0.0,0.0,0.0,0.0,0.0,0.0,0.0,0.0,0.0,0.0,0.0,0.0,0.0,0.0,0.0,0.0,0.0,0.0,0.0,0.0,0.0,0.0,0.0,0.0,0.0,0.0,0.0,0.0,0.0,0.0,0.0,0.0,0.0,0.0,0.0,0.0,0.0,0.0,0.0,0.0,0.0,0.0,0.0,0.0,0.0,0.0,0.0,0.0,0.0,0.0,0.0,0.0,0.0,0.0,0.0,0.0,0.0,0.0,0.0,0.0,0.0,0.0,0.0,0.0,0.0,0.0,0.0,0.0,0.0,0.0,0.0,0.0,0.0,0.0,0.0,0.0,0.0,0.0,0.0,0.0,0.0,0.0,0.0,0.0,0.0,0.0,0.0,0.0,0.0,0.0,0.0,0.0,0.0,0.0,0.0,0.0,0.0,0.0,0.0,0.0,0.0,0.0,0.0,0.0,0.0,0.0,0.0,0.0,0.0,0.0,0.0,0.0,0.0,0.0,0.0,0.0,0.0,0.0,0.0,0.0,0.0,0.0,0.0,0.0,0.0,0.0,0.0,0.0,0.0,0.0,0.0,0.0,0.0,0.0,0.0,0.0,0.0,0.0,0.0,0.0,0.0,0.0,0.0,0.0,0.0,0.0,0.0,0.0,0.0,0.0,0.0,0.0,0.0,0.0,0.0,0.0,0.0,0.0,0.0,0.0,0.0,0.0,0.0,0.0,0.0,0.0,0.0,0.0,0.0,0.0,0.0,0.0,0.0,0.0,0.0,0.0,0.0,0.0,0.0,0.0,0.0,0.0,0.0,0.0,0.0,0.0,0.0,0.0,0.0,0.0,0.0,0.0,0.0,0.0,0.0,0.0,0.0,0.0,0.0,0.0,0.0,0.0,0.0,0.0,0.0,0.0,0.0,0.0,0.0,0.0,0.0,0.0,0.0,0.0,0.0,0.0,0.0,0.0,0.0,0.0,0.0,0.0,0.0,0.0,0.0,0.0,0.0,0.0,0.0,0.0,0.0,0.0,0.0,0.0,0.0,0.0,0.0,0.0,0.0,0.0,0.0,0.0,0.0,0.0,0.0,0.0,0.0,0.0,0.0,0.0,0.0,0.0,0.0,0.0,0.0,0.0,0.0,0.0,0.0,0.0,0.0,0.0,0.0,0.0,0.0,0.0,0.0,0.0,0.0,0.0,0.0,0.0,0.0,0.0,0.0,0.0,0.0,0.0,0.0,0.0,0.0,0.0,0.0,0.0,0.0,0.0,0.0,0.0,0.0,0.0,0.0,0.0,0.0,0.0,0.0,0.0,0.0,0.0,0.0,0.0,0.0,0.0,0.0,0.0,0.0,0.0,0.0,0.0,0.0,0.0,0.0,0.0,0.0,0.0,0.0,0.0,0.0,0.0,0.0,0.0,0.0,0.0,0.0,0.0,0.0,0.0,0.0,0.0,0.0,0.0,0.0,0.0,0.0,0.0,0.0,0.0,0.0,0.0,0.0,0.0,0.0,0.0,0.0,0.0,0.0,0.0,0.0,0.0,0.0,0.0,0.0,0.0,0.0,0.0,0.0,0.0,0.0,0.0,0.0,0.0,0.0,0.0,0.0,0.0,0.0,0.0,0.0,0.0,0.0,0.0,0.0,0.0,0.0,0.0,0.0,0.0,0.0,0.0,0.0,0.0,0.0,0.0,0.0,0.0,0.0,0.0,0.0,0.0,0.0,0.0,0.0,0.0,0.0,0.0,0.0,0.0,0.0,0.0,0.0,0.0,0.0,0.0,0.0,0.0,0.0,0.0,0.0,0.0,0.0,0.0,0.0,0.0,0.0,0.0,0.0,0.0,0.0,0.0,0.0,0.0,0.0,0.0,0.0,0.0,0.0,0.0,0.0,0.0,0.0,0.0,0.0,0.0,0.0,0.0,0.0,0.0,0.0,0.0,0.0,0.0,0.0,0.0,0.0,0.0,0.0,0.0,0.0,0.0,0.0,0.0,0.0,0.0,0.0,0.0,0.0,0.0,0.0,0.0,0.0,0.0,0.0,0.0,0.0,0.0,0.0,0.0,0.0,0.0,0.0,0.0,0.0,0.0,0.0,0.0,0.0,0.0,0.0,0.0,0.0,0.0,0.0,0.0,0.0,0.0,0.0,0.0,0.0,0.0,0.0,0.0,0.0,0.0,0.0,0.0,0.0,0.0,0.0,0.0,0.0,0.0,0.0,0.0,0.0,0.0,0.0,0.0,0.0,0.0,0.0,0.0,0.0,0.0,0.0,0.0,0.0,0.0,0.0,0.0,0.0,0.0,0.0,0.0,0.0,0.0,0.0,0.0,0.0,0.0,0.0,0.0,0.0,0.0,0.0,0.0,0.0,0.0,0.0,0.0,0.0,0.0,0.0,0.0,0.0,0.0,0.0,0.0,0.0,0.0,0.0,0.0,0.0,0.0,0.0,0.0,0.0,0.0,0.0,0.0,0.0,0.0,0.0,0.0,0.0,0.0,0.0,0.0,0.0,0.0,0.0,0.0,0.0,0.0,0.0,0.0,0.0,0.0,0.0,0.0,0.0,0.0,0.0,0.0,0.0,0.0,0.0,0.0,0.0,0.0,0.0,0.0,0.0,0.0,0.0,0.0,0.0,0.0,0.0,0.0,0.0,0.0,0.0,0.0,0.0,0.0,0.0,0.0,0.0,0.0,0.0,0.0,0.0,0.0,0.0,0.0,0.0,0.0,0.0,0.0,0.0,0.0,0.0,0.0,0.0,0.0,0.0,0.0,0.0,0.0,0.0,0.0,0.0,0.0,0.0,0.0,0.0,0.0,0.0,0.0,0.0,0.0,0.0,0.0,0.0,0.0,0.0,0.0,0.0,0.0,0.0,0.0,0.0,0.0,0.0,0.0,0.0,0.0,0.0,0.0,0.0,0.0,0.0,0.0,0.0,0.0,0.0,0.0,0.0,0.0,0.0,0.0,0.0,0.0,0.0,0.0,0.0,0.0,0.0,0.0,0.0,0.0,0.0,0.0,0.0,0.0,0.0,0.0,0.0,0.0,0.0,0.0,0.0,0.0,0.0,0.0,0.0,0.0,0.0,0.0,0.0,0.0,0.0,0.0,0.0,0.0,0.0,0.0,0.0,0.0,0.0,0.0,0.0,0.0,0.0,0.0,0.0,0.0,0.0,0.0,0.0,0.0,0.0,0.0,0.0,0.0,0.0,0.0,0.0,0.0,0.0,0.0,0.0,0.0,0.0,0.0,0.0,0.0,0.0,0.0,0.0,0.0,0.0,0.0,0.0,0.0,0.0,0.0,0.0,0.0,0.0,0.0,0.0,0.0,0.0,0.0,0.0,0.0,0.0,0.0,0.0,0.0,0.0,0.0,0.0,0.0,0.0,0.0,0.0,0.0,0.0,0.0,0.0,0.0,0.0,0.0,0.0,0.0,0.0,0.0,0.0,0.0,0.0,0.0,0.0,0.0,0.0,0.0,0.0,0.0,0.0,0.0,0.0,0.0,0.0,0.0,0.0,0.0,0.0,0.0,0.0,0.0,0.0,0.0,0.0,0.0,0.0,0.0,0.0,0.0,0.0,0.0,0.0,0.0,0.0,0.0,0.0,0.0,0.0,0.0,0.0,0.0,0.0,0.0,0.0,0.0,0.0,0.0,0.0,0.0,0.0,0.0,0.0,0.0,0.0,0.0,0.0,0.0,0.0,0.0,0.0,0.0,0.0,0.0,0.0,0.0,0.0,0.0,0.0,0.0,0.0,0.0,0.0,0.0,0.0,0.0,0.0,0.0,1.1276,0.0,0.0,0.0,0.0,0.0,0.0,0.0,0.0,0.0,0.0,0.0,0.0,0.0,0.0,0.0,0.0,0.0,0.0,0.0,0.0,0.0,0.0,0.0,0.0,0.0,0.0,0.0,0.0,0.0,0.0,0.0,0.0,0.0,0.0,0.0,0.0,0.0,0.0,0.0,0.0,0.0,0.0,0.0,0.0,0.0,0.0,0.0,0.0,0.0,0.0,0.0,0.0,0.0,0.0,0.0,0.0,0.0,0.0,0.0,0.0,0.0,0.0,0.0,0.0,0.0,0.0,0.0,0.0,0.0,0.0,0.0,0.0,0.0,0.0,0.0,0.0,0.0,0.0,0.0,0.0,0.0,0.0,0.0,0.0,0.0,0.0,0.0,0.0,0.0,0.0,0.0,0.0,0.0,0.0,0.0,0.0,0.0,0.0,0.0,0.0,0.0,0.0,0.0,0.0,0.0,0.0,0.0,0.0,0.0,0.0,1.398,1.3535,1.352,1.289,1.1612,0.0,0.0,0.0,0.0,0.0,0.0,0.0,0.0,0.0,0.0,0.0,0.0,0.0,0.0,0.0,0.0,0.0,0.0,0.0,0.0,0.0,0.0,0.0,0.0,0.0,0.0,0.0,0.0,0.0,0.0,0.0,0.0,0.0,0.0,0.0,0.0,0.0,0.0,0.0,0.0,0.0,0.0,0.0,0.0,0.0,0.0,0.0,0.0,0.0,0.0,0.0,0.0,0.0,0.0,0.0,0.0,0.0,0.0,0.0,0.0,0.0,0.0,0.0,0.0,0.0,0.0,0.0,0.0,0.0,0.0,0.0,0.0,0.0,0.0,0.0,0.0,0.0,0.0,0.0,0.0,0.0,0.0,0.0,0.0,0.0,0.0,0.0,0.0,0.0,0.0,0.0,0.0,0.0,0.0,0.0,0.0,0.0,0.0,0.0,0.0,0.0,0.0,0.0,0.0,0.0,0.0,0.0,0.0,0.0,0.0,0.0,0.0,1.4374,1.3573,1.1871,0.0,0.0,0.0,0.0,0.0,0.0,0.0,0.0,0.0,0.0,0.0,0.0,0.0,0.0,0.0,0.0,0.0,0.0,0.0,0.0,0.0,0.0,0.0,0.0,0.0,0.0,0.0,0.0,0.0,0.0,0.0,0.0,0.0,0.0,0.0,0.0,0.0,0.0,0.0,0.0,0.0,0.0,0.0,0.0,0.0,0.0,0.0,0.0,0.0,0.0,0.0,0.0,0.0,0.0,0.0,0.0,0.0,0.0,0.0,0.0,0.0,0.0,0.0,0.0,0.0,0.0,0.0,0.0,0.0,0.0,0.0,0.0,0.0,0.0,0.0,0.0,0.0,0.0,0.0,0.0,0.0,0.0,0.0,0.0,0.0,0.0,0.0,0.0,0.0,0.0,0.0,0.0,0.0,0.0,0.0,0.0,0.0,0.0,0.0,0.0,0.0,0.0,0.0,0.0,0.0,0.0,0.0,0.0,0.0,0.0,1.5221,1.5196,1.5176,0.0,1.2775,0.0,0.0,0.0,0.0,0.0,0.0,0.0,0.0,0.0,0.0,0.0,0.0,0.0,0.0,0.0,0.0,0.0,0.0,0.0,0.0,0.0,0.0,0.0,0.0,0.0,0.0,0.0,0.0,0.0,0.0,0.0,0.0,0.0,0.0,0.0,0.0,0.0,0.0,0.0,0.0,0.0,0.0,0.0,0.0,0.0,0.0,0.0,0.0,0.0,0.0,0.0,0.0,0.0,0.0,0.0,0.0,0.0,0.0,0.0,0.0,0.0,0.0,0.0,0.0,0.0,0.0,0.0,0.0,0.0,0.0,0.0,0.0,0.0,0.0,0.0,0.0,0.0,0.0,0.0,0.0,0.0,0.0,0.0,0.0,0.0,0.0,0.0,0.0,0.0,0.0,0.0,0.0,0.0,0.0,0.0,0.0,0.0,0.0,0.0,0.0,0.0,0.0,0.0,0.0,0.0,0.0,0.0,0.0,0.0,0.0,0.0,1.518,1.4731,1.3923,0.0,0.0,0.0,0.0,0.0,0.0,0.0,0.0,0.0,0.0,0.0,0.0,0.0,0.0,0.0,0.0,0.0,0.0,0.0,0.0,0.0,0.0,0.0,0.0,0.0,0.0,0.0,0.0,0.0,0.0,0.0,0.0,0.0,0.0,0.0,0.0,0.0,0.0,0.0,0.0,0.0,0.0,0.0,0.0,0.0,0.0,0.0,0.0,0.0,0.0,0.0,0.0,0.0,0.0,0.0,0.0,0.0,0.0,0.0,0.0,0.0,0.0,0.0,0.0,0.0,0.0,0.0,0.0,0.0,0.0,0.0,0.0,0.0,0.0,0.0,0.0,0.0,0.0,0.0,0.0,0.0,0.0,0.0,0.0,0.0,0.0,0.0,0.0,0.0,0.0,0.0,0.0,0.0,0.0,0.0,0.0,0.0,0.0,0.0,0.0,0.0,0.0,0.0,0.0,0.0,0.0,0.0,0.0,0.0,0.0,1.5263,0.0,1.5327,1.4585,1.3688,1.265,0.0,0.0,0.0,0.0,0.0,0.0,0.0,0.0,0.0,0.0,0.0,0.0,0.0,0.0,0.0,0.0,0.0,0.0,0.0,0.0,0.0,0.0,0.0,0.0,0.0,0.0,0.0,0.0,0.0,0.0,0.0,0.0,0.0,0.0,0.0,0.0,0.0,0.0,0.0,0.0,0.0,0.0,0.0,0.0,0.0,0.0,0.0,0.0,0.0,0.0,0.0,0.0,0.0,0.0,0.0,0.0,0.0,0.0,0.0,0.0,0.0,0.0,0.0,0.0,0.0,0.0,0.0,0.0,0.0,0.0,0.0,0.0,0.0,0.0,0.0,0.0,0.0,0.0,0.0,0.0,0.0,0.0,0.0,0.0,0.0,0.0,0.0,0.0,0.0,0.0,0.0,0.0,0.0,0.0,0.0,0.0,0.0,0.0,0.0,0.0,0.0,0.0,0.0,0.0,0.0,0.0,0.0,0.0,0.0,1.5916,1.5947,1.5921,1.5243,1.4095,0.0,0.0,0.0,0.0,0.0,0.0,0.0,0.0,0.0,0.0,0.0,0.0,0.0,0.0,0.0,0.0,0.0,0.0,0.0,0.0,0.0,0.0,0.0,0.0,0.0,0.0,0.0,0.0,0.0,0.0,0.0,0.0,0.0,0.0,0.0,0.0,0.0,0.0,0.0,0.0,0.0,0.0,0.0,0.0,0.0,0.0,0.0,0.0,0.0,0.0,0.0,0.0,0.0,0.0,0.0,0.0,0.0,0.0,0.0,0.0,0.0,0.0,0.0,0.0,0.0,0.0,0.0,0.0,0.0,0.0,0.0,0.0,0.0,0.0,0.0,0.0,0.0,0.0,0.0,0.0,0.0,0.0,0.0,0.0,0.0,0.0,0.0,0.0,0.0,0.0,0.0,0.0,0.0,0.0,0.0,0.0,0.0,0.0,0.0,0.0,0.0,0.0,0.0,0.0,0.0,0.0,0.0,0.0,0.0,1.5535,1.5695,1.5743,1.5709,1.5018,1.3887,0.0,0.0,0.0,0.0,0.0,0.0,0.0,0.0,0.0,0.0,0.0,0.0,0.0,0.0,0.0,0.0,0.0,0.0,0.0,0.0,0.0,0.0,0.0,0.0,0.0,0.0,0.0,0.0,0.0,0.0,0.0,0.0,0.0,0.0,0.0,0.0,0.0,0.0,0.0,0.0,0.0,0.0,0.0,0.0,0.0,0.0,0.0,0.0,0.0,0.0,0.0,0.0,0.0,0.0,0.0,0.0,0.0,0.0,0.0,0.0,0.0,0.0,0.0,0.0,0.0,0.0,0.0,0.0,0.0,0.0,0.0,0.0,0.0,0.0,0.0,0.0,0.0,0.0,0.0,0.0,0.0,0.0,0.0,0.0,0.0,0.0,0.0,0.0,0.0,0.0,0.0,0.0,0.0,0.0,0.0,0.0,0.0,0.0,0.0,0.0,0.0,0.0,0.0,0.0,0.0,0.0,0.0,0.0,0.0,1.5547,0.0,1.6287,0.0,1.5039,1.3798,0.0,0.0,0.0,0.0,0.0,0.0,0.0,0.0,0.0,0.0,0.0,0.0,0.0,0.0,0.0,0.0,0.0,0.0,0.0,0.0,0.0,0.0,0.0,0.0,0.0,0.0,0.0,0.0,0.0,0.0,0.0,0.0,0.0,0.0,0.0,0.0,0.0,0.0,0.0,0.0,0.0,0.0,0.0,0.0,0.0,0.0,0.0,0.0,0.0,0.0,0.0,0.0,0.0,0.0,0.0,0.0,0.0,0.0,0.0,0.0,0.0,0.0,0.0,0.0,0.0,0.0,0.0,0.0,0.0,0.0,0.0,0.0,0.0,0.0,0.0,0.0,0.0,0.0,0.0,0.0,0.0,0.0,0.0,0.0,0.0,0.0,0.0,0.0,0.0,0.0,0.0,0.0,0.0,0.0,0.0,0.0,0.0,0.0,0.0,0.0,0.0,0.0,0.0,0.0,0.0,0.0,0.0,0.0,1.4255,1.5949,1.7467,1.7469,1.6142,1.5274,1.383,0.0,0.0,0.0,0.0,0.0,0.0,0.0,0.0,0.0,0.0,0.0,0.0,0.0,0.0,0.0,0.0,0.0,0.0,0.0,0.0,0.0,0.0,0.0,0.0,0.0,0.0,0.0,0.0,0.0,0.0,0.0,0.0,0.0,0.0,0.0,0.0,0.0,0.0,0.0,0.0,0.0,0.0,0.0,0.0,0.0,0.0,0.0,0.0,0.0,0.0,0.0,0.0,0.0,0.0,0.0,0.0,0.0,0.0,0.0,0.0,0.0,0.0,0.0,0.0,0.0,0.0,0.0,0.0,0.0,0.0,0.0,0.0,0.0,0.0,0.0,0.0,0.0,0.0,0.0,0.0,0.0,0.0,0.0,0.0,0.0,0.0,0.0,0.0,0.0,0.0,0.0,0.0,0.0,0.0,0.0,0.0,0.0,0.0,0.0,0.0,0.0,0.0,0.0,0.0,0.0,0.0,0.0,0.0,0.0,1.5759,1.637,1.6244,1.5297,1.4578,1.3244,0.0,0.0,0.0,0.0,0.0,0.0,0.0,0.0,0.0,0.0,0.0,0.0,0.0,0.0,0.0,0.0,0.0,0.0,0.0,0.0,0.0,0.0,0.0,0.0,0.0,0.0,0.0,0.0,0.0,0.0,0.0,0.0,0.0,0.0,0.0,0.0,0.0,0.0,0.0,0.0,0.0,0.0,0.0,0.0,0.0,0.0,0.0,0.0,0.0,0.0,0.0,0.0,0.0,0.0,0.0,0.0,0.0,0.0,0.0,0.0,0.0,0.0,0.0,0.0,0.0,0.0,0.0,0.0,0.0,0.0,0.0,0.0,0.0,0.0,0.0,0.0,0.0,0.0,0.0,0.0,0.0,0.0,0.0,0.0,0.0,0.0,0.0,0.0,0.0,0.0,0.0,0.0,0.0,0.0,0.0,0.0,0.0,0.0,0.0,0.0,0.0,0.0,0.0,0.0,0.0,0.0,0.0,0.0,0.0,1.4574,1.508,1.5105,1.4656,1.4063,1.2927,1.1202,0.0,0.0,0.0,0.0,0.0,0.0,0.0,0.0,0.0,0.0,0.0,0.0,0.0,0.0,0.0,0.0,0.0,0.0,0.0,0.0,0.0,0.0,0.0,0.0,0.0,0.0,0.0,0.0,0.0,0.0,0.0,0.0,0.0,0.0,0.0,0.0,0.0,0.0,0.0,0.0,0.0,0.0,0.0,0.0,0.0,0.0,0.0,0.0,0.0,0.0,0.0,0.0,0.0,0.0,0.0,0.0,0.0,0.0,0.0,0.0,0.0,0.0,0.0,0.0,0.0,0.0,0.0,0.0,0.0,0.0,0.0,0.0,0.0,0.0,0.0,0.0,0.0,0.0,0.0,0.0,0.0,0.0,0.0,0.0,0.0,0.0,0.0,0.0,0.0,0.0,0.0,0.0,0.0,0.0,0.0,0.0,0.0,0.0,0.0,0.0,0.0,0.0,0.0,0.0,0.0,0.0,0.0,0.0,1.2679,1.367,1.4123,1.4046,1.3607,1.2761,0.0,0.0,0.0,0.0,0.0,0.0,0.0,0.0,0.0,0.0,0.0,0.0,0.0,0.0,0.0,0.0,0.0,0.0,0.0,0.0,0.0,0.0,0.0,0.0,0.0,0.0,0.0,0.0,0.0,0.0,0.0,0.0,0.0,0.0,0.0,0.0,0.0,0.0,0.0,0.0,0.0,0.0,0.0,0.0,0.0,0.0,0.0,0.0,0.0,0.0,0.0,0.0,0.0,0.0,0.0,0.0,0.0,0.0,0.0,0.0,0.0,0.0,0.0,0.0,0.0,0.0,0.0,0.0,0.0,0.0,0.0,0.0,0.0,0.0,0.0,0.0,0.0,0.0,0.0,0.0,0.0,0.0,0.0,0.0,0.0,0.0,0.0,0.0,0.0,0.0,0.0,0.0,0.0,0.0,0.0,0.0,0.0,0.0,0.0,0.0,0.0,0.0,0.0,0.0,0.0,0.0,0.0,0.0,0.0,1.1063,1.136,1.1872,1.2599,1.2372,1.1676,0.0,0.0,0.0,0.0,0.0,0.0,0.0,0.0,0.0,0.0,0.0,0.0,0.0,0.0,0.0,0.0,0.0,0.0,0.0,0.0,0.0,0.0,0.0,0.0,0.0,0.0,0.0,0.0,0.0,0.0,0.0,0.0,0.0,0.0,0.0,0.0,0.0,0.0,0.0,0.0,0.0,0.0,0.0,0.0,0.0,0.0,0.0,0.0,0.0,0.0,0.0,0.0,0.0,0.0,0.0,0.0,0.0,0.0,0.0,0.0,0.0,0.0,0.0,0.0,0.0,0.0,0.0,0.0,0.0,0.0,0.0,0.0,0.0,0.0,0.0,0.0,0.0,0.0,0.0,0.0,0.0,0.0,0.0,0.0,0.0,0.0,0.0,0.0,0.0,0.0,0.0,0.0,0.0,0.0,0.0,0.0,0.0,0.0,0.0,0.0,0.0,0.0,0.0,0.0,0.0,0.0,0.0,0.0,0.8495,0.9428,0.9533,0.9887,1.0463,1.078,1.066,0.0,0.0,0.0,0.0,0.0,0.0,0.0,0.0,0.0,0.0,0.0,0.0,0.0,0.0,0.0,0.0,0.0,0.0,0.0,0.0,0.0,0.0,0.0,0.0,0.0,0.0,0.0,0.0,0.0,0.0,0.0,0.0,0.0,0.0,0.0,0.0,0.0,0.0,0.0,0.0,0.0,0.0,0.0,0.0,0.0,0.0,0.0,0.0,0.0,0.0,0.0,0.0,0.0,0.0,0.0,0.0,0.0,0.0,0.0,0.0,0.0,0.0,0.0,0.0,0.0,0.0,0.0,0.0,0.0,0.0,0.0,0.0,0.0,0.0,0.0,0.0,0.0,0.0,0.0,0.0,0.0,0.0,0.0,0.0,0.0,0.0,0.0,0.0,0.0,0.0,0.0,0.0,0.0,0.0,0.0,0.0,0.0,0.0,0.0,0.0,0.0,0.0,0.0,0.0,0.0,0.0,0.0,0.0,0.7038,0.7758,0.7986,0.8072,0.8175,0.9042,0.9677,0.0,0.0,0.0,0.0,0.0,0.0,0.0,0.0,0.0,0.0,0.0,0.0,0.0,0.0,0.0,0.0,0.0,0.0,0.0,0.0,0.0,0.0,0.0,0.0,0.0,0.0,0.0,0.0,0.0,0.0,0.0,0.0,0.0,0.0,0.0,0.0,0.0,0.0,0.0,0.0,0.0,0.0,0.0,0.0,0.0,0.0,0.0,0.0,0.0,0.0,0.0,0.0,0.0,0.0,0.0,0.0,0.0,0.0,0.0,0.0,0.0,0.0,0.0,0.0,0.0,0.0,0.0,0.0,0.0,0.0,0.0,0.0,0.0,0.0,0.0,0.0,0.0,0.0,0.0,0.0,0.0,0.0,0.0,0.0,0.0,0.0,0.0,0.0,0.0,0.0,0.0,0.0,0.0,0.0,0.0,0.0,0.0,0.0,0.0,0.0,0.0,0.0,0.0,0.0,0.0,0.0,0.0,0.0,0.5705,0.6259,0.6407,0.6658,0.7029,0.7988,0.8482,0.0,0.0,0.0,0.0,0.0,0.0,0.0,0.0,0.0,0.0,0.0,0.0,0.0,0.0,0.0,0.0,0.0,0.0,0.0,0.0,0.0,0.0,0.0,0.0,0.0,0.0,0.0,0.0,0.0,0.0,0.0,0.0,0.0,0.0,0.0,0.0,0.0,0.0,0.0,0.0,0.0,0.0,0.0,0.0,0.0,0.0,0.0,0.0,-0.7341,0.0,0.0,0.0,0.0,0.0,0.0,0.0,0.0,0.0,0.0,0.0,0.0,0.0,0.0,0.0,0.0,0.0,0.0,0.0,0.0,0.0,0.0,0.0,0.0,0.0,0.0,0.0,0.0,0.0,0.0,0.0,0.0,0.0,0.0,0.0,0.0,0.0,0.0,0.0,0.0,0.0,0.0,0.0,0.0,0.0,0.0,0.0,0.0,0.0,0.0,0.0,0.0,0.0,0.0,0.0,0.0,0.0,0.0,0.0,0.4275,0.4756,0.4945,0.5204,0.5575,0.6188,0.6754,0.0,0.0,0.0,0.0,0.0,0.0,0.0,0.0,0.0,0.0,0.0,0.0,0.0,0.0,0.0,0.0,0.0,0.0,0.0,0.0,0.0,0.0,0.0,0.0,0.0,0.0,0.0,0.0,0.0,0.0,0.0,0.0,0.0,0.0,0.0,0.0,0.0,0.0,0.0,0.0,0.0,0.0,0.0,0.0,0.0,0.0,0.0,0.0,0.0,0.0,0.0,0.0,0.0,0.0,0.0,0.0,0.0,0.0,0.0,0.0,0.0,0.0,0.0,0.0,0.0,0.0,0.0,0.0,0.0,0.0,0.0,0.0,0.0,0.0,0.0,0.0,0.0,0.0,0.0,0.0,0.0,0.0,0.0,0.0,0.0,0.0,0.0,0.0,0.0,0.0,0.0,0.0,0.0,0.0,0.0,0.0,0.0,0.0,0.0,0.0,0.0,0.0,0.0,0.0,0.0,0.0,0.0,0.2505,0.2829,0.3322,0.3553,0.3776,0.3988,0.4202,0.4824,0.5945,0.0,0.0,0.0,0.0,0.0,0.0,0.0,0.0,0.0,0.0,0.0,0.0,0.0,0.0,0.0,0.0,0.0,0.0,0.0,0.0,0.0,0.0,0.0,0.0,0.0,0.0,0.0,0.0,0.0,0.0,0.0,0.0,0.0,0.0,0.0,0.0,0.0,0.0,-1.0299,-1.1607,0.0,0.0,0.0,0.0,0.0,0.0,0.0,0.0,-0.9849,0.0,0.0,0.0,0.0,0.0,0.0,0.0,0.0,0.0,0.0,0.0,0.0,0.0,0.0,0.0,0.0,0.0,0.0,0.0,0.0,0.0,0.0,0.0,0.0,0.0,0.0,0.0,0.0,0.0,0.0,0.0,0.0,0.0,0.0,0.0,0.0,0.0,0.0,0.0,0.0,0.0,0.0,0.0,0.0,0.0,0.0,0.0,0.0,0.0,0.0,0.0,0.0,0.0,0.0,0.0,0.0,0.0741,0.1059,0.1547,0.2139,0.2498,0.2676,0.2711,0.2845,0.3201,0.3787,0.0,0.0,0.0,0.0,0.0,0.0,0.0,0.0,0.0,0.0,0.0,0.0,0.0,0.0,0.0,0.0,0.0,0.0,0.0,0.0,0.0,0.0,0.0,0.0,0.0,0.0,0.0,0.0,0.0,0.0,0.0,0.0,0.0,0.0,0.0,0.0,0.0,0.0,0.0,-1.3275,-1.3632,0.0,0.0,0.0,0.0,0.0,0.0,0.0,0.0,-0.9748,0.0,0.0,0.0,0.0,0.0,0.0,0.0,0.0,0.0,0.0,0.0,0.0,0.0,0.0,0.0,0.0,0.0,0.0,0.0,0.0,0.0,0.0,0.0,0.0,0.0,0.0,0.0,0.0,0.0,0.0,0.0,0.0,0.0,0.0,0.0,0.0,0.0,0.0,0.0,0.0,0.0,0.0,0.0,0.0,0.0,0.0,0.0,0.0,0.0,0.0,0.0,0.0,0.0,0.0,0.0,-0.1058,-0.0554,-0.0044,0.0534,0.0803,0.1025,0.1245,0.1334,0.1453,0.0,0.0,0.0,0.0,0.0,0.0,0.0,0.0,0.0,0.0,0.0,0.0,0.0,0.0,0.0,0.0,0.0,0.0,0.0,0.0,0.0,0.0,0.0,0.0,0.0,0.0,0.0,0.0,0.0,0.0,0.0,0.0,0.0,0.0,0.0,0.0,0.0,0.0,0.0,0.0,-1.3685,-1.3978,-1.394,0.0,0.0,0.0,0.0,0.0,0.0,-1.1242,-1.0637,0.0,0.0,0.0,0.0,0.0,0.0,0.0,0.0,0.0,0.0,0.0,0.0,0.0,0.0,0.0,0.0,0.0,0.0,0.0,0.0,0.0,0.0,0.0,0.0,0.0,0.0,0.0,0.0,0.0,0.0,0.0,0.0,0.0,0.0,0.0,0.0,0.0,0.0,0.0,0.0,0.0,0.0,0.0,0.0,0.0,0.0,0.0,0.0,0.0,0.0,0.0,0.0,0.0,0.0,0.0,-0.2696,-0.2171,-0.1645,-0.1201,-0.0936,-0.0713,-0.0489,-0.0489,-0.0428,0.0,0.0,0.0,0.0,0.0,0.0,0.0,0.0,0.0,0.0,0.0,0.0,0.0,0.0,0.0,0.0,0.0,0.0,0.0,0.0,0.0,0.0,0.0,0.0,0.0,0.0,0.0,0.0,0.0,0.0,0.0,0.0,0.0,0.0,0.0,0.0,0.0,0.0,0.0,0.0,0.0,-1.4363,-1.4886,-1.4443,0.0,0.0,0.0,0.0,-1.295,-1.2201,0.0,0.0,0.0,0.0,0.0,0.0,0.0,0.0,0.0,0.0,0.0,0.0,0.0,0.0,0.0,0.0,0.0,0.0,0.0,0.0,0.0,0.0,0.0,0.0,0.0,0.0,0.0,0.0,0.0,0.0,0.0,0.0,0.0,0.0,0.0,0.0,0.0,0.0,0.0,0.0,0.0,0.0,0.0,0.0,0.0,0.0,0.0,0.0,0.0,0.0,0.0,0.0,0.0,0.0,0.0,0.0,-0.376,-0.3638,-0.3364,-0.2842,-0.2528,-0.2448,-0.2729,-0.2851,-0.2588,0.0,0.0,0.0,0.0,0.0,0.0,0.0,0.0,0.0,0.0,0.0,0.0,0.0,0.0,0.0,0.0,0.0,0.0,0.0,0.0,0.0,0.0,0.0,0.0,0.0,0.0,0.0,0.0,0.0,0.0,0.0,0.0,0.0,0.0,0.0,0.0,0.0,0.0,0.0,0.0,0.0,-1.5458,-1.5421,-1.5411,-1.5393,0.0,0.0,-1.4507,-1.3556,-1.3024,0.0,0.0,0.0,0.0,0.0,0.0,0.0,0.0,0.0,0.0,0.0,0.0,0.0,0.0,0.0,0.0,0.0,0.0,0.0,0.0,0.0,0.0,0.0,0.0,0.0,0.0,0.0,0.0,0.0,0.0,0.0,0.0,0.0,0.0,0.0,0.0,0.0,0.0,0.0,0.0,0.0,0.0,0.0,0.0,0.0,0.0,0.0,0.0,0.0,0.0,0.0,0.0,0.0,0.0,0.0,-0.5615,-0.5174,-0.5321,-0.5131,-0.466,-0.4351,-0.4231,-0.4331,-0.4535,-0.4369,0.0,0.0,0.0,0.0,0.0,0.0,0.0,0.0,0.0,0.0,0.0,0.0,0.0,0.0,0.0,0.0,0.0,0.0,0.0,0.0,0.0,0.0,0.0,0.0,0.0,0.0,0.0,0.0,0.0,0.0,0.0,0.0,0.0,0.0,0.0,0.0,0.0,0.0,0.0,0.0,0.0,0.0,-1.5987,-1.6011,0.0,0.0,0.0,-1.4738,-1.3996,0.0,0.0,0.0,0.0,0.0,0.0,0.0,0.0,0.0,0.0,0.0,0.0,0.0,0.0,0.0,0.0,0.0,0.0,0.0,0.0,0.0,0.0,0.0,0.0,0.0,0.0,0.0,0.0,0.0,0.0,0.0,0.0,0.0,0.0,0.0,0.0,0.0,0.0,0.0,0.0,0.0,0.0,0.0,0.0,0.0,0.0,0.0,0.0,0.0,0.0,0.0,0.0,0.0,0.0,0.0,0.0,0.0,-0.664,-0.6935,-0.6906,-0.6526,-0.6265,-0.6138,-0.609,-0.6289,0.0,0.0,0.0,0.0,0.0,0.0,0.0,0.0,0.0,0.0,0.0,0.0,0.0,0.0,0.0,0.0,0.0,0.0,0.0,0.0,0.0,0.0,0.0,0.0,0.0,0.0,0.0,-0.8948,0.0,0.0,0.0,0.0,0.0,0.0,0.0,0.0,0.0,0.0,0.0,0.0,0.0,0.0,-1.6504,-1.6737,-1.6592,-1.6342,0.0,0.0,-1.5149,-1.4516,-1.3788,-1.3066,0.0,0.0,0.0,0.0,0.0,0.0,0.0,0.0,0.0,0.0,0.0,0.0,0.0,0.0,0.0,0.0,0.0,0.0,0.0,0.0,0.0,0.0,0.0,0.0,0.0,0.0,0.0,0.0,0.0,0.0,0.0,0.0,0.0,0.0,0.0,0.0,0.0,0.0,0.0,0.0,0.0,0.0,0.0,0.0,0.0,0.0,0.0,0.0,0.0,0.0,0.0,0.0,0.0,0.0,0.0,-0.8105,-0.8511,-0.8629,-0.8419,-0.8254,-0.8221,-0.8213,-0.8447,-0.8445,0.0,0.0,0.0,0.0,0.0,0.0,0.0,0.0,0.0,0.0,0.0,0.0,0.0,0.0,0.0,0.0,0.0,0.0,0.0,0.0,0.0,0.0,0.0,0.0,0.0,0.0,0.0,0.0,0.0,0.0,0.0,0.0,0.0,0.0,0.0,0.0,0.0,0.0,0.0,0.0,0.0,-1.7249,-1.7733,-1.7279,-1.6855,0.0,0.0,-1.6027,-1.5193,-1.4605,-1.3996,-1.3,0.0,0.0,0.0,0.0,0.0,0.0,0.0,0.0,0.0,0.0,0.0,0.0,0.0,0.0,0.0,0.0,0.0,0.0,0.0,0.0,0.0,0.0,0.0,0.0,0.0,0.0,0.0,0.0,0.0,0.0,0.0,0.0,0.0,0.0,0.0,0.0,0.0,0.0,0.0,0.0,0.0,0.0,0.0,0.0,0.0,0.0,0.0,0.0,0.0,0.0,0.0,0.0,0.0,-0.9783,-0.9488,-1.0174,-1.0447,-1.0318,-1.0303,-1.0326,-1.0381,-1.0767,-1.0746,0.0,0.0,0.0,0.0,0.0,0.0,0.0,0.0,0.0,0.0,0.0,0.0,0.0,0.0,0.0,0.0,0.0,0.0,0.0,0.0,0.0,0.0,0.0,0.0,0.0,0.0,0.0,0.0,-1.3481,-1.4215,-1.5087,0.0,0.0,0.0,0.0,0.0,0.0,0.0,0.0,0.0,0.0,-1.8022,-1.8247,-1.8014,0.0,0.0,-1.7636,-1.7026,-1.6032,-1.5318,-1.4549,-1.3531,-1.2764,0.0,0.0,0.0,0.0,0.0,0.0,0.0,0.0,0.0,0.0,0.0,0.0,0.0,0.0,0.0,0.0,0.0,0.0,0.0,0.0,0.0,0.0,0.0,0.0,0.0,0.0,0.0,0.0,0.0,0.0,0.0,0.0,0.0,0.0,0.0,0.0,0.0,0.0,0.0,0.0,0.0,0.0,0.0,0.0,0.0,0.0,0.0,0.0,0.0,0.0,0.0,0.0,-1.1412,-1.1195,-1.188,-1.2336,-1.249,-1.2401,-1.2504,-1.2838,-1.3138,-1.3028,0.0,0.0,0.0,0.0,0.0,0.0,0.0,0.0,0.0,0.0,0.0,0.0,0.0,0.0,0.0,0.0,0.0,0.0,0.0,0.0,0.0,0.0,0.0,0.0,0.0,0.0,0.0,0.0,-1.4284,-1.4949,-1.6109,0.0,0.0,0.0,0.0,0.0,0.0,0.0,0.0,0.0,0.0,-1.8383,-1.8544,-1.8437,-1.8321,-1.8378,-1.8131,-1.7601,-1.6544,-1.5835,-1.5068,-1.4077,0.0,0.0,0.0,0.0,0.0,0.0,0.0,0.0,0.0,0.0,0.0,0.0,0.0,0.0,0.0,0.0,0.0,0.0,0.0,0.0,0.0,0.0,0.0,0.0,0.0,0.0,0.0,0.0,0.0,0.0,-0.912,0.0,0.0,0.0,0.0,0.0,0.0,0.0,0.0,0.0,0.0,0.0,0.0,0.0,0.0,0.0,0.0,0.0,0.0,0.0,0.0,0.0,0.0,-1.337,-1.3242,-1.3711,-1.4296,-1.499,-1.4527,-1.4693,-1.5636,-1.5419,-1.524,-1.5184,0.0,0.0,0.0,0.0,0.0,0.0,0.0,0.0,0.0,0.0,0.0,0.0,0.0,0.0,0.0,0.0,0.0,0.0,0.0,0.0,0.0,0.0,0.0,0.0,0.0,0.0,-1.384,-1.5029,-1.6088,0.0,0.0,0.0,0.0,0.0,0.0,0.0,0.0,0.0,0.0,-1.8409,-1.8148,-1.87,-1.8352,-1.8087,-1.811,-1.7979,-1.7483,-1.658,-1.6091,-1.5535,0.0,0.0,0.0,0.0,0.0,0.0,0.0,0.0,0.0,0.0,0.0,0.0,0.0,0.0,0.0,0.0,0.0,0.0,0.0,0.0,0.0,0.0,0.0,0.0,0.0,0.0,0.0,-1.188,-1.193,0.0,0.0,0.0,0.0,0.0,0.0,0.0,0.0,0.0,0.0,0.0,-1.6006,-1.6584,0.0,0.0,0.0,0.0,0.0,0.0,0.0,0.0,0.0,0.0,0.0,0.0,-1.4683,-1.4675,-1.5709,-1.6423,-1.6765,-1.678,-1.7013,-1.7515,-1.7164,-1.6705,-1.6187,0.0,0.0,0.0,0.0,0.0,0.0,0.0,0.0,0.0,0.0,0.0,0.0,0.0,0.0,0.0,0.0,0.0,0.0,0.0,0.0,0.0,0.0,0.0,0.0,0.0,-1.4062,0.0,0.0,0.0,0.0,0.0,0.0,0.0,0.0,0.0,0.0,0.0,-1.8701,-1.8556,-1.8721,-1.8904,-1.9145,-1.9002,-1.8939,0.0,0.0,0.0,0.0,0.0,0.0,0.0,0.0,0.0,0.0,0.0,0.0,0.0,0.0,-0.9848,-0.9594,-0.9278,-0.9012,-0.8696,0.0,0.0,0.0,0.0,0.0,0.0,0.0,0.0,0.0,0.0,0.0,0.0,0.0,0.0,-1.3916,0.0,-1.4267,0.0,0.0,0.0,0.0,0.0,0.0,0.0,0.0,-1.7027,-1.7539,-1.8119,-1.8683,-1.9102,0.0,-1.9202,-1.8297,0.0,0.0,0.0,0.0,0.0,0.0,0.0,0.0,-1.6343,-1.6651,-1.7584,-1.8435,-1.9076,-1.9107,-1.9221,-1.9391,-1.8788,-1.8116,-1.7378,-1.6795,-1.5895,0.0,0.0,0.0,0.0,0.0,0.0,0.0,0.0,0.0,0.0,0.0,0.0,0.0,0.0,0.0,0.0,0.0,0.0,0.0,0.0,0.0,0.0,0.0,-1.4814,0.0,0.0,0.0,0.0,0.0,0.0,0.0,0.0,0.0,-1.8553,-1.874,-1.8883,-1.8724,-1.8908,-1.9101,-1.939,0.0,0.0,0.0,0.0,0.0,0.0,0.0,-1.5886,-1.4758,-1.4015,-1.342,-1.303,-1.2488,-1.1898,-1.124,0.0,0.0,-1.0006,-0.9586,-0.9259,-0.9032,-0.8616,-0.8294,-0.8294,-0.8194,-0.8086,0.0,0.0,0.0,0.0,0.0,0.0,0.0,0.0,-1.5039,-1.5013,0.0,-1.5454,0.0,0.0,0.0,0.0,0.0,0.0,0.0,0.0,-1.9359,-1.9463,-1.9523,-1.9784,-2.0027,-2.0201,-2.0465,-2.0683,-2.0661,-1.8179,0.0,0.0,0.0,0.0,0.0,0.0,-1.8408,-1.9143,-1.9427,-2.0325,-2.184,-2.1489,-2.1272,-2.1248,-2.0239,-1.94,-1.8805,-1.7984,-1.7215,-1.6405,-1.4751,0.0,0.0,0.0,0.0,0.0,0.0,0.0,0.0,0.0,0.0,0.0,0.0,0.0,0.0,0.0,0.0,0.0,0.0,0.0,0.0,-1.455,0.0,0.0,0.0,0.0,0.0,0.0,0.0,0.0,0.0,0.0,-1.9302,-1.8816,-1.8673,-1.9324,0.0,0.0,0.0,0.0,-1.9033,-1.8996,-1.8963,-1.8388,-1.6913,-1.6417,-1.572,-1.4243,0.0,0.0,-1.2627,-1.2524,-1.2314,-1.1764,-1.1534,-1.1139,-1.0136,-0.957,-0.9233,-0.905,-0.8689,-0.8333,-0.8347,-0.8403,-0.839,-1.5253,0.0,0.0,0.0,0.0,-1.6421,-1.6894,-1.7483,-1.7789,-1.7852,-1.7792,-1.818,0.0,0.0,0.0,0.0,0.0,0.0,-1.9866,-2.0701,-2.0744,-2.1094,-2.1693,-2.1842,-2.2062,-2.2306,-2.257,-2.2506,-2.2135,-2.1505,-2.0633,-1.9566,0.0,0.0,0.0,0.0,-2.0776,-2.1105,-2.1757,-2.2388,-2.2953,-2.2941,-2.2422,-2.1391,-2.051,-1.9667,-1.8839,-1.7975,-1.7113,-1.6218,-1.5078,0.0,0.0,0.0,0.0,0.0,0.0,0.0,0.0,0.0,0.0,0.0,0.0,0.0,0.0,0.0,0.0,0.0,0.0,0.0,-1.461,-1.6025,-1.7035,0.0,0.0,0.0,0.0,0.0,0.0,0.0,0.0,0.0,-1.8795,-1.8785,-1.8709,0.0,0.0,-1.8948,-1.8793,-1.9132,-1.9204,-1.8509,0.0,0.0,0.0,-1.5775,-1.505,-1.4296,-1.3665,-1.3022,-1.2578,-1.2529,-1.2323,-1.1778,-1.1528,-1.1195,-1.0714,-1.026,-0.9961,-0.971,-0.93,-0.8949,-0.8959,-0.883,-0.8684,-1.7517,-1.6585,-1.6749,-1.7221,-1.7856,-1.813,-1.8571,-1.9139,-1.954,-1.9596,-1.9497,-1.9949,-2.0126,-2.0085,-2.0384,0.0,0.0,0.0,-2.1414,-2.207,-2.2129,-2.2602,-2.3409,-2.364,-2.4004,-2.4531,-2.4777,-2.4577,-2.3976,-2.4181,-2.373,-2.2655,0.0,0.0,-2.185,-2.1956,-2.2247,-2.2699,-2.3238,-2.3722,-2.4143,-2.3585,-2.2854,-2.194,-2.0759,-1.9833,-1.9185,-1.7986,-1.7054,-1.6439,-1.5189,-1.4533,0.0,0.0,0.0,0.0,0.0,0.0,0.0,0.0,0.0,0.0,0.0,-1.1587,-1.2342,0.0,0.0,0.0,-1.4427,-1.5318,-1.6065,-1.687,0.0,0.0,0.0,0.0,0.0,0.0,0.0,-1.8943,-1.9063,-1.8927,-1.8454,-1.8503,-1.8541,-1.8317,-1.8532,-1.8598,-1.8335,0.0,-1.8545,-1.7834,-1.7428,-1.6978,-1.6248,-1.5422,-1.4642,-1.3923,-1.34,-1.2939,-1.2578,-1.2529,-1.2328,-1.1832,-1.1473,-1.1221,-1.0922,-1.0518,-1.0158,-0.9999,-0.9577,-0.9208,-0.9204,-0.9012,-0.8808,-1.9366,-1.9028,-1.8879,-1.8951,-1.9163,-1.9304,-1.9548,-1.9862,-2.0553,-2.0582,-2.023,-2.1063,-2.1178,-2.0779,-2.1096,0.0,-2.2265,-2.2317,-2.2683,-2.3291,-2.3405,-2.3894,-2.4676,-2.499,-2.564,-2.655,-2.6831,-2.662,-2.5942,-2.6135,-2.5832,-2.5022,-2.3326,-2.2517,-2.2638,-2.2707,-2.3168,-2.402,-2.4084,-2.4514,-2.5242,-2.3658,-2.2738,-2.2656,-2.0901,-1.9869,-1.962,-1.804,-1.7055,-1.6815,-1.5192,-1.4251,-1.4228,0.0,0.0,0.0,0.0,0.0,0.0,0.0,0.0,0.0,0.0,0.0,0.0,0.0,0.0,0.0,-1.5568,0.0,-1.7309,-1.7305,0.0,0.0,0.0,-1.8985,-1.9339,-1.9664,-1.9623,-1.8917,0.0,0.0,-1.8314,0.0,-1.8208,-1.8295,-1.8079,-1.7894,-1.7934,-1.7767,-1.743,-1.7028,-1.6776,-1.6425,-1.5853,-1.5105,-1.4249,-1.3325,-1.2983,-1.2783,-1.2578,-1.2475,-1.2278,-1.1778,-1.1477,-1.1221,-1.0972,-1.0411,-1.0007,-1.0003,-0.9573,-0.9204,-0.9155,-0.8956,-0.8808,-2.1109,-2.1176,-2.1344,-2.0963,-2.0306,-2.0552,-2.1053,-2.1757,-2.2041,-2.2158,-2.2211,-2.25,-2.2732,-2.2953,-2.3193,-2.3393,-2.3565,-2.3637,-2.3721,-2.3894,-2.3956,-2.4164,-2.4496,-2.525,-2.5839,-2.6248,-2.7048,-2.7067,-2.6384,-2.6468,-2.6115,-2.5385,-2.4938,-2.4682,-2.4626,-2.4681,-2.4846,-2.5125,-2.5138,-2.5182,-2.5248,-2.3576,-2.2556,-2.2388,-2.0601,-1.9516,-1.9322,-1.8179,-1.7206,-1.6458,-1.5345,-1.4502,-1.4,-1.355,0.0,0.0,0.0,0.0,0.0,0.0,0.0,0.0,0.0,-1.3555,-1.4305,0.0,-1.5291,0.0,-1.6972,-1.7538,-1.714,-1.8014,0.0,0.0,-1.9143,-1.949,-1.9866,-1.9703,-1.9678,-1.9888,-1.9551,-1.8997,-1.8275,-1.8043,-1.7842,-1.7534,-1.7744,-1.7753,-1.7401,-1.7486,-1.7352,-1.658,-1.6151,-1.5674,-1.4979,-1.4137,-1.3417,-1.3138,-1.2881,-1.2681,-1.2529,-1.2323,-1.2076,-1.1773,-1.1372,-1.112,-1.0922,-1.0407,-1.0051,-0.9951,-0.9577,-0.9204,-0.9204,-0.9012,-0.8808,-2.2194,-2.2359,-2.2556,-2.2393,-2.1936,-2.1919,-2.2237,-2.2798,-2.2875,-2.3025,-2.3224,-2.3405,-2.3669,-2.3964,-2.4155,-2.4257,-2.4274,-2.4336,-2.4379,-2.442,-2.4484,-2.4745,-2.5218,-2.5787,-2.6348,-2.6886,-2.7438,-2.7363,-2.6664,-2.6673,-2.6292,-2.5554,-2.5517,-2.5449,-2.536,-2.5418,-2.5449,-2.545,-2.5368,-2.5234,-2.5024,-2.3315,-2.2241,-2.1947,-2.0202,-1.9107,-1.8833,-1.795,-1.7153,-1.6553,-1.5349,-1.4366,-1.3674,-1.3446,-1.3286,0.0,0.0,0.0,0.0,0.0,0.0,0.0,0.0,0.0,0.0,0.0,-1.6541,-1.753,-1.8465,-1.8842,-1.8415,-1.8992,-1.9404,-1.9531,-1.9692,-1.9911,-2.0289,-1.9975,-1.9873,-2.0112,-1.9486,-1.8777,-1.8156,-1.7916,-1.7625,-1.7164,-1.7267,-1.7212,-1.6783,-1.677,-1.6554,-1.5922,-1.5486,-1.4968,-1.4192,-1.3467,-1.3012,-1.2973,-1.2832,-1.2676,-1.2529,-1.2274,-1.2031,-1.1732,-1.1372,-1.1023,-1.0816,-1.0364,-0.9995,-0.9844,-0.9524,-0.9204,-0.9159,-0.9012,-0.8808,-2.2914,-2.3036,-2.3156,-2.3374,-2.3566,-2.3224,-2.3203,-2.3385,-2.3401,-2.3517,-2.3729,-2.405,-2.4247,-2.436,-2.4522,-2.4598,-2.4665,-2.4728,-2.4799,-2.4872,-2.492,-2.538,-2.6087,-2.6331,-2.6891,-2.7706,-2.7855,-2.7546,-2.6876,-2.6803,-2.6373,-2.5597,-2.5477,-2.5424,-2.5359,-2.5385,-2.5391,-2.534,-2.5139,-2.4958,-2.4727,-2.307,-2.1965,-2.1487,-1.9876,-1.8778,-1.8356,-1.7596,-1.7067,-1.6783,-1.5437,-1.4279,-1.3471,-1.3372,-1.3295,0.0,-1.3859,0.0,0.0,0.0,0.0,0.0,0.0,0.0,0.0,-1.6641,-1.7743,-1.9255,-1.9898,-2.0187,-2.0052,-1.988,-1.9981,-2.0471,-2.0353,-2.032,-2.0518,-2.0273,-2.0045,-1.9935,-1.925,-1.8553,-1.7996,-1.776,-1.7508,-1.7086,-1.6823,-1.6597,-1.6212,-1.5935,-1.5691,-1.5306,-1.4903,-1.4375,-1.3663,-1.3147,-1.2925,-1.2881,-1.2779,-1.2632,-1.2529,-1.2229,-1.1981,-1.1728,-1.1322,-1.0972,-1.0718,-1.0308,-0.9943,-0.9847,-0.948,-0.9208,-0.9152,-0.9012,-0.8808,-2.3599,-2.3651,-2.3824,-2.3972,-2.4069,-2.4099,-2.4031,-2.3876,-2.3921,-2.407,-2.4254,-2.4477,-2.4629,-2.4718,-2.4839,-2.4927,-2.5005,-2.5072,-2.5118,-2.5139,-2.5243,-2.5379,-2.5604,-2.6361,-2.6933,-2.7334,-2.7829,-2.7744,-2.7118,-2.6854,-2.6258,-2.5386,-2.528,-2.5187,-2.5075,0.0,0.0,0.0,-2.4869,-2.4646,-2.4355,-2.3223,-2.2117,-2.1126,-1.9991,0.0,-1.813,-1.7808,-1.7282,-1.6472,-1.6115,0.0,0.0,0.0,0.0,0.0,0.0,0.0,0.0,0.0,0.0,0.0,-1.606,-1.6105,-1.6366,-1.7177,-1.8271,-1.9738,-2.0854,-2.1,-1.9895,-2.0094,-2.0233,-2.0205,-2.0503,-2.0669,-2.047,-2.0185,-1.9884,-1.9487,-1.9064,-1.8553,-1.7989,-1.77,-1.7406,-1.7044,-1.6705,-1.6355,-1.6088,-1.5836,-1.5576,-1.5165,-1.4702,-1.4186,-1.3505,-1.3109,-1.2886,-1.2886,-1.2686,-1.2524,-1.2475,-1.2071,-1.1773,-1.1669,-1.1272,-1.0871,-1.0726,-1.0312,-0.9947,-0.9844,-0.948,-0.9204,-0.9208,-0.9008,-0.8808,-2.4164,0.0,-2.4317,-2.4431,0.0,-2.4607,-2.4613,-2.4535,-2.4446,-2.4519,-2.47,-2.4853,-2.4955,-2.5057,-2.5146,-2.5235,-2.5312,-2.5316,-2.5345,-2.535,-2.5444,-2.5489,-2.5502,-2.5976,-2.6249,-2.6364,-2.6635,-2.6588,-2.6262,-2.602,-2.5658,-2.5155,-2.5003,-2.4889,-2.4752,-2.4482,-2.4442,-2.4613,-2.4444,-2.4219,-2.3909,-2.262,-2.1518,-2.0719,0.0,0.0,0.0,0.0,0.0,0.0,0.0,0.0,0.0,0.0,0.0,-1.4671,-1.5096,-1.5474,-1.5718,-1.5942,-1.6243,-1.6708,-1.7084,-1.7369,-1.7526,-1.8298,-1.9236,-2.03,-2.1205,-2.1419,-2.0726,-2.0773,-2.0736,-2.0535,-2.063,-2.0579,-2.0254,-1.9919,-1.9567,-1.9213,-1.8815,-1.8351,-1.7814,-1.7577,-1.7288,-1.6918,-1.662,-1.6269,-1.5925,-1.5665,-1.53,-1.4777,-1.4419,-1.4004,-1.342,-1.3094,-1.2886,-1.2779,-1.2622,-1.248,-1.2328,-1.1972,-1.1673,-1.1519,-1.1175,-1.082,-1.0518,-1.0209,-0.9899,-0.9629,-0.9372,-0.9155,-0.9103,-0.8962,-0.8808,-2.4659,-2.4694,-2.4723,-2.4794,-2.4943,-2.4974,-2.5075,-2.515,0.0,0.0,0.0,-2.5146,-2.5245,-2.5325,-2.5408,-2.5461,-2.551,-2.5517,-2.5518,-2.5513,-2.5577,-2.5605,-2.5573,-2.5571,-2.5518,-2.5459,-2.5376,-2.5289,-2.5197,-2.5088,-2.4986,-2.4873,-2.47,-2.4514,-2.4326,-2.3975,-2.3864,-2.3947,-2.3886,-2.3759,-2.3473,-2.2083,-2.103,-2.0325,-1.8935,-1.7887,-1.7248,-1.715,-1.7035,-1.6826,-1.6254,-1.5893,-1.5819,-1.52,-1.4853,-1.4948,-1.5502,-1.5901,-1.604,-1.6601,-1.7054,-1.7301,-1.8109,-1.8708,-1.8916,-1.9459,-2.0065,-2.0837,-2.1267,-2.1528,-2.152,-2.1325,-2.1111,-2.0836,-2.062,-2.0331,-1.999,-1.9632,-1.9332,-1.9071,-1.8623,-1.8108,-1.7679,-1.7461,-1.7177,-1.6761,-1.6491,-1.6132,-1.5659,-1.5345,-1.4943,-1.4368,-1.414,-1.3821,-1.3319,-1.305,-1.2881,-1.2735,-1.2583,-1.2426,-1.2126,-1.1873,-1.1623,-1.1372,-1.107,-1.0718,-1.0371,-1.0162,-0.9892,-0.9517,-0.9316,-0.9162,-0.9008,-0.891,-0.8808,-2.5107,-2.5118,-2.5125,-2.5128,-2.5158,-2.5282,-2.5365,-2.5432,-2.5293,-2.5264,-2.5336,-2.5416,-2.5459,-2.5478,-2.5536,-2.5574,-2.5573,-2.5579,-2.5585,0.0,-2.5601,-2.5577,-2.5511,-2.5463,-2.54,-2.5323,-2.5207,-2.5023,-2.48,-2.4752,-2.4651,-2.4491,-2.4337,-2.4089,-2.375,-2.3495,-2.3274,-2.3082,-2.3277,-2.3309,-2.3074,-2.2564,-2.155,-2.0027,-1.9527,-1.8539,-1.7025,-1.6884,-1.6763,-1.6573,-1.646,-1.6352,-1.6288,-1.6179,-1.6121,-1.6163,-1.6305,-1.642,-1.6483,-1.6664,-1.7048,-1.7805,-1.9049,-1.9954,-2.0193,-1.9836,-2.0091,-2.116,-2.1245,-2.1199,-2.1247,-2.103,-2.0786,-2.0595,-2.0426,-2.0158,-1.9805,-1.956,-1.9258,-1.8898,-1.8539,-1.8128,-1.774,-1.7406,-1.708,-1.6712,-1.6312,-1.5818,-1.5226,-1.484,-1.4569,-1.4274,-1.4098,-1.3768,-1.3314,-1.3002,-1.2827,-1.273,-1.2578,-1.2421,-1.2126,-1.1918,-1.1665,-1.1377,-1.0968,-1.062,-1.0312,-1.0106,-0.984,-0.9465,-0.9256,-0.9162,-0.9012,-0.886,-0.8808,-2.5753,-2.5398,-2.5367,-2.5383,-2.5426,-2.5486,-2.5532,-2.5546,-2.5492,-2.5474,-2.5506,-2.5542,-2.5553,-2.5562,-2.559,-2.5605,-2.5602,-2.5578,-2.5548,-2.5542,-2.5515,-2.5457,-2.5383,-2.5293,-2.5182,-2.5088,-2.4943,-2.4776,-2.4557,-2.4456,-2.4338,-2.4117,-2.384,-2.3571,-2.3274,-2.3026,-2.2807,-2.2633,-2.2833,-2.2807,-2.2573,-2.192,-2.0958,-1.9646,-1.9009,-1.8068,-1.6777,-1.6678,-1.6535,-1.6363,-1.632,-1.6281,-1.6199,-1.6207,-1.6269,-1.6289,-1.6355,-1.6452,-1.6541,-1.7049,-1.7804,-1.8843,-1.9572,-2.0244,-2.0778,-2.0727,-2.0868,-2.1236,-2.1071,-2.0941,-2.0966,-2.086,-2.0687,-2.0392,-2.0235,-1.9998,-1.9669,-1.9339,-1.9055,-1.8767,-1.8404,-1.7995,-1.7611,-1.7323,-1.6947,-1.6571,-1.6007,-1.5412,-1.4954,-1.4588,-1.4337,-1.4098,-1.3905,-1.3615,-1.3261,-1.3055,-1.2827,-1.2632,-1.2529,-1.2328,-1.1972,-1.1814,-1.1615,-1.1171,-1.082,-1.0518,-1.0217,-1.0007,-0.974,-0.942,-0.9263,-0.911,-0.8956,-0.886,-0.8808,-2.6569,-2.5819,-2.5822,-2.5733,-2.562,-2.5605,-2.5603,-2.5605,-2.5604,-2.5596,-2.5571,-2.5584,-2.5605,-2.5603,-2.5583,-2.5577,-2.555,-2.5488,-2.5456,-2.5425,-2.535,-2.5274,-2.5212,-2.5061,-2.4932,-2.4785,-2.4639,-2.4467,-2.4284,-2.4135,-2.393,-2.3689,-2.3348,-2.306,-2.2885,-2.2606,-2.2417,-2.2268,-2.2281,-2.2254,-2.2071,-2.1333,-2.0492,-1.952,-1.8812,-1.7964,-1.7062,-1.6952,-1.6822,-1.664,-1.6627,-1.6554,-1.646,-1.6489,-1.6562,-1.6598,-1.6653,-1.6774,-1.6964,-1.7706,-1.8602,-1.9633,-1.9917,-2.0305,-2.0902,-2.123,-2.1333,-2.1103,-2.0868,-2.0728,-2.0728,-2.0703,-2.0561,-2.0304,-2.0068,-1.9812,-1.9574,-1.922,-1.891,-1.862,-1.824,-1.7882,-1.7529,-1.7205,-1.6784,-1.6275,-1.5709,-1.521,-1.4869,-1.4449,-1.4134,-1.391,-1.3726,-1.3478,-1.3218,-1.2997,-1.2769,-1.2524,-1.2431,-1.2229,-1.1873,-1.1769,-1.1514,-1.1019,-1.0616,-1.0312,-1.0054,-0.984,-0.9629,-0.9312,-0.9159,-0.9061,-0.885,-0.8808,-0.8808,-2.7547,-2.6823,-2.6732,-2.6337,-2.5693,-2.5619,-2.5603,-2.56,-2.5605,-2.5547,-2.5521,-2.558,-2.56,-2.5593,-2.5544,-2.5476,-2.5427,-2.5352,-2.5293,-2.5215,-2.5091,-2.4996,-2.4929,-2.4799,-2.4623,-2.445,-2.4302,-2.4145,-2.3948,-2.3744,-2.3495,-2.3175,-2.2876,-2.2694,-2.2517,-2.229,-2.2036,-2.1784,-2.1601,-2.1601,-2.1746,-2.1475,-2.0864,-1.989,-1.9718,-1.9193,-1.8213,-1.8123,-1.8007,-1.7922,-1.7837,-1.7804,-1.7789,-1.7804,-1.7804,-1.7813,-1.7876,-1.8007,-1.823,-1.8679,-1.9153,-1.9513,-2.0091,-2.0467,-2.0603,-2.0753,-2.086,-2.0794,-2.062,-2.0543,-2.0535,-2.0433,-2.0296,-2.0123,-1.9897,-1.9617,-1.9376,-1.9123,-1.8834,-1.8397,-1.8161,-1.7841,-1.7474,-1.7093,-1.6577,-1.5937,-1.5531,-1.5125,-1.4702,-1.4368,-1.4035,-1.3763,-1.3536,-1.3392,-1.318,-1.289,-1.2662,-1.2529,-1.2283,-1.2031,-1.1828,-1.1673,-1.1528,-1.0972,-1.0411,-1.0106,-0.9947,-0.9781,-0.9517,-0.926,-0.9106,-0.8952,-0.8804,-0.8808,-0.8808,-2.8405,-2.7563,-2.7061,-2.6364,-2.5629,-2.5545,-2.5517,-2.5489,-2.5441,-2.5385,-2.5331,-2.5324,-2.5362,-2.5473,-2.5358,-2.5284,-2.5216,-2.512,-2.5027,-2.4943,-2.478,-2.465,-2.4595,-2.4424,-2.4257,-2.4079,-2.3901,-2.3692,-2.3504,-2.3236,-2.2985,-2.2799,-2.249,-2.229,-2.2158,-2.1928,-2.17,-2.1481,-2.1309,-2.1214,-2.1175,-2.1087,-2.0607,-1.983,-1.9617,-1.9146,-1.8362,-1.8176,-1.8066,-1.7925,-1.7908,-1.7851,-1.7834,-1.7851,-1.7868,-1.7891,-1.8273,-1.8551,-1.8757,-1.9341,-1.9769,-1.9955,-2.0237,-2.0433,-2.0501,-2.0587,-2.0603,-2.0551,-2.0433,-2.0399,-2.0399,-2.0331,-2.0185,-1.9897,-1.9741,-1.9523,-1.9228,-1.8972,-1.8673,-1.8365,-1.8009,-1.77,-1.7288,-1.6735,-1.6219,-1.5709,-1.5345,-1.4926,-1.4616,-1.4285,-1.3952,-1.3663,-1.343,-1.3248,-1.3147,-1.2861,-1.2622,-1.2471,-1.2278,-1.2031,-1.1778,-1.1669,-1.1523,-1.0922,-1.0356,-0.9999,-0.9899,-0.9681,-0.9413,-0.9211,-0.9008,-0.8857,-0.8808,-0.8808,-0.8808,-2.9192,-2.8319,-2.7443,-2.6579,-2.5789,-2.5763,-2.5562,-2.5292,-2.5226,-2.5146,-2.5067,-2.5012,-2.5039,-2.5134,-2.5111,-2.5051,-2.4984,-2.4828,-2.4727,-2.4654,-2.4458,-2.4337,-2.4257,-2.4022,-2.386,-2.371,-2.3504,-2.3289,-2.3084,-2.273,-2.2499,-2.239,-2.2121,-2.189,-2.1751,-2.1565,-2.1348,-2.1151,-2.1023,-2.0868,-2.0703,-2.0662,-2.0362,-1.9835,-1.9681,-1.9341,-1.8719,-1.8616,-1.8485,-1.8379,-1.8323,-1.8305,-1.8253,-1.8279,-1.8331,-1.8368,-1.8722,-1.9076,-1.9269,-1.9779,-2.0108,-2.02,-2.0243,-2.0312,-2.0357,-2.0392,-2.0399,-2.032,-2.0235,-2.0243,-2.027,-2.0193,-2.001,-1.9718,-1.956,-1.9347,-1.9108,-1.8819,-1.8542,-1.824,-1.7975,-1.7556,-1.7038,-1.6472,-1.5913,-1.5576,-1.5193,-1.4777,-1.4518,-1.4197,-1.3873,-1.3568,-1.3319,-1.318,-1.307,-1.2822,-1.2578,-1.2377,-1.218,-1.1882,-1.1673,-1.1569,-1.1372,-1.0773,-1.0249,-0.9888,-0.9732,-0.9521,-0.9312,-0.911,-0.8959,-0.8808,-0.8808,-0.8808,-0.8808,-2.9944,-2.9057,-2.8154,-2.7248,-2.6465,-2.6392,-2.5857,-2.5077,-2.4987,-2.4896,-2.4818,-2.4676,-2.4604,-2.4567,-2.4708,-2.477,-2.4689,-2.45,-2.4381,-2.4293,-2.4115,-2.3978,-2.3917,-2.364,-2.3473,-2.3315,-2.3166,-2.2952,-2.2624,-2.2273,-2.2096,-2.2036,-2.1776,-2.1565,-2.1417,-2.1214,-2.1038,-2.0868,-2.0752,-2.0585,-2.0373,-2.0339,-2.0326,-2.0195,-2.0238,-2.007,-1.987,-1.9763,-1.967,-1.9685,-1.9581,-1.9583,-1.957,-1.9583,-1.9546,-1.9647,-1.9641,-1.9692,-1.9864,-1.9902,-1.9925,-1.999,-2.0025,-2.0033,-2.0076,-2.0208,-2.0235,-2.0041,-2.0041,-2.0033,-2.008,-1.9904,-1.9762,-1.9654,-1.9354,-1.9116,-1.8993,-1.8711,-1.8393,-1.8082,-1.7862,-1.7454,-1.6644,-1.6213,-1.5824,-1.5435,-1.5057,-1.4731,-1.4368,-1.4104,-1.3763,-1.3409,-1.3213,-1.3127,-1.292,-1.2725,-1.2431,-1.2229,-1.1977,-1.1678,-1.1477,-1.1221,-1.0977,-1.0616,-1.0039,-0.9721,-0.9618,-0.9417,-0.9162,-0.8959,-0.8857,-0.8808,-0.8808,-0.8808,-0.8808,-2.9716,-2.8861,-2.8514,-2.783,-2.6982,-2.6906,-2.6369,-2.5489,-2.5415,-2.5047,-2.4515,-2.4338,-2.4238,-2.4164,-2.4089,-2.4146,-2.4284,-2.4145,-2.4019,-2.3858,-2.3719,-2.3598,-2.3445,-2.3268,-2.3075,-2.2927,-2.2773,-2.2543,-2.2223,-2.1928,-2.1768,-2.1708,-2.1442,-2.1214,-2.1071,-2.0925,-2.0752,-2.0551,-2.0483,-2.0339,-2.0193,-2.0131,-2.0073,-1.9992,-2.0088,-2.0025,-1.9861,-1.9841,-1.9762,-1.9762,-1.9718,-1.9697,-1.9697,-1.9697,-1.9726,-1.9718,-1.9711,-1.9747,-1.9797,-1.9775,-1.9795,-1.9869,-1.9955,-2.0005,-1.9998,-2.0068,-2.0076,-2.0005,-1.9891,-1.9833,-1.9826,-1.9754,-1.9646,-1.9508,-1.9258,-1.8995,-1.8827,-1.8535,-1.8247,-1.7935,-1.7584,-1.7031,-1.6558,-1.6088,-1.5659,-1.5351,-1.4937,-1.461,-1.4269,-1.3947,-1.3621,-1.3266,-1.3084,-1.291,-1.2666,-1.2578,-1.2426,-1.2126,-1.1877,-1.1628,-1.1372,-1.112,-1.0824,-1.047,-0.9888,-0.9569,-0.9469,-0.9263,-0.9012,-0.891,-0.8808,-0.8808,-0.8808,-0.8808,-0.8808,-2.9539,-2.8985,-2.8928,-2.835,-2.7473,-2.7436,-2.6842,-2.5931,-2.5865,-2.5325,-2.4571,-2.4322,-2.4091,-2.3777,-2.3526,-2.3509,-2.3683,-2.3658,-2.358,-2.3436,-2.3301,-2.3157,-2.3044,-2.2824,-2.2634,-2.249,-2.2296,-2.2061,-2.1794,-2.1556,-2.1458,-2.1419,-2.1127,-2.0901,-2.0786,-2.0628,-2.0475,-2.0304,-2.0243,-2.0123,-2.001,-1.9962,-1.9861,-1.9803,-1.9869,-1.9876,-1.9762,-1.9762,-1.9769,-1.9726,-1.9697,-1.9697,-1.9697,-1.9697,-1.9697,-1.9697,-1.9697,-1.9697,-1.9733,-1.9711,-1.9732,-1.9762,-1.9841,-1.9891,-1.9884,-1.9884,-1.9891,-1.9848,-1.9726,-1.9617,-1.9625,-1.9581,-1.9435,-1.9288,-1.9146,-1.8912,-1.8666,-1.8358,-1.8082,-1.7733,-1.7253,-1.6699,-1.6256,-1.5925,-1.557,-1.521,-1.4846,-1.4529,-1.414,-1.3852,-1.352,-1.3271,-1.3055,-1.2822,-1.2578,-1.2431,-1.2224,-1.1977,-1.1723,-1.1473,-1.1221,-1.0972,-1.0667,-1.0265,-0.9899,-0.958,-0.9319,-0.911,-0.8959,-0.8804,-0.8808,-0.8808,-0.8808,-0.8808,-0.8808,-2.9504,-2.9333,-2.9389,-2.8766,-2.7929,-2.7862,-2.7282,-2.6386,-2.6245,-2.5678,-2.4827,-2.4611,-2.4061,-2.3436,-2.3168,-2.2994,-2.291,-2.3033,-2.3091,-2.3035,-2.2825,-2.2686,-2.2642,-2.2364,-2.2172,-2.2068,-2.1768,-2.1542,-2.1378,-2.1214,-2.1095,-2.103,-2.0818,-2.0644,-2.0486,-2.0365,-2.022,-2.0123,-2.0025,-1.9927,-1.982,-1.9777,-1.9769,-1.9697,-1.969,-1.9726,-1.9726,-1.9718,-1.9726,-1.9733,-1.9697,-1.9697,-1.9697,-1.9697,-1.9697,-1.9697,-1.9697,-1.9697,-1.9697,-1.9726,-1.9726,-1.9733,-1.9726,-1.9733,-1.9726,-1.9733,-1.9733,-1.969,-1.9552,-1.945,-1.9501,-1.9332,-1.9139,-1.9094,-1.895,-1.8728,-1.8496,-1.8214,-1.7882,-1.7523,-1.7044,-1.6362,-1.578,-1.5614,-1.5435,-1.5057,-1.4702,-1.4436,-1.4051,-1.371,-1.3462,-1.3228,-1.2953,-1.2676,-1.248,-1.2283,-1.2026,-1.1773,-1.1523,-1.1272,-1.0968,-1.0718,-1.0462,-1.0106,-0.9695,-0.9375,-0.9162,-0.9008,-0.8906,-0.8808,-0.8808,-0.8808,-0.8808,-0.8808,-0.8808,-2.9045,-2.8925,-2.8915,-2.8649,-2.8191,-2.8166,-2.7565,-2.662,-2.6551,-2.595,-2.5033,-2.4384,-2.3903,-2.3466,-2.283,-2.2465,-2.2383,-2.2292,-2.232,-2.2421,-2.2375,-2.2254,-2.2101,-2.1995,-2.1802,-2.157,-2.134,-2.1191,-2.1039,-2.0901,-2.0769,-2.0669,-2.0501,-2.0373,-2.022,-2.0053,-1.9904,-1.9818,-1.9748,-1.9647,-1.9523,-1.9523,-1.9523,-1.9523,-1.9567,-1.9647,-1.9632,-1.9661,-1.9697,-1.9697,-1.9697,-1.9697,-1.9697,-1.9697,-1.9697,-1.9697,-1.9697,-1.9697,-1.9697,-1.9697,-1.9697,-1.9697,-1.9697,-1.9697,-1.9697,-1.9697,-1.9669,-1.9632,-1.9487,-1.942,-1.9339,-1.9221,-1.9108,-1.9108,-1.8805,-1.8535,-1.8333,-1.7895,-1.7618,-1.7441,-1.6911,-1.6225,-1.5691,-1.5531,-1.5295,-1.4954,-1.4547,-1.4228,-1.3905,-1.3568,-1.3233,-1.3012,-1.2774,-1.2578,-1.2328,-1.2076,-1.1778,-1.1573,-1.1322,-1.112,-1.0765,-1.051,-1.0257,-0.9899,-0.9483,-0.9222,-0.9064,-0.8906,-0.8804,-0.8808,-0.8808,-0.8808,-0.8808,-0.8752,-0.8752,-2.8563,-2.8428,-2.8393,-2.8228,-2.7993,-2.7974,-2.754,-2.6877,-2.6804,-2.621,-2.5308,-2.468,-2.3981,-2.3371,-2.2673,-2.2195,-2.1861,-2.1708,-2.1645,-2.1715,-2.1886,-2.1786,-2.1601,-2.1509,-2.1316,-2.1095,-2.0941,-2.0835,-2.072,-2.0561,-2.0433,-2.0357,-2.0193,-2.0053,-1.9932,-1.9805,-1.9705,-1.9596,-1.9531,-1.9494,-1.9428,-1.9428,-1.9428,-1.9428,-1.9494,-1.9545,-1.9574,-1.964,-1.9661,-1.969,-1.9697,-1.9697,-1.9697,-1.9697,-1.9697,-1.9697,-1.9697,-1.9697,-1.9697,-1.9697,-1.9697,-1.9697,-1.9697,-1.9697,-1.9697,-1.9697,-1.9669,-1.9618,-1.942,-1.9272,-1.9228,-1.9056,-1.8988,-1.8889,-1.8659,-1.8393,-1.8102,-1.7625,-1.7343,-1.7157,-1.6699,-1.6132,-1.5647,-1.534,-1.5108,-1.4829,-1.4455,-1.4077,-1.3752,-1.342,-1.3147,-1.2915,-1.2671,-1.2421,-1.2121,-1.1823,-1.1523,-1.1322,-1.1171,-1.0918,-1.0616,-1.0356,-1.0102,-0.9688,-0.9274,-0.9117,-0.8903,-0.8854,-0.8808,-0.8808,-0.8808,-0.8808,-0.8804,-0.8745,-0.8689,-2.8092,-2.7851,-2.7869,-2.7669,-2.7387,-2.7356,-2.7198,-2.7002,-2.6862,-2.6316,-2.5621,-2.5188,-2.4347,-2.3134,-2.2725,-2.2116,-2.1463,-2.1238,-2.1095,-2.1047,-2.1182,-2.1261,-2.1166,-2.0999,-2.0811,-2.0669,-2.0569,-2.046,-2.0373,-2.0193,-2.0073,-2.0045,-1.9912,-1.9769,-1.9697,-1.9596,-1.9501,-1.9413,-1.9369,-1.9339,-1.9347,-1.9354,-1.9347,-1.9347,-1.9376,-1.9457,-1.9545,-1.9582,-1.964,-1.9697,-1.9697,-1.9697,-1.9697,-1.9697,-1.9697,-1.9697,-1.9697,-1.9697,-1.9697,-1.9697,-1.9697,-1.9697,-1.9697,-1.9697,-1.9697,-1.9697,-1.9669,-1.9582,-1.931,-1.9108,-1.9071,-1.892,-1.8728,-1.8503,-1.8386,-1.8202,-1.7754,-1.7371,-1.7157,-1.6918,-1.6491,-1.5963,-1.5513,-1.5198,-1.4971,-1.4656,-1.4326,-1.4046,-1.3652,-1.3372,-1.3137,-1.2852,-1.2569,-1.2323,-1.2022,-1.1669,-1.1372,-1.1171,-1.0972,-1.0718,-1.0407,-1.015,-0.9892,-0.9476,-0.9166,-0.8956,-0.8854,-0.8804,-0.8808,-0.8808,-0.8808,-0.8808,-0.8748,-0.8689,-0.858,-2.7487,-2.7374,-2.7232,-2.7066,-2.6873,-2.6733,-2.6556,-2.6358,-2.6254,-2.5961,-2.5507,-2.495,-2.4392,-2.3729,-2.2561,-2.1873,-2.151,-2.0925,-2.062,-2.053,-2.047,-2.0538,-2.0613,-2.052,-2.0392,-2.0254,-2.0227,-2.0108,-1.9983,-1.9919,-1.9841,-1.9741,-1.9676,-1.956,-1.9494,-1.9295,-1.9213,-1.9146,-1.9019,-1.8981,-1.8988,-1.9085,-1.9093,-1.913,-1.9242,-1.9332,-1.9384,-1.9538,-1.964,-1.9697,-1.9697,-1.9697,-1.9697,-1.9697,-1.9697,-1.9697,-1.9697,-1.9697,-1.9697,-1.9697,-1.9697,-1.9697,-1.9697,-1.9697,-1.9697,-1.9697,-1.9632,-1.945,-1.9221,-1.9078,-1.9017,-1.8827,-1.8549,-1.8156,-1.8069,-1.7916,-1.7549,-1.7253,-1.6996,-1.6882,-1.6386,-1.5774,-1.5204,-1.4971,-1.4834,-1.4518,-1.4197,-1.391,-1.3515,-1.3276,-1.304,-1.2706,-1.2421,-1.2175,-1.1873,-1.1573,-1.1272,-1.1023,-1.0769,-1.0466,-1.015,-0.9784,-0.9577,-0.9267,-0.9061,-0.8906,-0.8854,-0.8804,-0.8808,-0.8808,-0.8752,-0.8752,-0.8689,-0.8629,-0.8527,-2.6922,-2.6724,-2.6607,-2.6437,-2.6254,-2.6137,-2.5949,-2.5795,-2.561,-2.546,-2.5181,-2.4764,-2.4276,-2.3759,-2.2491,-2.1742,-2.138,-2.0539,-2.015,-2.0058,-1.9889,-1.996,-2.0093,-2.0073,-2.001,-1.9932,-1.9912,-1.9848,-1.9741,-1.9669,-1.9552,-1.9487,-1.9413,-1.9347,-1.925,-1.9064,-1.8988,-1.895,-1.8853,-1.8815,-1.8822,-1.8882,-1.8934,-1.8986,-1.9137,-1.9191,-1.9347,-1.9494,-1.9632,-1.9697,-1.9697,-1.9697,-1.9697,-1.9697,-1.9697,-1.9697,-1.9697,-1.9697,-1.9697,-1.9697,-1.9697,-1.9697,-1.9697,-1.9697,-1.9697,-1.9697,-1.9617,-1.942,-1.9139,-1.8988,-1.8843,-1.862,-1.8268,-1.7963,-1.7713,-1.7536,-1.7337,-1.7051,-1.6924,-1.6754,-1.6269,-1.5614,-1.4874,-1.4805,-1.461,-1.4332,-1.4051,-1.3716,-1.3372,-1.3185,-1.2949,-1.2613,-1.2318,-1.2071,-1.1778,-1.1427,-1.107,-1.082,-1.0538,-1.0216,-0.9933,-0.9557,-0.9368,-0.9162,-0.9008,-0.8906,-0.8857,-0.8808,-0.8808,-0.8804,-0.8752,-0.8692,-0.8633,-0.8532,-0.8422,-2.6375,-2.6052,-2.6041,-2.5852,-2.5618,-2.5505,-2.5408,-2.5262,-2.4958,-2.4823,-2.4744,-2.4556,-2.4022,-2.3364,-2.2499,-2.1728,-2.1024,-2.0286,-1.9846,-1.9611,-1.9435,-1.9472,-1.9588,-1.9646,-1.9654,-1.9617,-1.9567,-1.9538,-1.9465,-1.9384,-1.9339,-1.9221,-1.9139,-1.9048,-1.8986,-1.8843,-1.8791,-1.8753,-1.8669,-1.8669,-1.8707,-1.8753,-1.8805,-1.891,-1.9001,-1.9123,-1.9347,-1.9501,-1.9603,-1.9697,-1.9682,-1.9697,-1.9697,-1.9697,-1.9697,-1.9697,-1.9697,-1.9697,-1.9697,-1.9697,-1.9697,-1.9697,-1.9697,-1.9697,-1.9697,-1.969,-1.9617,-1.9428,-1.9019,-1.8815,-1.8662,-1.8312,-1.8009,-1.7788,-1.7454,-1.724,-1.708,-1.6888,-1.6725,-1.6748,-1.6144,-1.5498,-1.5011,-1.4684,-1.4529,-1.4239,-1.391,-1.3615,-1.3329,-1.3099,-1.2861,-1.2573,-1.2274,-1.1968,-1.1673,-1.1326,-1.0972,-1.0624,-1.0289,-1.0012,-0.976,-0.9468,-0.9243,-0.9057,-0.8959,-0.8857,-0.8804,-0.8808,-0.8831,-0.8748,-0.8689,-0.8633,-0.8537,-0.8438,-0.832,-2.5832,-2.5701,-2.553,-2.5323,-2.5067,-2.4887,-2.4791,-2.4678,-2.441,-2.4238,-2.417,-2.4009,-2.3734,-2.3346,-2.2554,-2.1865,-2.1067,-2.0279,-1.9686,-1.9145,-1.8988,-1.892,-1.8988,-1.9108,-1.9221,-1.9213,-1.9221,-1.9198,-1.9123,-1.9093,-1.901,-1.8898,-1.8867,-1.8843,-1.8757,-1.8627,-1.8496,-1.8397,-1.8379,-1.8372,-1.8443,-1.8535,-1.8627,-1.8788,-1.891,-1.91,-1.9265,-1.9384,-1.9501,-1.9603,-1.9661,-1.9697,-1.9697,-1.9697,-1.9697,-1.9697,-1.9697,-1.9697,-1.9697,-1.9697,-1.9697,-1.9697,-1.9697,-1.9697,-1.9603,-1.9661,-1.9589,-1.9339,-1.9011,-1.87,-1.8422,-1.8135,-1.7821,-1.7611,-1.7358,-1.7073,-1.684,-1.6663,-1.6528,-1.6318,-1.5975,-1.5453,-1.4868,-1.4678,-1.4436,-1.4104,-1.3815,-1.352,-1.3243,-1.3017,-1.272,-1.2475,-1.2175,-1.1828,-1.1549,-1.1209,-1.0861,-1.0596,-1.0234,-0.9962,-0.976,-0.9527,-0.9338,-0.9131,-0.891,-0.8897,-0.8988,-0.8854,-0.8901,-0.8768,-0.8635,-0.859,-0.8505,-0.8355,-0.8207,-2.5323,-2.5146,-2.5037,-2.4783,-2.451,-2.4377,-2.4227,-2.4051,-2.3832,-2.3653,-2.3566,-2.3436,-2.3297,-2.3098,-2.2323,-2.1612,-2.0797,-1.9792,-1.9088,-1.8718,-1.8592,-1.8521,-1.8517,-1.862,-1.8728,-1.8812,-1.8805,-1.8774,-1.875,-1.8743,-1.869,-1.8584,-1.8592,-1.8528,-1.8478,-1.8393,-1.8307,-1.8261,-1.8228,-1.8228,-1.8268,-1.8333,-1.8542,-1.8736,-1.8896,-1.91,-1.9302,-1.9384,-1.9472,-1.9574,-1.9676,-1.9697,-1.9697,-1.9697,-1.9697,-1.9697,-1.9697,-1.9697,-1.9697,-1.9697,-1.9697,-1.969,-1.9661,-1.964,-1.9574,-1.9603,-1.9479,-1.9295,-1.8981,-1.863,-1.8187,-1.7949,-1.7713,-1.7406,-1.7199,-1.6954,-1.6663,-1.6528,-1.6399,-1.6144,-1.5798,-1.5357,-1.4954,-1.4581,-1.4291,-1.3957,-1.3563,-1.3319,-1.3055,-1.2822,-1.2573,-1.2278,-1.1981,-1.1691,-1.142,-1.11,-1.0826,-1.0577,-1.0409,-1.0163,-0.9932,-0.9733,-0.9532,-0.9347,-0.919,-0.9291,-0.9335,-0.9167,-0.9007,-0.9036,-0.8947,-0.8726,-0.8518,-0.8414,-0.8238,-2.4831,-2.4508,-2.4508,-2.4294,-2.3994,-2.3925,-2.3746,-2.3472,-2.3253,-2.3135,-2.2994,-2.2859,-2.2806,-2.2593,-2.2048,-2.1296,-2.0323,-1.9183,-1.8368,-1.8293,-1.8208,-1.8175,-1.8116,-1.8149,-1.8182,-1.8361,-1.8439,-1.8439,-1.8485,-1.8439,-1.8425,-1.8326,-1.8286,-1.8293,-1.8189,-1.8163,-1.8163,-1.8116,-1.8076,-1.8109,-1.8149,-1.824,-1.8397,-1.8683,-1.8889,-1.9017,-1.9198,-1.9347,-1.945,-1.9567,-1.9661,-1.9697,-1.9697,-1.9697,-1.9697,-1.9697,-1.9697,-1.9697,-1.9697,-1.9697,-1.9697,-1.9682,-1.9632,-1.9582,-1.9545,-1.9465,-1.9384,-1.9183,-1.895,-1.8528,-1.8035,-1.7814,-1.7536,-1.724,-1.7002,-1.6791,-1.6522,-1.6392,-1.6225,-1.6144,-1.5659,-1.5131,-1.4719,-1.4389,-1.4098,-1.3805,-1.3409,-1.3122,-1.2861,-1.2676,-1.2426,-1.218,-1.1882,-1.1537,-1.1241,-1.1178,-1.0864,-1.0636,-1.0533,-1.0365,-1.0171,-1.011,-0.9931,-0.9657,-0.9576,-0.9565,-0.9491,-0.9281,-0.9243,-0.933,-0.9108,-0.8734,-0.8622,-0.8522,-0.8258,-2.4392,-2.4109,-2.4101,-2.3839,-2.348,-2.3407,-2.326,-2.3016,-2.2814,-2.2692,-2.2646,-2.2424,-2.2263,-2.2121,-2.2053,-2.1209,-1.9915,-1.8673,-1.7996,-1.7942,-1.7862,-1.7835,-1.7788,-1.7733,-1.7679,-1.7774,-1.7989,-1.8196,-1.8242,-1.8242,-1.8189,-1.8189,-1.8189,-1.8102,-1.8016,-1.7982,-1.7969,-1.7922,-1.7882,-1.7916,-1.8016,-1.8082,-1.8247,-1.8574,-1.876,-1.8927,-1.9093,-1.928,-1.942,-1.945,-1.9617,-1.9697,-1.9697,-1.9697,-1.9697,-1.9697,-1.9697,-1.9697,-1.9697,-1.9697,-1.9697,-1.9697,-1.9632,-1.9531,-1.9457,-1.9376,-1.9265,-1.904,-1.8736,-1.8354,-1.7949,-1.77,-1.7447,-1.7199,-1.6911,-1.662,-1.6392,-1.6175,-1.6007,-1.6013,-1.548,-1.4943,-1.4523,-1.4197,-1.3952,-1.3663,-1.3324,-1.304,-1.2818,-1.2627,-1.2377,-1.2081,-1.1782,-1.1396,-1.1027,-1.1083,-1.0959,-1.0805,-1.0667,-1.0503,-1.0416,-1.0434,-1.0349,-0.9967,-0.9725,-0.9613,-0.9476,-0.9427,-0.9328,-0.9292,-0.9029,-0.8764,-0.8585,-0.8465,-0.8259,-2.4009,-2.3789,-2.3711,-2.3451,-2.312,-2.2956,-2.2776,-2.2548,-2.2263,-2.213,-2.2037,-2.1888,-2.1746,-2.1705,-2.1616,-2.0805,-1.951,-1.8293,-1.7747,-1.7659,-1.7618,-1.7618,-1.7584,-1.7529,-1.7516,-1.7557,-1.7727,-1.7855,-1.7855,-1.7814,-1.7862,-1.7862,-1.7855,-1.7808,-1.776,-1.7727,-1.77,-1.77,-1.7713,-1.776,-1.7862,-1.7982,-1.8268,-1.8464,-1.8676,-1.8843,-1.9017,-1.9272,-1.9384,-1.9457,-1.9581,-1.9697,-1.9697,-1.9697,-1.9697,-1.9697,-1.9697,-1.9697,-1.9697,-1.9697,-1.9697,-1.9632,-1.9567,-1.9457,-1.9339,-1.9228,-1.9033,-1.869,-1.8247,-1.7942,-1.7794,-1.7543,-1.7282,-1.7038,-1.6784,-1.6485,-1.6225,-1.5931,-1.5887,-1.583,-1.5328,-1.4743,-1.4197,-1.3962,-1.381,-1.3568,-1.3238,-1.3007,-1.273,-1.2529,-1.2283,-1.1953,-1.1678,-1.1481,-1.1138,-1.1153,-1.1103,-1.0934,-1.0777,-1.0669,-1.0516,-1.053,-1.0395,-1.0177,-0.9913,-0.9669,-0.9714,-0.9667,-0.9488,-0.9248,-0.9085,-0.8915,-0.8638,-0.8376,-0.8146,-2.361,-2.3421,-2.326,-2.3001,-2.2761,-2.2555,-2.2324,-2.2044,-2.1807,-2.1616,-2.1506,-2.1361,-2.1264,-2.1148,-2.077,-2.0073,-1.9104,-1.7935,-1.7411,-1.7365,-1.7365,-1.7365,-1.7406,-1.7406,-1.7365,-1.731,-1.7399,-1.7434,-1.7557,-1.7557,-1.7509,-1.7557,-1.7509,-1.7468,-1.7509,-1.7529,-1.7475,-1.7523,-1.7618,-1.7679,-1.7808,-1.8043,-1.8282,-1.8439,-1.8676,-1.8829,-1.8927,-1.9235,-1.9384,-1.9457,-1.9589,-1.9697,-1.9697,-1.9697,-1.9697,-1.9697,-1.9697,-1.9697,-1.9697,-1.9669,-1.9632,-1.9603,-1.9465,-1.9347,-1.9221,-1.9026,-1.8728,-1.8268,-1.7855,-1.7611,-1.759,-1.7378,-1.7073,-1.6827,-1.6607,-1.6337,-1.6038,-1.5786,-1.5608,-1.5418,-1.504,-1.4588,-1.4057,-1.3815,-1.3663,-1.343,-1.3142,-1.2813,-1.2578,-1.2332,-1.2081,-1.1773,-1.1553,-1.1519,-1.1379,-1.136,-1.1255,-1.1074,-1.0921,-1.0739,-1.0603,-1.0478,-1.0302,-1.0127,-0.9942,-0.974,-0.9818,-0.9792,-0.9475,-0.9244,-0.923,-0.8985,-0.8587,-0.8255,-0.7888,-2.3216,-2.2986,-2.2776,-2.2509,-2.227,-2.2044,-2.18,-2.1657,-2.1368,-2.1271,-2.118,-2.0963,-2.0858,-2.0611,-1.9644,-1.9106,-1.8546,-1.7677,-1.7051,-1.7044,-1.7051,-1.7051,-1.7009,-1.6967,-1.7051,-1.708,-1.7086,-1.7247,-1.7358,-1.7427,-1.7468,-1.7468,-1.7468,-1.7468,-1.7434,-1.7419,-1.7474,-1.7488,-1.7523,-1.7659,-1.7882,-1.8083,-1.8196,-1.8347,-1.8606,-1.8822,-1.8912,-1.9228,-1.9391,-1.9413,-1.9581,-1.969,-1.9697,-1.9697,-1.9697,-1.9697,-1.9697,-1.9697,-1.969,-1.9661,-1.9603,-1.9538,-1.9428,-1.9258,-1.9064,-1.8943,-1.8644,-1.8163,-1.774,-1.7488,-1.7426,-1.7302,-1.6989,-1.6686,-1.6429,-1.6175,-1.5881,-1.5558,-1.543,-1.5153,-1.4829,-1.4414,-1.3962,-1.3763,-1.3515,-1.3286,-1.3002,-1.2715,-1.2377,-1.2126,-1.199,-1.1716,-1.1498,-1.1422,-1.1478,-1.1465,-1.1265,-1.1174,-1.093,-1.0744,-1.0558,-1.0308,-1.0114,-0.9961,-0.9789,-0.9591,-0.9466,-0.9341,-0.9274,-0.9148,-0.8958,-0.8767,-0.8565,-0.8117,-0.7719,-2.2776,-2.2692,-2.2456,-2.2231,-2.1935,-2.1698,-2.1465,-2.1229,-2.0977,-2.0822,-2.0729,-2.0566,-2.0466,-2.0189,-1.9229,-1.8699,-1.8441,-1.7407,-1.6895,-1.6882,-1.6882,-1.6888,-1.6931,-1.6888,-1.6888,-1.6882,-1.6931,-1.7009,-1.7157,-1.7275,-1.7323,-1.731,-1.731,-1.7323,-1.7358,-1.7295,-1.7343,-1.7461,-1.759,-1.7754,-1.7942,-1.8109,-1.8242,-1.8347,-1.8637,-1.8805,-1.8965,-1.9228,-1.9391,-1.942,-1.9589,-1.9697,-1.9697,-1.9697,-1.9697,-1.9697,-1.9697,-1.9697,-1.9697,-1.9647,-1.9574,-1.9465,-1.931,-1.9064,-1.8843,-1.876,-1.8567,-1.8043,-1.77,-1.7447,-1.7253,-1.7044,-1.6827,-1.6522,-1.6256,-1.6007,-1.5703,-1.5385,-1.5159,-1.4886,-1.4605,-1.4186,-1.3763,-1.3568,-1.3334,-1.3109,-1.2818,-1.2524,-1.2175,-1.1819,-1.174,-1.1688,-1.1499,-1.1395,-1.1443,-1.1469,-1.121,-1.0993,-1.0807,-1.0621,-1.0371,-1.018,-0.9923,-0.9728,-0.953,-0.9338,-0.9081,-0.902,-0.902,-0.8832,-0.8644,-0.8379,-0.8182,-0.7857,-0.7461,-2.2377,-2.2377,-2.2123,-2.1902,-2.165,-2.1361,-2.1075,-2.0885,-2.0629,-2.0416,-2.0264,-2.0118,-2.0029,-1.9725,-1.8921,-1.8346,-1.8316,-1.7226,-1.6807,-1.6754,-1.6748,-1.6742,-1.6748,-1.6797,-1.6791,-1.6778,-1.6833,-1.684,-1.6924,-1.7051,-1.7122,-1.7157,-1.7205,-1.7205,-1.7205,-1.7247,-1.7288,-1.7461,-1.7638,-1.7828,-1.7962,-1.8135,-1.8314,-1.851,-1.8683,-1.8874,-1.9017,-1.9242,-1.9391,-1.9457,-1.9581,-1.969,-1.9697,-1.9697,-1.9697,-1.9705,-1.9712,-1.9683,-1.964,-1.9596,-1.9487,-1.9339,-1.9153,-1.8874,-1.862,-1.8606,-1.8482,-1.7963,-1.7495,-1.7288,-1.7122,-1.6827,-1.6571,-1.6306,-1.605,-1.5792,-1.5531,-1.5249,-1.4926,-1.4656,-1.4326,-1.3842,-1.3515,-1.3329,-1.3147,-1.2925,-1.2637,-1.2332,-1.1954,-1.1563,-1.1532,-1.1602,-1.154,-1.1401,-1.1457,-1.1417,-1.1115,-1.087,-1.0618,-1.0431,-1.018,-0.9923,-0.9725,-0.953,-0.9274,-0.902,-0.8767,-0.8765,-0.8765,-0.8506,-0.8247,-0.7982,-0.7719,-0.7461,-0.7134,-2.2091,-2.1841,-2.1568,-2.1471,-2.1361,-2.0858,-2.066,-2.0566,-2.0321,-2.0125,-1.9978,-1.9766,-1.9617,-1.9234,-1.8481,-1.7906,-1.7803,-1.673,-1.6392,-1.6374,-1.6368,-1.6485,-1.6528,-1.6528,-1.6565,-1.6571,-1.6663,-1.6712,-1.6761,-1.6888,-1.6967,-1.7009,-1.7128,-1.7164,-1.7205,-1.724,-1.7365,-1.7536,-1.7747,-1.7902,-1.8042,-1.8208,-1.8379,-1.8549,-1.869,-1.8882,-1.8993,-1.928,-1.9428,-1.9413,-1.9581,-1.969,-1.9697,-1.9697,-1.9697,-1.9705,-1.9691,-1.9662,-1.9574,-1.9494,-1.9384,-1.9228,-1.8995,-1.8721,-1.8471,-1.8307,-1.8109,-1.7868,-1.7371,-1.7038,-1.6911,-1.6735,-1.6436,-1.6132,-1.583,-1.5608,-1.5345,-1.5062,-1.4737,-1.4425,-1.4046,-1.3658,-1.3324,-1.3142,-1.3007,-1.2783,-1.2431,-1.213,-1.1798,-1.1422,-1.1457,-1.1439,-1.1484,-1.1473,-1.1486,-1.1306,-1.0993,-1.0681,-1.0431,-1.018,-0.9929,-0.9667,-0.9466,-0.9215,-0.8961,-0.8705,-0.8449,-0.8376,-0.8242,-0.8047,-0.7852,-0.7654,-0.7328,-0.7005,-0.6675,-2.1848,-2.1506,-2.1284,-2.1124,-2.1013,-2.0703,-2.0409,-2.0099,-2.0016,-1.9759,-1.9506,-1.9402,-1.9297,-1.8906,-1.8097,-1.7605,-1.7543,-1.6583,-1.6223,-1.62,-1.6287,-1.6318,-1.6355,-1.6436,-1.6479,-1.6479,-1.6571,-1.6577,-1.662,-1.6718,-1.6846,-1.6924,-1.7044,-1.7128,-1.7205,-1.7317,-1.7447,-1.7618,-1.7814,-1.8009,-1.8149,-1.8347,-1.8503,-1.8683,-1.8827,-1.901,-1.9168,-1.9302,-1.942,-1.9538,-1.9625,-1.9697,-1.9697,-1.9697,-1.9697,-1.9697,-1.9655,-1.9589,-1.9472,-1.9384,-1.9258,-1.8988,-1.876,-1.8535,-1.8361,-1.8242,-1.7982,-1.7652,-1.7205,-1.6918,-1.6761,-1.6577,-1.6306,-1.5957,-1.5653,-1.5385,-1.5114,-1.4829,-1.4553,-1.428,-1.3905,-1.3525,-1.3243,-1.3007,-1.2822,-1.2637,-1.2278,-1.1909,-1.1605,-1.14,-1.1412,-1.1437,-1.1424,-1.1319,-1.137,-1.1108,-1.0804,-1.0555,-1.0244,-0.9986,-0.9667,-0.9533,-0.9271,-0.8958,-0.8638,-0.8379,-0.8117,-0.7917,-0.7784,-0.7657,-0.7526,-0.7328,-0.7003,-0.6546,-0.628,-2.1759,-2.1375,-2.1075,-2.0871,-2.0703,-2.056,-2.022,-1.985,-1.9766,-1.9494,-1.9133,-1.9081,-1.8981,-1.8594,-1.781,-1.732,-1.7123,-1.6384,-1.6046,-1.6013,-1.6063,-1.6182,-1.6262,-1.6343,-1.6436,-1.6479,-1.6479,-1.6528,-1.6528,-1.6633,-1.6754,-1.6876,-1.6954,-1.7038,-1.724,-1.7406,-1.7577,-1.7754,-1.7949,-1.8128,-1.8275,-1.8485,-1.8673,-1.8812,-1.8948,-1.9093,-1.9235,-1.9376,-1.9465,-1.9574,-1.9669,-1.9697,-1.9697,-1.9697,-1.9682,-1.9661,-1.9603,-1.9509,-1.9391,-1.9235,-1.9071,-1.8805,-1.8627,-1.84,-1.8202,-1.8123,-1.7982,-1.7441,-1.7073,-1.684,-1.6682,-1.6399,-1.6138,-1.5786,-1.5424,-1.5159,-1.4932,-1.4651,-1.4373,-1.4093,-1.3763,-1.343,-1.305,-1.2769,-1.2539,-1.2292,-1.1932,-1.1692,-1.1623,-1.1449,-1.1348,-1.141,-1.1443,-1.1311,-1.1146,-1.0916,-1.0618,-1.0295,-0.998,-0.9789,-0.953,-0.9335,-0.9081,-0.877,-0.8382,-0.8052,-0.7787,-0.7589,-0.7458,-0.733,-0.7134,-0.6937,-0.6605,-0.6212,-0.6015,-2.1657,-2.1368,-2.0963,-2.0703,-2.0566,-2.0321,-2.0022,-1.9753,-1.9604,-1.9297,-1.8934,-1.8721,-1.8572,-1.8278,-1.7357,-1.6997,-1.6739,-1.5967,-1.5603,-1.5748,-1.5842,-1.5913,-1.6088,-1.6269,-1.6392,-1.6392,-1.6485,-1.6528,-1.6528,-1.6534,-1.6656,-1.6827,-1.6954,-1.708,-1.7192,-1.7393,-1.7611,-1.7882,-1.8083,-1.8275,-1.8432,-1.8595,-1.8781,-1.891,-1.9031,-1.9168,-1.931,-1.9413,-1.9494,-1.9603,-1.9654,-1.969,-1.9697,-1.9697,-1.9661,-1.9603,-1.956,-1.945,-1.931,-1.9093,-1.8903,-1.8704,-1.8517,-1.8275,-1.8029,-1.7989,-1.7902,-1.731,-1.6954,-1.6748,-1.6485,-1.6219,-1.5963,-1.5659,-1.5295,-1.4971,-1.4743,-1.4471,-1.4192,-1.3905,-1.3573,-1.3286,-1.2856,-1.248,-1.2257,-1.1959,-1.1586,-1.1452,-1.1484,-1.1477,-1.1424,-1.1297,-1.1308,-1.1189,-1.0979,-1.0734,-1.0491,-1.0104,-0.9783,-0.9527,-0.9277,-0.9025,-0.8773,-0.8452,-0.812,-0.7719,-0.7458,-0.7199,-0.7003,-0.6872,-0.6679,-0.6416,-0.6147,-0.5945,-0.5815,-2.1471,-2.1131,-2.0815,-2.056,-2.0328,-2.0067,-1.9766,-1.9519,-1.921,-1.8845,-1.8464,-1.8302,-1.7969,-1.7449,-1.6888,-1.6407,-1.6165,-1.5678,-1.534,-1.5671,-1.5715,-1.5836,-1.6007,-1.6188,-1.6312,-1.6392,-1.6485,-1.6485,-1.6528,-1.6528,-1.6663,-1.6833,-1.7038,-1.7205,-1.7365,-1.7516,-1.7639,-1.7929,-1.8142,-1.8282,-1.8485,-1.8666,-1.8858,-1.9001,-1.9137,-1.9235,-1.9391,-1.9457,-1.956,-1.9632,-1.969,-1.969,-1.969,-1.969,-1.9669,-1.9574,-1.9524,-1.9332,-1.9093,-1.8872,-1.8666,-1.8503,-1.834,-1.8102,-1.7949,-1.7781,-1.7523,-1.7186,-1.6742,-1.6534,-1.6355,-1.6057,-1.5798,-1.5441,-1.5119,-1.4834,-1.4558,-1.4291,-1.4015,-1.3673,-1.3382,-1.29,-1.2471,-1.2304,-1.2049,-1.1972,-1.1657,-1.1377,-1.1337,-1.1511,-1.1542,-1.1242,-1.1081,-1.1006,-1.0874,-1.0495,-1.0171,-0.9843,-0.9524,-0.9332,-0.902,-0.8708,-0.8382,-0.8055,-0.7722,-0.7388,-0.7066,-0.6741,-0.6544,-0.6348,-0.6218,-0.6084,-0.5883,-0.5749,-0.5618,-2.1368,-2.099,-2.0673,-2.0378,-2.0131,-1.9914,-1.9598,-1.921,-1.8786,-1.8362,-1.8144,-1.8024,-1.7659,-1.7002,-1.6451,-1.6013,-1.5742,-1.5297,-1.5159,-1.5486,-1.5626,-1.5703,-1.5881,-1.6057,-1.6182,-1.6312,-1.6392,-1.6479,-1.6528,-1.6528,-1.6663,-1.6876,-1.7115,-1.7282,-1.7441,-1.7509,-1.7686,-1.7969,-1.8221,-1.8379,-1.8581,-1.8781,-1.8941,-1.9114,-1.922,-1.9347,-1.9465,-1.9538,-1.9632,-1.9697,-1.9697,-1.9697,-1.9682,-1.9654,-1.964,-1.9538,-1.9361,-1.9168,-1.8941,-1.8718,-1.851,-1.8293,-1.8082,-1.7929,-1.7781,-1.7611,-1.7358,-1.7025,-1.6534,-1.6318,-1.6182,-1.5931,-1.562,-1.5306,-1.4983,-1.4651,-1.4368,-1.4098,-1.3768,-1.3478,-1.3152,-1.2666,-1.2235,-1.2043,-1.186,-1.1833,-1.1785,-1.1512,-1.1245,-1.1364,-1.1507,-1.1267,-1.0976,-1.0798,-1.0558,-1.0117,-0.9853,-0.9518,-0.9265,-0.9014,-0.8762,-0.8449,-0.8052,-0.7657,-0.7393,-0.7001,-0.6675,-0.6348,-0.6216,-0.6083,-0.5951,-0.5817,-0.5617,-0.5552,-0.5488,-2.1375,-2.099,-2.0573,-2.0233,-1.9978,-1.9759,-1.9442,-1.894,-1.8362,-1.8096,-1.803,-1.7716,-1.726,-1.686,-1.6338,-1.5825,-1.5409,-1.5003,-1.5068,-1.5159,-1.5385,-1.5519,-1.5748,-1.5919,-1.61,-1.6188,-1.6312,-1.6436,-1.6485,-1.6571,-1.6705,-1.6876,-1.7122,-1.7288,-1.7441,-1.7516,-1.7774,-1.8062,-1.83,-1.8489,-1.8728,-1.8903,-1.9069,-1.9197,-1.9294,-1.9406,-1.9516,-1.9618,-1.9632,-1.9697,-1.9697,-1.969,-1.9654,-1.9632,-1.9538,-1.9354,-1.9137,-1.8972,-1.8774,-1.8556,-1.8347,-1.8095,-1.7935,-1.774,-1.757,-1.7441,-1.7227,-1.6899,-1.6448,-1.6225,-1.6007,-1.5742,-1.548,-1.5165,-1.48,-1.4512,-1.4222,-1.3894,-1.3557,-1.3233,-1.2963,-1.2567,-1.22,-1.1941,-1.185,-1.1805,-1.1777,-1.1757,-1.1472,-1.1314,-1.1339,-1.1247,-1.0937,-1.0588,-1.0241,-0.9792,-0.9475,-0.9207,-0.8888,-0.8638,-0.8382,-0.8122,-0.7789,-0.7461,-0.7071,-0.6679,-0.6414,-0.615,-0.5886,-0.5752,-0.5751,-0.5686,-0.5552,-0.5489,-0.5425,-2.1111,-2.0815,-2.0416,-2.0131,-1.9811,-1.9303,-1.8934,-1.8673,-1.8247,-1.7981,-1.7793,-1.7174,-1.6637,-1.5949,-1.5403,-1.505,-1.479,-1.4636,-1.4857,-1.5017,-1.5198,-1.5435,-1.5614,-1.5836,-1.5975,-1.615,-1.6318,-1.6392,-1.6528,-1.6656,-1.6791,-1.6924,-1.708,-1.7282,-1.7441,-1.7509,-1.7814,-1.8109,-1.8354,-1.8567,-1.876,-1.8941,-1.9107,-1.9257,-1.9361,-1.9465,-1.9582,-1.964,-1.969,-1.9697,-1.9697,-1.9697,-1.9603,-1.9603,-1.9501,-1.9191,-1.8995,-1.8798,-1.8581,-1.8386,-1.8182,-1.7935,-1.774,-1.7516,-1.7352,-1.7227,-1.706,-1.6735,-1.6355,-1.605,-1.5836,-1.5614,-1.534,-1.4971,-1.4656,-1.4326,-1.4035,-1.3747,-1.3415,-1.3007,-1.269,-1.2429,-1.2044,-1.1978,-1.1898,-1.1825,-1.178,-1.1757,-1.1582,-1.1319,-1.1178,-1.1083,-1.0678,-1.0298,-0.9974,-0.9527,-0.9212,-0.8832,-0.8573,-0.8249,-0.7987,-0.7724,-0.7528,-0.7134,-0.6677,-0.6414,-0.628,-0.5951,-0.5688,-0.562,-0.5618,-0.5489,-0.5425,-0.5427,-0.5427,-2.1048,-2.0759,-2.0378,-1.9971,-1.9494,-1.8999,-1.8619,-1.835,-1.8084,-1.7767,-1.7484,-1.6824,-1.6173,-1.5553,-1.503,-1.4618,-1.437,-1.4441,-1.461,-1.4891,-1.5062,-1.5334,-1.5564,-1.5754,-1.5875,-1.61,-1.6231,-1.6355,-1.6485,-1.6663,-1.684,-1.6931,-1.708,-1.7282,-1.7447,-1.757,-1.7828,-1.8116,-1.84,-1.8574,-1.8774,-1.8972,-1.9168,-1.9287,-1.9384,-1.9494,-1.964,-1.969,-1.969,-1.9697,-1.9697,-1.9661,-1.9567,-1.9531,-1.9354,-1.9085,-1.8912,-1.8728,-1.8503,-1.8254,-1.8022,-1.7828,-1.7536,-1.7317,-1.715,-1.7031,-1.682,-1.6565,-1.6175,-1.583,-1.5659,-1.5441,-1.5108,-1.4783,-1.4507,-1.4186,-1.3894,-1.3605,-1.3195,-1.2788,-1.2482,-1.2229,-1.2026,-1.1964,-1.1919,-1.1871,-1.1734,-1.152,-1.137,-1.1089,-1.0913,-1.0793,-1.0358,-0.991,-0.9588,-0.9268,-0.8891,-0.8509,-0.8179,-0.7854,-0.7591,-0.7332,-0.7071,-0.6677,-0.6218,-0.6084,-0.6017,-0.5754,-0.5489,-0.5488,-0.5488,-0.5491,-0.5425,-0.5427,-0.5427,-2.0935,-2.0637,-2.0315,-1.9759,-1.9186,-1.8774,-1.8398,-1.809,-1.7816,-1.7545,-1.723,-1.6591,-1.5929,-1.5323,-1.4747,-1.4366,-1.422,-1.4239,-1.443,-1.4776,-1.4949,-1.521,-1.5424,-1.5608,-1.5786,-1.5969,-1.6144,-1.6318,-1.6442,-1.6663,-1.6846,-1.6888,-1.7009,-1.7205,-1.7482,-1.7631,-1.7842,-1.8149,-1.8432,-1.862,-1.8798,-1.8995,-1.9191,-1.9376,-1.9435,-1.9487,-1.9669,-1.9697,-1.9697,-1.9697,-1.9697,-1.9661,-1.9523,-1.9384,-1.9175,-1.9017,-1.8836,-1.8613,-1.8425,-1.8175,-1.7909,-1.7666,-1.7378,-1.7157,-1.7031,-1.696,-1.6791,-1.6392,-1.6007,-1.5697,-1.5525,-1.5289,-1.496,-1.464,-1.4326,-1.4046,-1.3758,-1.3372,-1.2953,-1.26,-1.231,-1.2127,-1.2199,-1.2132,-1.1958,-1.1897,-1.1662,-1.137,-1.1034,-1.0804,-1.0551,-1.0364,-1.0104,-0.9652,-0.9274,-0.8955,-0.8571,-0.8249,-0.7854,-0.7526,-0.7265,-0.694,-0.6613,-0.6284,-0.602,-0.5818,-0.5686,-0.5556,-0.5425,-0.5425,-0.5425,-0.5427,-0.5427,-0.5427,-0.5427,-2.0223,-1.9846,-1.966,-1.9408,-1.918,-1.8768,-1.835,-1.7903,-1.7689,-1.7462,-1.7114,-1.6202,-1.5509,-1.51,-1.4291,-1.391,-1.3958,-1.4057,-1.4244,-1.4534,-1.4765,-1.5034,-1.5244,-1.5474,-1.5653,-1.5881,-1.6057,-1.6275,-1.6479,-1.6705,-1.6846,-1.6931,-1.7044,-1.7234,-1.7475,-1.7631,-1.7882,-1.8196,-1.8471,-1.8659,-1.8791,-1.8988,-1.9198,-1.9361,-1.942,-1.9523,-1.9625,-1.9697,-1.9697,-1.9697,-1.964,-1.9538,-1.9391,-1.916,-1.901,-1.8851,-1.869,-1.8503,-1.8268,-1.8022,-1.7828,-1.757,-1.7323,-1.7115,-1.6996,-1.6924,-1.6712,-1.6269,-1.5919,-1.5608,-1.534,-1.5096,-1.4817,-1.4455,-1.4093,-1.3852,-1.3573,-1.3167,-1.269,-1.2451,-1.2209,-1.2244,-1.2325,-1.2184,-1.1992,-1.1749,-1.1436,-1.1048,-1.0601,-1.0298,-0.991,-0.9786,-0.9716,-0.9396,-0.8955,-0.8571,-0.8247,-0.7919,-0.7591,-0.7263,-0.7001,-0.6609,-0.6282,-0.6084,-0.582,-0.5686,-0.562,-0.5493,-0.5428,-0.5427,-0.5427,-0.5427,-0.5427,-0.5427,-0.5427,-1.9588,-1.9268,-1.9095,-1.8949,-1.8772,-1.8614,-1.829,-1.7826,-1.735,-1.7043,-1.6694,-1.5807,-1.5137,-1.4793,-1.3964,-1.3668,-1.3815,-1.3873,-1.415,-1.4384,-1.4627,-1.4851,-1.5119,-1.5385,-1.557,-1.5798,-1.6069,-1.6324,-1.6515,-1.6663,-1.681,-1.6931,-1.708,-1.724,-1.7482,-1.7666,-1.7882,-1.8202,-1.8524,-1.8697,-1.8822,-1.8981,-1.9191,-1.9347,-1.942,-1.9523,-1.9625,-1.9697,-1.9697,-1.9661,-1.956,-1.945,-1.9302,-1.9123,-1.8903,-1.8704,-1.8549,-1.8361,-1.8116,-1.7909,-1.7713,-1.7447,-1.7192,-1.6954,-1.6729,-1.6656,-1.6528,-1.6132,-1.5774,-1.5468,-1.5204,-1.492,-1.464,-1.4321,-1.3952,-1.3621,-1.3305,-1.2932,-1.2553,-1.2294,-1.2174,-1.2321,-1.2332,-1.2162,-1.1916,-1.161,-1.1299,-1.0744,-1.0301,-0.9849,-0.9463,-0.9142,-0.9139,-0.9014,-0.87,-0.8309,-0.7849,-0.7589,-0.7328,-0.7003,-0.6609,-0.628,-0.6017,-0.5754,-0.5624,-0.562,-0.5489,-0.5427,-0.5428,-0.5427,-0.5427,-0.5427,-0.5427,-0.536,-0.536,-1.9038,-1.8731,-1.8572,-1.8355,-1.8163,-1.8306,-1.8005,-1.7469,-1.6885,-1.6377,-1.5898,-1.5342,-1.4758,-1.4322,-1.3843,-1.3751,-1.3768,-1.3821,-1.4051,-1.4291,-1.4488,-1.4765,-1.5028,-1.5334,-1.557,-1.5798,-1.6063,-1.6318,-1.6515,-1.6705,-1.6846,-1.6931,-1.7051,-1.7205,-1.7447,-1.7693,-1.7916,-1.8235,-1.8503,-1.8736,-1.8874,-1.9011,-1.9183,-1.9347,-1.942,-1.9516,-1.9661,-1.9697,-1.9697,-1.9625,-1.9487,-1.9376,-1.9221,-1.904,-1.8827,-1.8595,-1.8478,-1.8242,-1.8003,-1.7794,-1.7549,-1.7253,-1.7002,-1.6784,-1.6565,-1.6392,-1.6262,-1.6001,-1.5641,-1.5322,-1.5062,-1.4794,-1.4512,-1.4134,-1.3763,-1.3349,-1.2993,-1.2702,-1.2466,-1.2186,-1.2315,-1.243,-1.2261,-1.2077,-1.1785,-1.1476,-1.0996,-1.0495,-0.9986,-0.9469,-0.9081,-0.8759,-0.8565,-0.8441,-0.8314,-0.8049,-0.7587,-0.7263,-0.6935,-0.6611,-0.6348,-0.6017,-0.5752,-0.5559,-0.5491,-0.5489,-0.5489,-0.5427,-0.5427,-0.536,-0.5427,-0.5427,-0.536,-0.536,-0.5359,-1.8595,-1.8612,-1.8126,-1.7818,-1.7543,-1.7396,-1.6961,-1.6501,-1.6155,-1.5625,-1.5063,-1.4683,-1.4355,-1.4273,-1.3822,-1.3626,-1.3615,-1.3716,-1.3868,-1.4062,-1.4337,-1.4621,-1.4897,-1.5249,-1.562,-1.5931,-1.615,-1.6312,-1.6515,-1.6742,-1.6882,-1.6931,-1.7231,-1.7385,-1.7523,-1.7733,-1.8022,-1.8261,-1.8528,-1.8791,-1.8867,-1.8981,-1.9191,-1.931,-1.9428,-1.9552,-1.9654,-1.9697,-1.9669,-1.956,-1.945,-1.9302,-1.9108,-1.8957,-1.8704,-1.8478,-1.8361,-1.8123,-1.7882,-1.7666,-1.7413,-1.717,-1.696,-1.6748,-1.6528,-1.6355,-1.6138,-1.5786,-1.5468,-1.5142,-1.4875,-1.4708,-1.443,-1.3863,-1.3392,-1.2998,-1.2617,-1.2633,-1.2543,-1.2444,-1.2453,-1.2366,-1.2012,-1.1826,-1.1516,-1.1118,-1.0551,-1.0047,-0.9661,-0.9148,-0.87,-0.8374,-0.8052,-0.7789,-0.7657,-0.7654,-0.7326,-0.7001,-0.6609,-0.628,-0.6017,-0.5817,-0.5554,-0.5427,-0.5428,-0.5427,-0.5427,-0.536,-0.536,-0.5359,-0.536,-0.536,-0.536,-0.5292,-0.5158]}]]